<?xml version='1.0' encoding='UTF-8'?><gpx version="1.1" creator="JPX - https://github.com/jenetics/jpx" xmlns="http://www.topografix.com/GPX/1/1"><trk><trkseg><trkpt lat="50.24819849293265" lon="5.277643290816345"><ele>228.0</ele><time>2026-03-29T11:40:43.001Z</time></trkpt><trkpt lat="50.24814583010657" lon="5.2775839063015235"><ele>227.99999999999997</ele><time>2026-03-29T11:40:48.001Z</time></trkpt><trkpt lat="50.24809927479447" lon="5.277503469145248"><ele>228.0</ele><time>2026-03-29T11:40:58.001Z</time></trkpt><trkpt lat="50.248035808522104" lon="5.277460102821752"><ele>228.0</ele><time>2026-03-29T11:41:09.001Z</time></trkpt><trkpt lat="50.24798222477989" lon="5.277400114157099"><ele>227.99999999999997</ele><time>2026-03-29T11:41:16.001Z</time></trkpt><trkpt lat="50.247925209249146" lon="5.277335004017207"><ele>228.0</ele><time>2026-03-29T11:41:23.001Z</time></trkpt><trkpt lat="50.247872692683885" lon="5.277272167376408"><ele>228.0</ele><time>2026-03-29T11:41:29.001Z</time></trkpt><trkpt lat="50.24782547021634" lon="5.277205944625918"><ele>228.14285714285714</ele><time>2026-03-29T11:41:35.001Z</time></trkpt><trkpt lat="50.24779067447157" lon="5.277120150989098"><ele>228.28571428571428</ele><time>2026-03-29T11:41:41.001Z</time></trkpt><trkpt lat="50.247747145849125" lon="5.277034455342236"><ele>228.42857142857142</ele><time>2026-03-29T11:41:47.001Z</time></trkpt><trkpt lat="50.2476893194394" lon="5.276957827650423"><ele>228.57142857142856</ele><time>2026-03-29T11:41:52.001Z</time></trkpt><trkpt lat="50.24764689764863" lon="5.276882696272253"><ele>228.71428571428572</ele><time>2026-03-29T11:41:57.001Z</time></trkpt><trkpt lat="50.24760136784625" lon="5.276787170842184"><ele>228.85714285714283</ele><time>2026-03-29T11:42:03.001Z</time></trkpt><trkpt lat="50.247555353500765" lon="5.276719074122945"><ele>229.0</ele><time>2026-03-29T11:42:07.001Z</time></trkpt><trkpt lat="50.247508255194106" lon="5.276646669396237"><ele>229.0</ele><time>2026-03-29T11:42:13.001Z</time></trkpt><trkpt lat="50.247458632092865" lon="5.276571501767853"><ele>229.0</ele><time>2026-03-29T11:42:19.001Z</time></trkpt><trkpt lat="50.24740951779089" lon="5.276485981104941"><ele>229.0</ele><time>2026-03-29T11:42:24.001Z</time></trkpt><trkpt lat="50.24737349558796" lon="5.276401609469238"><ele>229.0</ele><time>2026-03-29T11:42:29.001Z</time></trkpt><trkpt lat="50.24733335444405" lon="5.276309549657147"><ele>229.0</ele><time>2026-03-29T11:42:35.001Z</time></trkpt><trkpt lat="50.24728808736991" lon="5.276236828803708"><ele>229.0</ele><time>2026-03-29T11:42:40.001Z</time></trkpt><trkpt lat="50.24724538903547" lon="5.276155649075241"><ele>229.0</ele><time>2026-03-29T11:42:46.001Z</time></trkpt><trkpt lat="50.247195271442706" lon="5.276094073828771"><ele>229.14285714285714</ele><time>2026-03-29T11:42:51.001Z</time></trkpt><trkpt lat="50.24716148282111" lon="5.276003279687643"><ele>229.28571428571428</ele><time>2026-03-29T11:42:56.001Z</time></trkpt><trkpt lat="50.24712086034378" lon="5.275922105333251"><ele>229.42857142857142</ele><time>2026-03-29T11:43:01.001Z</time></trkpt><trkpt lat="50.24708908734675" lon="5.275819838278767"><ele>229.57142857142856</ele><time>2026-03-29T11:43:07.001Z</time></trkpt><trkpt lat="50.24704796539551" lon="5.275726175084214"><ele>229.71428571428572</ele><time>2026-03-29T11:43:13.001Z</time></trkpt><trkpt lat="50.24701366890455" lon="5.275641387846511"><ele>229.85714285714283</ele><time>2026-03-29T11:43:18.001Z</time></trkpt><trkpt lat="50.24698085682961" lon="5.275542323169693"><ele>229.99999999999997</ele><time>2026-03-29T11:43:24.001Z</time></trkpt><trkpt lat="50.24694845992822" lon="5.275447974504372"><ele>230.28571428571425</ele><time>2026-03-29T11:43:30.001Z</time></trkpt><trkpt lat="50.24690533505793" lon="5.275365161339065"><ele>230.57142857142856</ele><time>2026-03-29T11:43:36.001Z</time></trkpt><trkpt lat="50.246869933904826" lon="5.27528327632926"><ele>230.85714285714286</ele><time>2026-03-29T11:43:42.001Z</time></trkpt><trkpt lat="50.246828601624564" lon="5.275204285550194"><ele>231.14285714285714</ele><time>2026-03-29T11:43:48.001Z</time></trkpt><trkpt lat="50.24679518577517" lon="5.275107551517779"><ele>231.42857142857144</ele><time>2026-03-29T11:43:54.001Z</time></trkpt><trkpt lat="50.2467707725091" lon="5.2750107896187215"><ele>231.71428571428575</ele><time>2026-03-29T11:44:00.001Z</time></trkpt><trkpt lat="50.246738956839486" lon="5.274923025162287"><ele>232.00000000000003</ele><time>2026-03-29T11:44:06Z</time></trkpt><trkpt lat="50.2467122662547" lon="5.274829596741666"><ele>232.28571428571433</ele><time>2026-03-29T11:44:12Z</time></trkpt><trkpt lat="50.24668987983703" lon="5.2747354267836934"><ele>232.57142857142858</ele><time>2026-03-29T11:44:17Z</time></trkpt><trkpt lat="50.2466664662646" lon="5.274638576081535"><ele>232.8571428571429</ele><time>2026-03-29T11:44:24Z</time></trkpt><trkpt lat="50.246617461932885" lon="5.274553057553221"><ele>233.14285714285717</ele><time>2026-03-29T11:44:29Z</time></trkpt><trkpt lat="50.246579701720606" lon="5.274470385777785"><ele>233.42857142857144</ele><time>2026-03-29T11:44:34Z</time></trkpt><trkpt lat="50.24653004694705" lon="5.274382840141785"><ele>233.71428571428572</ele><time>2026-03-29T11:44:40Z</time></trkpt><trkpt lat="50.246489968629795" lon="5.274298574408231"><ele>234.0</ele><time>2026-03-29T11:44:46Z</time></trkpt><trkpt lat="50.24645317558202" lon="5.274216281384604"><ele>234.14285714285717</ele><time>2026-03-29T11:44:51Z</time></trkpt><trkpt lat="50.24641472041507" lon="5.274119963925368"><ele>234.2857142857143</ele><time>2026-03-29T11:44:57Z</time></trkpt><trkpt lat="50.246375799746104" lon="5.274020580325199"><ele>234.42857142857144</ele><time>2026-03-29T11:45:03.001Z</time></trkpt><trkpt lat="50.246345301295605" lon="5.273929189717281"><ele>234.57142857142856</ele><time>2026-03-29T11:45:09.001Z</time></trkpt><trkpt lat="50.246301964214254" lon="5.273850534237816"><ele>234.7142857142857</ele><time>2026-03-29T11:45:14.001Z</time></trkpt><trkpt lat="50.24626386524384" lon="5.27375373889462"><ele>234.85714285714283</ele><time>2026-03-29T11:45:20.001Z</time></trkpt><trkpt lat="50.246230599210435" lon="5.273665102971019"><ele>235.0</ele><time>2026-03-29T11:45:26.001Z</time></trkpt><trkpt lat="50.24620460106655" lon="5.273574396423965"><ele>235.14285714285714</ele><time>2026-03-29T11:45:31.001Z</time></trkpt><trkpt lat="50.24616759119358" lon="5.2734764597731"><ele>235.28571428571428</ele><time>2026-03-29T11:45:37.001Z</time></trkpt><trkpt lat="50.246136085156884" lon="5.2733841944905215"><ele>235.42857142857142</ele><time>2026-03-29T11:45:43.001Z</time></trkpt><trkpt lat="50.24609306611646" lon="5.273310050931961"><ele>235.57142857142856</ele><time>2026-03-29T11:45:48.001Z</time></trkpt><trkpt lat="50.24606807390292" lon="5.273205741608519"><ele>235.71428571428572</ele><time>2026-03-29T11:45:54Z</time></trkpt><trkpt lat="50.2460368295283" lon="5.273111518792017"><ele>235.85714285714283</ele><time>2026-03-29T11:45:59Z</time></trkpt><trkpt lat="50.24600171635514" lon="5.273011556550204"><ele>236.0</ele><time>2026-03-29T11:46:04Z</time></trkpt><trkpt lat="50.24597717974051" lon="5.27290041384471"><ele>236.14285714285714</ele><time>2026-03-29T11:46:10Z</time></trkpt><trkpt lat="50.24595035762849" lon="5.2727917939945135"><ele>236.28571428571428</ele><time>2026-03-29T11:46:16Z</time></trkpt><trkpt lat="50.24593775950086" lon="5.272687903190398"><ele>236.42857142857142</ele><time>2026-03-29T11:46:21Z</time></trkpt><trkpt lat="50.24593583263909" lon="5.27258803598406"><ele>236.57142857142856</ele><time>2026-03-29T11:46:26Z</time></trkpt><trkpt lat="50.24592731316741" lon="5.272486360311955"><ele>236.71428571428572</ele><time>2026-03-29T11:46:32Z</time></trkpt><trkpt lat="50.24592906012613" lon="5.272378760970109"><ele>236.85714285714283</ele><time>2026-03-29T11:46:38Z</time></trkpt><trkpt lat="50.24591898373521" lon="5.2722652056071455"><ele>236.99999999999997</ele><time>2026-03-29T11:46:44Z</time></trkpt><trkpt lat="50.2458979868074" lon="5.272163763765233"><ele>237.4285714285714</ele><time>2026-03-29T11:46:50Z</time></trkpt><trkpt lat="50.2458779929416" lon="5.272066954595842"><ele>237.85714285714283</ele><time>2026-03-29T11:46:55Z</time></trkpt><trkpt lat="50.245870135216" lon="5.2719539783397105"><ele>238.28571428571428</ele><time>2026-03-29T11:47:01Z</time></trkpt><trkpt lat="50.245842411045004" lon="5.271861823043674"><ele>238.7142857142857</ele><time>2026-03-29T11:47:06Z</time></trkpt><trkpt lat="50.24581513606177" lon="5.271757584090271"><ele>239.1428571428571</ele><time>2026-03-29T11:47:12Z</time></trkpt><trkpt lat="50.2458015833344" lon="5.271644060702408"><ele>239.57142857142858</ele><time>2026-03-29T11:47:18Z</time></trkpt><trkpt lat="50.24579123297282" lon="5.271537395101762"><ele>240.0</ele><time>2026-03-29T11:47:24Z</time></trkpt><trkpt lat="50.245757214361866" lon="5.271436252373961"><ele>240.28571428571428</ele><time>2026-03-29T11:47:30Z</time></trkpt><trkpt lat="50.24573990512816" lon="5.271331654199401"><ele>240.57142857142856</ele><time>2026-03-29T11:47:36Z</time></trkpt><trkpt lat="50.24570708477642" lon="5.271225782732976"><ele>240.85714285714283</ele><time>2026-03-29T11:47:42.001Z</time></trkpt><trkpt lat="50.24567752979027" lon="5.27113854246497"><ele>241.14285714285714</ele><time>2026-03-29T11:47:47Z</time></trkpt><trkpt lat="50.24563947207199" lon="5.271042869250867"><ele>241.4285714285714</ele><time>2026-03-29T11:47:53Z</time></trkpt><trkpt lat="50.245607814314454" lon="5.270933725504358"><ele>241.7142857142857</ele><time>2026-03-29T11:47:58Z</time></trkpt><trkpt lat="50.24555821498823" lon="5.2708524937388495"><ele>242.0</ele><time>2026-03-29T11:48:06Z</time></trkpt><trkpt lat="50.24549009064871" lon="5.270844733225903"><ele>241.28571428571428</ele><time>2026-03-29T11:48:12Z</time></trkpt><trkpt lat="50.24542117704013" lon="5.270882246404033"><ele>240.57142857142856</ele><time>2026-03-29T11:48:20Z</time></trkpt><trkpt lat="50.24536416096212" lon="5.2709241010921595"><ele>239.85714285714283</ele><time>2026-03-29T11:48:22Z</time></trkpt><trkpt lat="50.24530451155713" lon="5.270971507820238"><ele>239.1428571428571</ele><time>2026-03-29T11:48:28Z</time></trkpt><trkpt lat="50.24524078044291" lon="5.271003310712363"><ele>238.42857142857142</ele><time>2026-03-29T11:48:39Z</time></trkpt><trkpt lat="50.2451733964085" lon="5.270984591442104"><ele>237.71428571428567</ele><time>2026-03-29T11:48:45Z</time></trkpt><trkpt lat="50.24509600083677" lon="5.270962931932229"><ele>236.99999999999997</ele><time>2026-03-29T11:48:51Z</time></trkpt><trkpt lat="50.24502704852472" lon="5.27092030169721"><ele>236.99999999999997</ele><time>2026-03-29T11:48:57Z</time></trkpt><trkpt lat="50.244960407987215" lon="5.270902166842813"><ele>237.0</ele><time>2026-03-29T11:49:02Z</time></trkpt><trkpt lat="50.24489713272351" lon="5.270860643254377"><ele>236.99999999999997</ele><time>2026-03-29T11:49:08Z</time></trkpt><trkpt lat="50.24483300679747" lon="5.27086056145021"><ele>236.99999999999997</ele><time>2026-03-29T11:49:13Z</time></trkpt><trkpt lat="50.244770110528584" lon="5.270881452623696"><ele>237.0</ele><time>2026-03-29T11:49:18Z</time></trkpt><trkpt lat="50.244737189465056" lon="5.2709655107719255"><ele>236.99999999999997</ele><time>2026-03-29T11:49:23Z</time></trkpt><trkpt lat="50.24469333100397" lon="5.271050081814709"><ele>236.99999999999997</ele><time>2026-03-29T11:49:29Z</time></trkpt><trkpt lat="50.244644764464816" lon="5.271127039002358"><ele>236.85714285714283</ele><time>2026-03-29T11:49:35Z</time></trkpt><trkpt lat="50.2445928174416" lon="5.2711994896747045"><ele>236.71428571428572</ele><time>2026-03-29T11:49:41Z</time></trkpt><trkpt lat="50.24452743694773" lon="5.271242887774494"><ele>236.57142857142856</ele><time>2026-03-29T11:49:47Z</time></trkpt><trkpt lat="50.24446676327281" lon="5.271214855708341"><ele>236.42857142857142</ele><time>2026-03-29T11:49:54Z</time></trkpt><trkpt lat="50.24442497637891" lon="5.27113989650771"><ele>236.28571428571428</ele><time>2026-03-29T11:50:00Z</time></trkpt><trkpt lat="50.244370561062794" lon="5.271084869368674"><ele>236.14285714285714</ele><time>2026-03-29T11:50:06Z</time></trkpt><trkpt lat="50.2443186625747" lon="5.27100926157436"><ele>236.0</ele><time>2026-03-29T11:50:12Z</time></trkpt><trkpt lat="50.2442721205638" lon="5.270926653760412"><ele>236.0</ele><time>2026-03-29T11:50:18Z</time></trkpt><trkpt lat="50.244223776721704" lon="5.270843515263895"><ele>236.0</ele><time>2026-03-29T11:50:24Z</time></trkpt><trkpt lat="50.244164906402276" lon="5.270771103476061"><ele>236.0</ele><time>2026-03-29T11:50:30Z</time></trkpt><trkpt lat="50.244120334978575" lon="5.2706913903654735"><ele>236.0</ele><time>2026-03-29T11:50:36Z</time></trkpt><trkpt lat="50.24406844786853" lon="5.2706178102520616"><ele>236.0</ele><time>2026-03-29T11:50:42Z</time></trkpt><trkpt lat="50.244023093733084" lon="5.270536230781475"><ele>236.0</ele><time>2026-03-29T11:50:48Z</time></trkpt><trkpt lat="50.24397228717767" lon="5.270461407774108"><ele>236.0</ele><time>2026-03-29T11:50:54Z</time></trkpt><trkpt lat="50.24392137417687" lon="5.270384462672758"><ele>235.85714285714283</ele><time>2026-03-29T11:51:00Z</time></trkpt><trkpt lat="50.24386045313358" lon="5.27033291255112"><ele>235.71428571428572</ele><time>2026-03-29T11:51:06Z</time></trkpt><trkpt lat="50.24381123741916" lon="5.2702616978622085"><ele>235.57142857142856</ele><time>2026-03-29T11:51:17Z</time></trkpt><trkpt lat="50.24375339542813" lon="5.270196523248603"><ele>235.42857142857142</ele><time>2026-03-29T11:51:23Z</time></trkpt><trkpt lat="50.243688840047405" lon="5.2701547889816585"><ele>235.28571428571428</ele><time>2026-03-29T11:51:28Z</time></trkpt><trkpt lat="50.24363471017135" lon="5.270103932910117"><ele>235.14285714285714</ele><time>2026-03-29T11:51:33Z</time></trkpt><trkpt lat="50.243575602681126" lon="5.27006917861166"><ele>235.0</ele><time>2026-03-29T11:51:39Z</time></trkpt><trkpt lat="50.243515732794044" lon="5.270018295280975"><ele>235.0</ele><time>2026-03-29T11:51:45Z</time></trkpt><trkpt lat="50.24344869945662" lon="5.269987976083912"><ele>234.99999999999997</ele><time>2026-03-29T11:51:51Z</time></trkpt><trkpt lat="50.243381778044395" lon="5.269939349990212"><ele>235.0</ele><time>2026-03-29T11:51:57Z</time></trkpt><trkpt lat="50.24331163513151" lon="5.2699092823897"><ele>235.0</ele><time>2026-03-29T11:52:03Z</time></trkpt><trkpt lat="50.243237295216005" lon="5.269883477317538"><ele>234.99999999999997</ele><time>2026-03-29T11:52:09Z</time></trkpt><trkpt lat="50.243167702920566" lon="5.2698585896216015"><ele>235.0</ele><time>2026-03-29T11:52:15Z</time></trkpt><trkpt lat="50.24309891550456" lon="5.269839033138279"><ele>235.0</ele><time>2026-03-29T11:52:21Z</time></trkpt><trkpt lat="50.2430272780493" lon="5.269817111654552"><ele>235.0</ele><time>2026-03-29T11:52:27Z</time></trkpt><trkpt lat="50.24296207549143" lon="5.269783305837255"><ele>234.99999999999997</ele><time>2026-03-29T11:52:33Z</time></trkpt><trkpt lat="50.24289119165149" lon="5.26976602803627"><ele>235.0</ele><time>2026-03-29T11:52:39Z</time></trkpt><trkpt lat="50.242820939211164" lon="5.269737622153328"><ele>235.0</ele><time>2026-03-29T11:52:45Z</time></trkpt><trkpt lat="50.24275075724515" lon="5.269730722254042"><ele>234.99999999999997</ele><time>2026-03-29T11:52:51Z</time></trkpt><trkpt lat="50.24268517164541" lon="5.269702815030344"><ele>235.0</ele><time>2026-03-29T11:52:57Z</time></trkpt><trkpt lat="50.242628350152316" lon="5.269657144007023"><ele>235.0</ele><time>2026-03-29T11:53:03Z</time></trkpt><trkpt lat="50.2425668721367" lon="5.269617278853206"><ele>235.14285714285714</ele><time>2026-03-29T11:53:09Z</time></trkpt><trkpt lat="50.242503949235775" lon="5.269600231764567"><ele>235.28571428571428</ele><time>2026-03-29T11:53:14Z</time></trkpt><trkpt lat="50.24243463254525" lon="5.269564519483806"><ele>235.42857142857142</ele><time>2026-03-29T11:53:20Z</time></trkpt><trkpt lat="50.24237392023745" lon="5.269520764429112"><ele>235.57142857142856</ele><time>2026-03-29T11:53:26Z</time></trkpt><trkpt lat="50.24230669162162" lon="5.269482966477925"><ele>235.71428571428572</ele><time>2026-03-29T11:53:32Z</time></trkpt><trkpt lat="50.24225387102282" lon="5.269417593654624"><ele>235.85714285714283</ele><time>2026-03-29T11:53:38Z</time></trkpt><trkpt lat="50.24219365160641" lon="5.269354317268491"><ele>236.0</ele><time>2026-03-29T11:53:43.999Z</time></trkpt><trkpt lat="50.24213342712162" lon="5.269318889887271"><ele>235.57142857142856</ele><time>2026-03-29T11:53:48.999Z</time></trkpt><trkpt lat="50.24206601784029" lon="5.26933234969652"><ele>235.14285714285717</ele><time>2026-03-29T11:53:55Z</time></trkpt><trkpt lat="50.24199262662692" lon="5.269357202408758"><ele>234.71428571428572</ele><time>2026-03-29T11:54:01Z</time></trkpt><trkpt lat="50.24193022192758" lon="5.269390443334314"><ele>234.28571428571428</ele><time>2026-03-29T11:54:07Z</time></trkpt><trkpt lat="50.24185927110509" lon="5.269397562559751"><ele>233.85714285714283</ele><time>2026-03-29T11:54:13Z</time></trkpt><trkpt lat="50.24178804401765" lon="5.26940464392326"><ele>233.42857142857144</ele><time>2026-03-29T11:54:20Z</time></trkpt><trkpt lat="50.24171727398513" lon="5.269426624908195"><ele>233.0</ele><time>2026-03-29T11:54:26Z</time></trkpt><trkpt lat="50.24164614365851" lon="5.269441132836112"><ele>233.0</ele><time>2026-03-29T11:54:32Z</time></trkpt><trkpt lat="50.24157645701531" lon="5.269426473880202"><ele>233.0</ele><time>2026-03-29T11:54:38Z</time></trkpt><trkpt lat="50.24150451424746" lon="5.269428303742737"><ele>233.0</ele><time>2026-03-29T11:54:44Z</time></trkpt><trkpt lat="50.24144290496256" lon="5.269405214459842"><ele>233.0</ele><time>2026-03-29T11:54:49Z</time></trkpt><trkpt lat="50.24136996436342" lon="5.269381522329428"><ele>233.0</ele><time>2026-03-29T11:54:56Z</time></trkpt><trkpt lat="50.24130489207425" lon="5.269374060456598"><ele>233.0</ele><time>2026-03-29T11:55:02Z</time></trkpt><trkpt lat="50.24123903375974" lon="5.269352259599967"><ele>233.0</ele><time>2026-03-29T11:55:08Z</time></trkpt><trkpt lat="50.24116924630409" lon="5.269334505620497"><ele>233.42857142857144</ele><time>2026-03-29T11:55:13.999Z</time></trkpt><trkpt lat="50.241099469411196" lon="5.26932007062512"><ele>233.85714285714283</ele><time>2026-03-29T11:55:19.999Z</time></trkpt><trkpt lat="50.241032750835444" lon="5.269301582793516"><ele>234.28571428571428</ele><time>2026-03-29T11:55:25.999Z</time></trkpt><trkpt lat="50.240967065132224" lon="5.269297290126835"><ele>234.71428571428572</ele><time>2026-03-29T11:55:31.999Z</time></trkpt><trkpt lat="50.24089641169347" lon="5.269303974652522"><ele>235.14285714285717</ele><time>2026-03-29T11:55:37.999Z</time></trkpt><trkpt lat="50.24083627406319" lon="5.269263645846766"><ele>235.57142857142856</ele><time>2026-03-29T11:55:44.999Z</time></trkpt><trkpt lat="50.24077200619079" lon="5.2692310493288534"><ele>236.0</ele><time>2026-03-29T11:55:52.999Z</time></trkpt><trkpt lat="50.24071628392647" lon="5.269166148863521"><ele>236.0</ele><time>2026-03-29T11:56:12Z</time></trkpt><trkpt lat="50.24065331702295" lon="5.2691430519783395"><ele>236.0</ele><time>2026-03-29T11:56:18Z</time></trkpt><trkpt lat="50.24058367316004" lon="5.2691389214605575"><ele>236.0</ele><time>2026-03-29T11:56:25Z</time></trkpt><trkpt lat="50.240516146068494" lon="5.269106967376076"><ele>236.0</ele><time>2026-03-29T11:56:32Z</time></trkpt><trkpt lat="50.240449305400624" lon="5.269075474308863"><ele>236.0</ele><time>2026-03-29T11:56:39Z</time></trkpt><trkpt lat="50.240384858672456" lon="5.269051117052592"><ele>236.0</ele><time>2026-03-29T11:56:45.999Z</time></trkpt><trkpt lat="50.24031516972665" lon="5.269017574100901"><ele>236.0</ele><time>2026-03-29T11:56:51.999Z</time></trkpt><trkpt lat="50.24023330660393" lon="5.26900798726493"><ele>236.28571428571428</ele><time>2026-03-29T11:56:59.999Z</time></trkpt><trkpt lat="50.24017187342995" lon="5.268970294891858"><ele>236.57142857142858</ele><time>2026-03-29T11:57:07.999Z</time></trkpt><trkpt lat="50.240109515675904" lon="5.268936314672769"><ele>236.85714285714286</ele><time>2026-03-29T11:57:15.999Z</time></trkpt><trkpt lat="50.24004871186561" lon="5.26890965865267"><ele>237.14285714285714</ele><time>2026-03-29T11:57:22.999Z</time></trkpt><trkpt lat="50.239978949840356" lon="5.268879556360568"><ele>237.42857142857144</ele><time>2026-03-29T11:57:29.999Z</time></trkpt><trkpt lat="50.239908653240015" lon="5.268869815525594"><ele>237.71428571428572</ele><time>2026-03-29T11:57:36.999Z</time></trkpt><trkpt lat="50.239842738811696" lon="5.268823691958824"><ele>238.0</ele><time>2026-03-29T11:57:43.999Z</time></trkpt><trkpt lat="50.23978044451015" lon="5.268795854983093"><ele>238.14285714285714</ele><time>2026-03-29T11:57:49.999Z</time></trkpt><trkpt lat="50.23971545678587" lon="5.268755838265456"><ele>238.28571428571428</ele><time>2026-03-29T11:57:56.999Z</time></trkpt><trkpt lat="50.23964103252453" lon="5.2687545892116"><ele>238.42857142857144</ele><time>2026-03-29T11:58:02.999Z</time></trkpt><trkpt lat="50.239570538054544" lon="5.2687326493655995"><ele>238.57142857142858</ele><time>2026-03-29T11:58:09Z</time></trkpt><trkpt lat="50.239493157735296" lon="5.268722992497724"><ele>238.71428571428572</ele><time>2026-03-29T11:58:16Z</time></trkpt><trkpt lat="50.239426018524746" lon="5.2687184651204335"><ele>238.8571428571429</ele><time>2026-03-29T11:58:22Z</time></trkpt><trkpt lat="50.23934397817316" lon="5.268718353614615"><ele>239.00000000000003</ele><time>2026-03-29T11:58:30Z</time></trkpt><trkpt lat="50.23927893850542" lon="5.268750913209808"><ele>239.00000000000003</ele><time>2026-03-29T11:58:37.999Z</time></trkpt><trkpt lat="50.239207591267316" lon="5.268763161622182"><ele>239.0</ele><time>2026-03-29T11:58:45Z</time></trkpt><trkpt lat="50.23913825001415" lon="5.2687387742767475"><ele>239.00000000000003</ele><time>2026-03-29T11:58:51Z</time></trkpt><trkpt lat="50.239064916469324" lon="5.268766207596656"><ele>239.00000000000003</ele><time>2026-03-29T11:59:00Z</time></trkpt><trkpt lat="50.239001661483066" lon="5.268777283057299"><ele>239.0</ele><time>2026-03-29T11:59:12Z</time></trkpt><trkpt lat="50.238931484047754" lon="5.268773584901063"><ele>239.00000000000003</ele><time>2026-03-29T11:59:19Z</time></trkpt><trkpt lat="50.2388573818159" lon="5.268788913500425"><ele>239.00000000000003</ele><time>2026-03-29T11:59:26Z</time></trkpt><trkpt lat="50.23878406838254" lon="5.268789111654283"><ele>239.5714285714286</ele><time>2026-03-29T11:59:33Z</time></trkpt><trkpt lat="50.23871777978329" lon="5.268787318354382"><ele>240.14285714285717</ele><time>2026-03-29T11:59:39Z</time></trkpt><trkpt lat="50.238642636411726" lon="5.26880301513996"><ele>240.71428571428572</ele><time>2026-03-29T11:59:46Z</time></trkpt><trkpt lat="50.23857899116131" lon="5.26877925164802"><ele>241.2857142857143</ele><time>2026-03-29T11:59:54Z</time></trkpt><trkpt lat="50.23850575680345" lon="5.268779619398197"><ele>241.8571428571429</ele><time>2026-03-29T12:00:01Z</time></trkpt><trkpt lat="50.23843697778244" lon="5.268771145510019"><ele>242.42857142857142</ele><time>2026-03-29T12:00:07Z</time></trkpt><trkpt lat="50.238366127326586" lon="5.268759192764619"><ele>243.0</ele><time>2026-03-29T12:00:15.001Z</time></trkpt><trkpt lat="50.238293191292954" lon="5.268761006708351"><ele>243.0</ele><time>2026-03-29T12:00:22Z</time></trkpt><trkpt lat="50.23822756797032" lon="5.268731838051366"><ele>243.0</ele><time>2026-03-29T12:00:31Z</time></trkpt><trkpt lat="50.238158042374934" lon="5.268751441734685"><ele>243.0</ele><time>2026-03-29T12:00:39Z</time></trkpt><trkpt lat="50.23808678766426" lon="5.268744993215041"><ele>243.0</ele><time>2026-03-29T12:00:46Z</time></trkpt><trkpt lat="50.238012022207805" lon="5.268752868933503"><ele>243.0</ele><time>2026-03-29T12:00:53Z</time></trkpt><trkpt lat="50.2379374831171" lon="5.2687387026832635"><ele>243.0</ele><time>2026-03-29T12:01:00Z</time></trkpt><trkpt lat="50.23787211881955" lon="5.268736731068519"><ele>243.0</ele><time>2026-03-29T12:01:06Z</time></trkpt><trkpt lat="50.23780683475874" lon="5.268736110381245"><ele>244.0</ele><time>2026-03-29T12:01:12Z</time></trkpt><trkpt lat="50.23773464351654" lon="5.268725517962866"><ele>245.0</ele><time>2026-03-29T12:01:19Z</time></trkpt><trkpt lat="50.23766625141836" lon="5.268738722718842"><ele>246.0</ele><time>2026-03-29T12:01:26Z</time></trkpt><trkpt lat="50.23758505896756" lon="5.2687482681674185"><ele>247.0</ele><time>2026-03-29T12:01:33Z</time></trkpt><trkpt lat="50.237516126574185" lon="5.268724199936733"><ele>248.0</ele><time>2026-03-29T12:01:40Z</time></trkpt><trkpt lat="50.23745465579442" lon="5.26868852268864"><ele>249.0</ele><time>2026-03-29T12:02:01Z</time></trkpt><trkpt lat="50.2373862434587" lon="5.268650585403172"><ele>250.0</ele><time>2026-03-29T12:02:08Z</time></trkpt><trkpt lat="50.23732664800945" lon="5.268607474743796"><ele>251.28571428571428</ele><time>2026-03-29T12:02:15Z</time></trkpt><trkpt lat="50.23726795826361" lon="5.268552235347703"><ele>252.57142857142858</ele><time>2026-03-29T12:02:22Z</time></trkpt><trkpt lat="50.23720407565375" lon="5.268531102758896"><ele>253.85714285714286</ele><time>2026-03-29T12:02:29Z</time></trkpt><trkpt lat="50.23714172420191" lon="5.268498285995021"><ele>255.14285714285714</ele><time>2026-03-29T12:02:35Z</time></trkpt><trkpt lat="50.23707806556196" lon="5.26844771237193"><ele>256.42857142857144</ele><time>2026-03-29T12:02:42Z</time></trkpt><trkpt lat="50.23701807803333" lon="5.268404769183739"><ele>257.7142857142857</ele><time>2026-03-29T12:02:48Z</time></trkpt><trkpt lat="50.23695767280215" lon="5.268366651592537"><ele>259.0</ele><time>2026-03-29T12:02:54Z</time></trkpt><trkpt lat="50.23689694736298" lon="5.268330590043316"><ele>259.0</ele><time>2026-03-29T12:03:03Z</time></trkpt><trkpt lat="50.23683002284976" lon="5.268304405002477"><ele>259.0</ele><time>2026-03-29T12:03:15Z</time></trkpt><trkpt lat="50.236774136449455" lon="5.268252063207434"><ele>259.0</ele><time>2026-03-29T12:03:22Z</time></trkpt><trkpt lat="50.23671811925439" lon="5.268198975948297"><ele>259.0</ele><time>2026-03-29T12:03:28Z</time></trkpt><trkpt lat="50.236673100725056" lon="5.268117883231487"><ele>259.0</ele><time>2026-03-29T12:03:40Z</time></trkpt><trkpt lat="50.2366185788242" lon="5.268052482155422"><ele>259.0</ele><time>2026-03-29T12:03:47Z</time></trkpt><trkpt lat="50.23656710550628" lon="5.267984343834419"><ele>259.0</ele><time>2026-03-29T12:03:54Z</time></trkpt><trkpt lat="50.23652964778089" lon="5.267903196637236"><ele>259.57142857142856</ele><time>2026-03-29T12:04:02Z</time></trkpt><trkpt lat="50.23645982668978" lon="5.267869314989811"><ele>260.1428571428571</ele><time>2026-03-29T12:04:11Z</time></trkpt><trkpt lat="50.23638868265187" lon="5.267854248259802"><ele>260.7142857142857</ele><time>2026-03-29T12:04:19Z</time></trkpt><trkpt lat="50.23632394970299" lon="5.267805843402698"><ele>261.2857142857143</ele><time>2026-03-29T12:04:26Z</time></trkpt><trkpt lat="50.23625902688927" lon="5.267759794204062"><ele>261.85714285714283</ele><time>2026-03-29T12:04:33Z</time></trkpt><trkpt lat="50.236204721005805" lon="5.267708644661926"><ele>262.42857142857144</ele><time>2026-03-29T12:04:40Z</time></trkpt><trkpt lat="50.23614530306219" lon="5.267644022736959"><ele>263.0</ele><time>2026-03-29T12:04:46Z</time></trkpt><trkpt lat="50.2360945400469" lon="5.267581030540843"><ele>263.0</ele><time>2026-03-29T12:04:54Z</time></trkpt><trkpt lat="50.23602831888259" lon="5.267541885581859"><ele>263.0</ele><time>2026-03-29T12:05:02Z</time></trkpt><trkpt lat="50.23596650272312" lon="5.2675015181172"><ele>263.0</ele><time>2026-03-29T12:05:10Z</time></trkpt><trkpt lat="50.23590031850884" lon="5.267454391435259"><ele>263.0</ele><time>2026-03-29T12:05:19Z</time></trkpt><trkpt lat="50.23584040245425" lon="5.267401522758729"><ele>263.0</ele><time>2026-03-29T12:05:25Z</time></trkpt><trkpt lat="50.23578067098727" lon="5.267354010034821"><ele>263.0</ele><time>2026-03-29T12:05:30Z</time></trkpt><trkpt lat="50.23572359233437" lon="5.267297220855368"><ele>263.0</ele><time>2026-03-29T12:05:38Z</time></trkpt><trkpt lat="50.23565931470273" lon="5.267263456250259"><ele>263.1428571428571</ele><time>2026-03-29T12:05:46Z</time></trkpt><trkpt lat="50.23560251289364" lon="5.267192439522871"><ele>263.2857142857143</ele><time>2026-03-29T12:05:53Z</time></trkpt><trkpt lat="50.235537574378135" lon="5.26715784682908"><ele>263.42857142857144</ele><time>2026-03-29T12:06:00Z</time></trkpt><trkpt lat="50.23548707684728" lon="5.26709632484075"><ele>263.57142857142856</ele><time>2026-03-29T12:06:07Z</time></trkpt><trkpt lat="50.235429632635665" lon="5.267036353524158"><ele>263.7142857142857</ele><time>2026-03-29T12:06:17Z</time></trkpt><trkpt lat="50.23538096681857" lon="5.266970627155762"><ele>263.85714285714283</ele><time>2026-03-29T12:06:25Z</time></trkpt><trkpt lat="50.23532297625286" lon="5.266916502731616"><ele>264.0</ele><time>2026-03-29T12:06:33Z</time></trkpt><trkpt lat="50.23526410690116" lon="5.266880653299656"><ele>264.0</ele><time>2026-03-29T12:06:38Z</time></trkpt><trkpt lat="50.235205529064814" lon="5.266821637442969"><ele>264.0</ele><time>2026-03-29T12:06:44Z</time></trkpt><trkpt lat="50.23514923916417" lon="5.2667715297454905"><ele>264.0</ele><time>2026-03-29T12:06:50Z</time></trkpt><trkpt lat="50.2350849095623" lon="5.26671648929017"><ele>264.0</ele><time>2026-03-29T12:06:57Z</time></trkpt><trkpt lat="50.23502098391691" lon="5.266664825801388"><ele>264.0</ele><time>2026-03-29T12:07:03Z</time></trkpt><trkpt lat="50.234964744745035" lon="5.266609727061603"><ele>264.0</ele><time>2026-03-29T12:07:10Z</time></trkpt><trkpt lat="50.234918754969414" lon="5.2665356136217065"><ele>264.0</ele><time>2026-03-29T12:07:17Z</time></trkpt><trkpt lat="50.234855744810126" lon="5.2665011343613655"><ele>264.42857142857144</ele><time>2026-03-29T12:07:26Z</time></trkpt><trkpt lat="50.234799703944404" lon="5.266446114883865"><ele>264.8571428571429</ele><time>2026-03-29T12:07:32Z</time></trkpt><trkpt lat="50.23473535049678" lon="5.266407894687067"><ele>265.28571428571433</ele><time>2026-03-29T12:07:39Z</time></trkpt><trkpt lat="50.23467484718825" lon="5.266364799148547"><ele>265.7142857142857</ele><time>2026-03-29T12:07:46Z</time></trkpt><trkpt lat="50.23462105069057" lon="5.266297452807363"><ele>266.14285714285717</ele><time>2026-03-29T12:07:54Z</time></trkpt><trkpt lat="50.234581834290616" lon="5.266219752100316"><ele>266.5714285714286</ele><time>2026-03-29T12:08:01Z</time></trkpt><trkpt lat="50.23452112811576" lon="5.26617218731023"><ele>267.0</ele><time>2026-03-29T12:08:09Z</time></trkpt><trkpt lat="50.234464343819845" lon="5.266122561818962"><ele>267.00000000000006</ele><time>2026-03-29T12:08:17Z</time></trkpt><trkpt lat="50.234420606338915" lon="5.266041668022364"><ele>267.0</ele><time>2026-03-29T12:08:26Z</time></trkpt><trkpt lat="50.23437073455838" lon="5.265959960250751"><ele>267.0</ele><time>2026-03-29T12:08:32Z</time></trkpt><trkpt lat="50.234328429919486" lon="5.265882075813166"><ele>267.0</ele><time>2026-03-29T12:08:38Z</time></trkpt><trkpt lat="50.23427536923291" lon="5.265800809427863"><ele>267.0</ele><time>2026-03-29T12:08:46Z</time></trkpt><trkpt lat="50.234210788924536" lon="5.265746710670791"><ele>267.00000000000006</ele><time>2026-03-29T12:08:53Z</time></trkpt><trkpt lat="50.23415699897327" lon="5.265689584787759"><ele>267.0</ele><time>2026-03-29T12:09:00Z</time></trkpt><trkpt lat="50.23411102996694" lon="5.2656106336645925"><ele>267.00000000000006</ele><time>2026-03-29T12:09:06Z</time></trkpt><trkpt lat="50.23404759789705" lon="5.265562195462443"><ele>267.0</ele><time>2026-03-29T12:09:14Z</time></trkpt><trkpt lat="50.23398758295635" lon="5.265530420924055"><ele>267.0</ele><time>2026-03-29T12:09:20Z</time></trkpt><trkpt lat="50.233926881769484" lon="5.265497360367084"><ele>267.0</ele><time>2026-03-29T12:09:25Z</time></trkpt><trkpt lat="50.23386111557346" lon="5.265440801935152"><ele>267.0</ele><time>2026-03-29T12:09:34Z</time></trkpt><trkpt lat="50.23381099199222" lon="5.265366542340403"><ele>267.00000000000006</ele><time>2026-03-29T12:09:42Z</time></trkpt><trkpt lat="50.233745233605774" lon="5.265337338966648"><ele>267.0</ele><time>2026-03-29T12:09:49Z</time></trkpt><trkpt lat="50.23368211112899" lon="5.265303909558704"><ele>267.00000000000006</ele><time>2026-03-29T12:09:54Z</time></trkpt><trkpt lat="50.233628756399696" lon="5.265233001203569"><ele>267.0</ele><time>2026-03-29T12:10:02Z</time></trkpt><trkpt lat="50.23357079108173" lon="5.265172534618972"><ele>267.0</ele><time>2026-03-29T12:10:09Z</time></trkpt><trkpt lat="50.233503424859634" lon="5.265148698460118"><ele>267.0</ele><time>2026-03-29T12:10:17Z</time></trkpt><trkpt lat="50.23344230499207" lon="5.265109093441304"><ele>267.0</ele><time>2026-03-29T12:10:23Z</time></trkpt><trkpt lat="50.23339024644451" lon="5.2650468710578435"><ele>267.00000000000006</ele><time>2026-03-29T12:10:29Z</time></trkpt><trkpt lat="50.23333851420906" lon="5.264973722219306"><ele>267.0</ele><time>2026-03-29T12:10:36Z</time></trkpt><trkpt lat="50.23327611690662" lon="5.264939653559885"><ele>267.00000000000006</ele><time>2026-03-29T12:10:44Z</time></trkpt><trkpt lat="50.23320994989585" lon="5.264886431820729"><ele>267.0</ele><time>2026-03-29T12:10:51Z</time></trkpt><trkpt lat="50.233155401989414" lon="5.2648115270838804"><ele>267.0</ele><time>2026-03-29T12:10:58Z</time></trkpt><trkpt lat="50.233087604032036" lon="5.264792171239279"><ele>267.0</ele><time>2026-03-29T12:11:07Z</time></trkpt><trkpt lat="50.23304105602738" lon="5.2647221372124555"><ele>267.0</ele><time>2026-03-29T12:11:16Z</time></trkpt><trkpt lat="50.23296818951129" lon="5.264686986040706"><ele>267.00000000000006</ele><time>2026-03-29T12:11:23Z</time></trkpt><trkpt lat="50.23293099773455" lon="5.264604066194397"><ele>267.0</ele><time>2026-03-29T12:11:50Z</time></trkpt><trkpt lat="50.23289538913374" lon="5.264517296629082"><ele>267.14285714285717</ele><time>2026-03-29T12:12:00Z</time></trkpt><trkpt lat="50.23283095507869" lon="5.264498724690013"><ele>267.2857142857143</ele><time>2026-03-29T12:12:07Z</time></trkpt><trkpt lat="50.23277123561875" lon="5.264451864246656"><ele>267.42857142857144</ele><time>2026-03-29T12:12:15Z</time></trkpt><trkpt lat="50.23272435153231" lon="5.264368606684379"><ele>267.57142857142856</ele><time>2026-03-29T12:12:22Z</time></trkpt><trkpt lat="50.232669330685624" lon="5.264294396323089"><ele>267.7142857142857</ele><time>2026-03-29T12:12:28Z</time></trkpt><trkpt lat="50.23262020811011" lon="5.264212496363678"><ele>267.8571428571429</ele><time>2026-03-29T12:12:34Z</time></trkpt><trkpt lat="50.23257089105647" lon="5.26413497744691"><ele>268.0</ele><time>2026-03-29T12:13:22Z</time></trkpt><trkpt lat="50.23250952761331" lon="5.264100046049884"><ele>268.0</ele><time>2026-03-29T12:13:33Z</time></trkpt><trkpt lat="50.23244465600591" lon="5.264082285593839"><ele>268.0</ele><time>2026-03-29T12:13:39Z</time></trkpt><trkpt lat="50.23238139920378" lon="5.264102749881543"><ele>268.0</ele><time>2026-03-29T12:13:47Z</time></trkpt><trkpt lat="50.232312979579575" lon="5.264085945168149"><ele>268.0</ele><time>2026-03-29T12:14:02Z</time></trkpt><trkpt lat="50.23226899978459" lon="5.264004207564984"><ele>268.0</ele><time>2026-03-29T12:14:09Z</time></trkpt><trkpt lat="50.23221357215472" lon="5.263941045543544"><ele>268.0</ele><time>2026-03-29T12:14:15Z</time></trkpt><trkpt lat="50.232148695623806" lon="5.263889851749477"><ele>268.0</ele><time>2026-03-29T12:14:20Z</time></trkpt><trkpt lat="50.23209047300745" lon="5.263813908869737"><ele>267.8571428571429</ele><time>2026-03-29T12:14:26Z</time></trkpt><trkpt lat="50.23204237887375" lon="5.263739240517975"><ele>267.7142857142857</ele><time>2026-03-29T12:14:33Z</time></trkpt><trkpt lat="50.23200947481684" lon="5.263653525460354"><ele>267.57142857142856</ele><time>2026-03-29T12:14:42Z</time></trkpt><trkpt lat="50.23195367071674" lon="5.263606684464369"><ele>267.42857142857144</ele><time>2026-03-29T12:14:48Z</time></trkpt><trkpt lat="50.23189104375723" lon="5.263577290632828"><ele>267.2857142857143</ele><time>2026-03-29T12:14:53Z</time></trkpt><trkpt lat="50.231832692163756" lon="5.2635125625990185"><ele>267.14285714285717</ele><time>2026-03-29T12:15:00Z</time></trkpt><trkpt lat="50.23177759818593" lon="5.263431091084098"><ele>267.0</ele><time>2026-03-29T12:15:07Z</time></trkpt><trkpt lat="50.23172743018646" lon="5.263365910567729"><ele>267.00000000000006</ele><time>2026-03-29T12:15:13Z</time></trkpt><trkpt lat="50.23167509050461" lon="5.263293902705831"><ele>267.0</ele><time>2026-03-29T12:15:19Z</time></trkpt><trkpt lat="50.23161571973328" lon="5.263223362690262"><ele>267.0</ele><time>2026-03-29T12:15:26Z</time></trkpt><trkpt lat="50.23156270732151" lon="5.263168757267716"><ele>267.0</ele><time>2026-03-29T12:15:33Z</time></trkpt><trkpt lat="50.23150647994268" lon="5.2631094376287795"><ele>267.0</ele><time>2026-03-29T12:15:39Z</time></trkpt><trkpt lat="50.23144827253143" lon="5.263056012566651"><ele>267.00000000000006</ele><time>2026-03-29T12:15:46Z</time></trkpt><trkpt lat="50.231398171996176" lon="5.2629918488780545"><ele>267.0</ele><time>2026-03-29T12:15:53Z</time></trkpt><trkpt lat="50.23134099630463" lon="5.262926406186653"><ele>267.00000000000006</ele><time>2026-03-29T12:16:00Z</time></trkpt><trkpt lat="50.23127637279885" lon="5.262884960893326"><ele>267.0</ele><time>2026-03-29T12:16:07Z</time></trkpt><trkpt lat="50.231227439995195" lon="5.26280857368021"><ele>267.0</ele><time>2026-03-29T12:16:13Z</time></trkpt><trkpt lat="50.231165552300794" lon="5.262750015574554"><ele>267.0</ele><time>2026-03-29T12:16:19Z</time></trkpt><trkpt lat="50.23111494482076" lon="5.262680091224792"><ele>267.0</ele><time>2026-03-29T12:16:26Z</time></trkpt><trkpt lat="50.23105659509094" lon="5.2626289347926285"><ele>267.00000000000006</ele><time>2026-03-29T12:16:32Z</time></trkpt><trkpt lat="50.23100764551696" lon="5.26254435783882"><ele>267.0</ele><time>2026-03-29T12:16:39Z</time></trkpt><trkpt lat="50.23094963959812" lon="5.262487740902271"><ele>267.00000000000006</ele><time>2026-03-29T12:16:45Z</time></trkpt><trkpt lat="50.230899067620214" lon="5.262425976402654"><ele>267.0</ele><time>2026-03-29T12:16:52Z</time></trkpt><trkpt lat="50.2308482220827" lon="5.2623435304254045"><ele>267.0</ele><time>2026-03-29T12:16:59Z</time></trkpt><trkpt lat="50.23079552558573" lon="5.26227564147247"><ele>267.0</ele><time>2026-03-29T12:17:06Z</time></trkpt><trkpt lat="50.23073503766613" lon="5.262218733822541"><ele>267.0</ele><time>2026-03-29T12:17:13Z</time></trkpt><trkpt lat="50.23067599199999" lon="5.26214684151474"><ele>267.00000000000006</ele><time>2026-03-29T12:17:18Z</time></trkpt><trkpt lat="50.230616308643846" lon="5.26210713175081"><ele>267.0</ele><time>2026-03-29T12:17:27Z</time></trkpt><trkpt lat="50.23055388245251" lon="5.262085264038044"><ele>267.14285714285717</ele><time>2026-03-29T12:17:38Z</time></trkpt><trkpt lat="50.230517792937526" lon="5.262003767448448"><ele>267.2857142857143</ele><time>2026-03-29T12:17:46Z</time></trkpt><trkpt lat="50.230463362423635" lon="5.2619469270597055"><ele>267.42857142857144</ele><time>2026-03-29T12:17:52Z</time></trkpt><trkpt lat="50.230404880316875" lon="5.26188185779813"><ele>267.57142857142856</ele><time>2026-03-29T12:17:59Z</time></trkpt><trkpt lat="50.23035221841421" lon="5.261811201968814"><ele>267.7142857142857</ele><time>2026-03-29T12:18:06Z</time></trkpt><trkpt lat="50.23029849822451" lon="5.261747885706138"><ele>267.8571428571429</ele><time>2026-03-29T12:18:12Z</time></trkpt><trkpt lat="50.2302418832995" lon="5.261674971107064"><ele>268.0</ele><time>2026-03-29T12:18:19Z</time></trkpt><trkpt lat="50.23018079747094" lon="5.261624041319463"><ele>268.0</ele><time>2026-03-29T12:18:26Z</time></trkpt><trkpt lat="50.230131842270765" lon="5.261561193311217"><ele>268.0</ele><time>2026-03-29T12:18:32Z</time></trkpt><trkpt lat="50.2300587832147" lon="5.261544093906758"><ele>268.0</ele><time>2026-03-29T12:18:40Z</time></trkpt><trkpt lat="50.22999843178239" lon="5.261486548020769"><ele>268.0</ele><time>2026-03-29T12:18:57Z</time></trkpt><trkpt lat="50.22992939390947" lon="5.261464781024284"><ele>268.0</ele><time>2026-03-29T12:19:05Z</time></trkpt><trkpt lat="50.22986930612592" lon="5.261432240669164"><ele>268.0</ele><time>2026-03-29T12:19:10Z</time></trkpt><trkpt lat="50.22984657865382" lon="5.2613371953030255"><ele>268.0</ele><time>2026-03-29T12:19:18Z</time></trkpt><trkpt lat="50.22978473389444" lon="5.261279154022778"><ele>267.8571428571429</ele><time>2026-03-29T12:19:24Z</time></trkpt><trkpt lat="50.22972450558325" lon="5.261221351077282"><ele>267.7142857142857</ele><time>2026-03-29T12:19:30Z</time></trkpt><trkpt lat="50.22966334494449" lon="5.2611859389905975"><ele>267.57142857142856</ele><time>2026-03-29T12:19:38Z</time></trkpt><trkpt lat="50.229604567453585" lon="5.26113285375529"><ele>267.42857142857144</ele><time>2026-03-29T12:19:45Z</time></trkpt><trkpt lat="50.22955487315442" lon="5.261068262586209"><ele>267.2857142857143</ele><time>2026-03-29T12:19:51Z</time></trkpt><trkpt lat="50.229493572946176" lon="5.261006809044555"><ele>267.14285714285717</ele><time>2026-03-29T12:19:58Z</time></trkpt><trkpt lat="50.22943395841649" lon="5.260944891043891"><ele>267.0</ele><time>2026-03-29T12:20:04Z</time></trkpt><trkpt lat="50.229369420312494" lon="5.260896178986847"><ele>267.00000000000006</ele><time>2026-03-29T12:20:12Z</time></trkpt><trkpt lat="50.22929763240625" lon="5.260838381066255"><ele>267.0</ele><time>2026-03-29T12:20:25Z</time></trkpt><trkpt lat="50.22923154524474" lon="5.260784968032018"><ele>267.0</ele><time>2026-03-29T12:20:33Z</time></trkpt><trkpt lat="50.2291718429883" lon="5.260738338080128"><ele>267.0</ele><time>2026-03-29T12:20:40Z</time></trkpt><trkpt lat="50.22910419247741" lon="5.260705094779497"><ele>267.0</ele><time>2026-03-29T12:20:47Z</time></trkpt><trkpt lat="50.22903795577652" lon="5.260652707812432"><ele>267.00000000000006</ele><time>2026-03-29T12:20:53Z</time></trkpt><trkpt lat="50.2289736298407" lon="5.260610367255847"><ele>267.0</ele><time>2026-03-29T12:21:00Z</time></trkpt><trkpt lat="50.228911952605095" lon="5.260576677327135"><ele>266.7142857142857</ele><time>2026-03-29T12:21:06Z</time></trkpt><trkpt lat="50.22886850429234" lon="5.260502659146032"><ele>266.42857142857144</ele><time>2026-03-29T12:21:14Z</time></trkpt><trkpt lat="50.22880611445917" lon="5.26046746500616"><ele>266.1428571428571</ele><time>2026-03-29T12:21:24Z</time></trkpt><trkpt lat="50.22874503718413" lon="5.2604180589611165"><ele>265.8571428571429</ele><time>2026-03-29T12:21:31Z</time></trkpt><trkpt lat="50.2286791029496" lon="5.2603781935352245"><ele>265.57142857142856</ele><time>2026-03-29T12:21:38Z</time></trkpt><trkpt lat="50.228619429573875" lon="5.260330555130012"><ele>265.2857142857143</ele><time>2026-03-29T12:21:44Z</time></trkpt><trkpt lat="50.22855693189696" lon="5.260271888174197"><ele>265.0</ele><time>2026-03-29T12:21:50Z</time></trkpt><trkpt lat="50.228493356097616" lon="5.2602364595923525"><ele>264.99999999999994</ele><time>2026-03-29T12:21:57Z</time></trkpt><trkpt lat="50.22843436720665" lon="5.260196884226916"><ele>265.0</ele><time>2026-03-29T12:22:03Z</time></trkpt><trkpt lat="50.22836942837181" lon="5.260166728095144"><ele>265.0</ele><time>2026-03-29T12:22:10Z</time></trkpt><trkpt lat="50.22829767439291" lon="5.260142657140386"><ele>265.0</ele><time>2026-03-29T12:22:17Z</time></trkpt><trkpt lat="50.228222306902595" lon="5.260146183185475"><ele>265.0</ele><time>2026-03-29T12:22:37Z</time></trkpt><trkpt lat="50.228164887970664" lon="5.260099659285418"><ele>264.99999999999994</ele><time>2026-03-29T12:22:44Z</time></trkpt><trkpt lat="50.22810079683745" lon="5.260060456924015"><ele>265.0</ele><time>2026-03-29T12:22:51Z</time></trkpt><trkpt lat="50.22803676872876" lon="5.260013265239671"><ele>264.2857142857143</ele><time>2026-03-29T12:22:58Z</time></trkpt><trkpt lat="50.22799649866477" lon="5.259930436317727"><ele>263.57142857142856</ele><time>2026-03-29T12:23:05Z</time></trkpt><trkpt lat="50.227934389074754" lon="5.2598708145693935"><ele>262.8571428571429</ele><time>2026-03-29T12:23:11Z</time></trkpt><trkpt lat="50.227873017240874" lon="5.259825790444983"><ele>262.1428571428571</ele><time>2026-03-29T12:23:22Z</time></trkpt><trkpt lat="50.22783364446109" lon="5.25974102433255"><ele>261.42857142857144</ele><time>2026-03-29T12:23:32Z</time></trkpt><trkpt lat="50.227765319205446" lon="5.259718483282008"><ele>260.7142857142857</ele><time>2026-03-29T12:23:38Z</time></trkpt><trkpt lat="50.22769849056518" lon="5.259696547651569"><ele>260.0</ele><time>2026-03-29T12:23:43Z</time></trkpt><trkpt lat="50.22763260774244" lon="5.259678804176369"><ele>260.00000000000006</ele><time>2026-03-29T12:23:50Z</time></trkpt><trkpt lat="50.22756553864055" lon="5.259658332516768"><ele>260.0</ele><time>2026-03-29T12:23:57Z</time></trkpt><trkpt lat="50.227489058583366" lon="5.259640624582141"><ele>260.0</ele><time>2026-03-29T12:24:04Z</time></trkpt><trkpt lat="50.227423008467106" lon="5.259641403378666"><ele>260.0</ele><time>2026-03-29T12:24:11Z</time></trkpt><trkpt lat="50.227345294914294" lon="5.259612128868652"><ele>260.0</ele><time>2026-03-29T12:24:19Z</time></trkpt><trkpt lat="50.22727680152724" lon="5.259590892148145"><ele>260.00000000000006</ele><time>2026-03-29T12:24:26Z</time></trkpt><trkpt lat="50.22721393732979" lon="5.259570670882268"><ele>260.0</ele><time>2026-03-29T12:24:32Z</time></trkpt><trkpt lat="50.227146450514304" lon="5.259564414003299"><ele>259.5714285714286</ele><time>2026-03-29T12:24:38Z</time></trkpt><trkpt lat="50.22707423782361" lon="5.25955939103834"><ele>259.14285714285717</ele><time>2026-03-29T12:24:44Z</time></trkpt><trkpt lat="50.22700595865088" lon="5.259573407718479"><ele>258.7142857142857</ele><time>2026-03-29T12:24:50Z</time></trkpt><trkpt lat="50.22693449280272" lon="5.259585440268798"><ele>258.28571428571433</ele><time>2026-03-29T12:24:56Z</time></trkpt><trkpt lat="50.22686504859868" lon="5.259595798705325"><ele>257.8571428571429</ele><time>2026-03-29T12:25:01Z</time></trkpt><trkpt lat="50.22679851795847" lon="5.259593654809771"><ele>257.42857142857144</ele><time>2026-03-29T12:25:07Z</time></trkpt><trkpt lat="50.2267320198247" lon="5.259608157737911"><ele>257.0</ele><time>2026-03-29T12:25:13Z</time></trkpt><trkpt lat="50.226657885967235" lon="5.259614026110302"><ele>257.0</ele><time>2026-03-29T12:25:19Z</time></trkpt><trkpt lat="50.22659424960144" lon="5.259639918751824"><ele>257.0</ele><time>2026-03-29T12:25:25Z</time></trkpt><trkpt lat="50.226526713718755" lon="5.259715053374206"><ele>257.0</ele><time>2026-03-29T12:25:32Z</time></trkpt><trkpt lat="50.22647360849732" lon="5.259772948975689"><ele>257.0</ele><time>2026-03-29T12:25:39Z</time></trkpt><trkpt lat="50.22641171420903" lon="5.259826802573807"><ele>257.0</ele><time>2026-03-29T12:25:45Z</time></trkpt><trkpt lat="50.22634558777964" lon="5.259876570147583"><ele>257.0</ele><time>2026-03-29T12:25:52Z</time></trkpt><trkpt lat="50.22627488450253" lon="5.259925984539645"><ele>257.0</ele><time>2026-03-29T12:25:59Z</time></trkpt><trkpt lat="50.2262186503861" lon="5.259982669215569"><ele>256.0</ele><time>2026-03-29T12:26:05Z</time></trkpt><trkpt lat="50.22615629118201" lon="5.260024065925964"><ele>255.0</ele><time>2026-03-29T12:26:11Z</time></trkpt><trkpt lat="50.226095669789586" lon="5.260080767733044"><ele>254.0</ele><time>2026-03-29T12:26:17Z</time></trkpt><trkpt lat="50.22603836685439" lon="5.2601477789074185"><ele>253.0</ele><time>2026-03-29T12:26:23Z</time></trkpt><trkpt lat="50.22597742543329" lon="5.26020126655101"><ele>252.0</ele><time>2026-03-29T12:26:29Z</time></trkpt><trkpt lat="50.22593074097294" lon="5.2602707560124555"><ele>251.0</ele><time>2026-03-29T12:26:35Z</time></trkpt><trkpt lat="50.225889573031324" lon="5.260346230371321"><ele>250.0</ele><time>2026-03-29T12:26:40Z</time></trkpt><trkpt lat="50.2258426011868" lon="5.260415211318778"><ele>250.0</ele><time>2026-03-29T12:26:46Z</time></trkpt><trkpt lat="50.22579300947106" lon="5.2604929851572155"><ele>250.0</ele><time>2026-03-29T12:26:53Z</time></trkpt><trkpt lat="50.22574147469109" lon="5.260562213530523"><ele>250.0</ele><time>2026-03-29T12:26:59Z</time></trkpt><trkpt lat="50.22569134369271" lon="5.260628184094428"><ele>250.0</ele><time>2026-03-29T12:27:05Z</time></trkpt><trkpt lat="50.22563279663919" lon="5.260686153948878"><ele>250.0</ele><time>2026-03-29T12:27:11Z</time></trkpt><trkpt lat="50.22557421801435" lon="5.26075349661043"><ele>250.0</ele><time>2026-03-29T12:27:17Z</time></trkpt><trkpt lat="50.22552574240875" lon="5.260824928110788"><ele>250.0</ele><time>2026-03-29T12:27:22Z</time></trkpt><trkpt lat="50.22546112701842" lon="5.260862977234922"><ele>249.0</ele><time>2026-03-29T12:27:28Z</time></trkpt><trkpt lat="50.225394741847325" lon="5.26090232348687"><ele>248.0</ele><time>2026-03-29T12:27:35Z</time></trkpt><trkpt lat="50.225329652584" lon="5.2608794496084315"><ele>247.0</ele><time>2026-03-29T12:27:44Z</time></trkpt><trkpt lat="50.22526335926287" lon="5.260876527412253"><ele>246.0</ele><time>2026-03-29T12:27:52Z</time></trkpt><trkpt lat="50.22519840136086" lon="5.260864429711724"><ele>245.0</ele><time>2026-03-29T12:27:58Z</time></trkpt><trkpt lat="50.22512859346552" lon="5.260873818260662"><ele>244.0</ele><time>2026-03-29T12:28:04Z</time></trkpt><trkpt lat="50.22506216249581" lon="5.260882650176312"><ele>243.0</ele><time>2026-03-29T12:28:11Z</time></trkpt><trkpt lat="50.22499598302524" lon="5.260875308500811"><ele>243.0</ele><time>2026-03-29T12:28:17Z</time></trkpt><trkpt lat="50.22492824786553" lon="5.260871574291849"><ele>243.0</ele><time>2026-03-29T12:28:23Z</time></trkpt><trkpt lat="50.224859767326514" lon="5.260859844802471"><ele>243.0</ele><time>2026-03-29T12:28:31Z</time></trkpt><trkpt lat="50.22479003557372" lon="5.260851046213922"><ele>243.0</ele><time>2026-03-29T12:28:38Z</time></trkpt><trkpt lat="50.22471649664848" lon="5.260854968658154"><ele>243.0</ele><time>2026-03-29T12:28:44Z</time></trkpt><trkpt lat="50.224653112483225" lon="5.2608644701434075"><ele>243.0</ele><time>2026-03-29T12:28:51Z</time></trkpt><trkpt lat="50.224536866462174" lon="5.26086776348465"><ele>242.71428571428572</ele><time>2026-03-29T12:29:06Z</time></trkpt><trkpt lat="50.22447502690478" lon="5.260799946637396"><ele>242.42857142857144</ele><time>2026-03-29T12:29:16Z</time></trkpt><trkpt lat="50.224398849085695" lon="5.260810460778303"><ele>242.14285714285717</ele><time>2026-03-29T12:29:22Z</time></trkpt><trkpt lat="50.22433592251508" lon="5.260821129911265"><ele>241.85714285714286</ele><time>2026-03-29T12:29:28Z</time></trkpt><trkpt lat="50.22426240824775" lon="5.260837009618816"><ele>241.5714285714286</ele><time>2026-03-29T12:29:36Z</time></trkpt><trkpt lat="50.22419683191531" lon="5.260828503151473"><ele>241.2857142857143</ele><time>2026-03-29T12:29:43Z</time></trkpt><trkpt lat="50.22412088841132" lon="5.260818349096472"><ele>241.0</ele><time>2026-03-29T12:29:48Z</time></trkpt><trkpt lat="50.22405768805575" lon="5.26081683964295"><ele>241.0</ele><time>2026-03-29T12:29:55Z</time></trkpt><trkpt lat="50.22398414089173" lon="5.260819206483332"><ele>241.00000000000003</ele><time>2026-03-29T12:30:03Z</time></trkpt><trkpt lat="50.22391182598305" lon="5.260793880152738"><ele>241.0</ele><time>2026-03-29T12:30:09Z</time></trkpt><trkpt lat="50.223851627430086" lon="5.260828594684776"><ele>241.0</ele><time>2026-03-29T12:30:16Z</time></trkpt><trkpt lat="50.22378649098453" lon="5.260791807465457"><ele>241.00000000000003</ele><time>2026-03-29T12:30:21Z</time></trkpt><trkpt lat="50.22371716673878" lon="5.260790894360356"><ele>241.0</ele><time>2026-03-29T12:30:28Z</time></trkpt><trkpt lat="50.223642247501985" lon="5.260765066113173"><ele>241.0</ele><time>2026-03-29T12:30:33Z</time></trkpt><trkpt lat="50.223575287255834" lon="5.260750437292892"><ele>240.85714285714286</ele><time>2026-03-29T12:30:38Z</time></trkpt><trkpt lat="50.223504976157486" lon="5.260717507107386"><ele>240.71428571428572</ele><time>2026-03-29T12:30:46Z</time></trkpt><trkpt lat="50.22343037231924" lon="5.260721910253077"><ele>240.57142857142858</ele><time>2026-03-29T12:30:51Z</time></trkpt><trkpt lat="50.223363180897536" lon="5.260681768182408"><ele>240.42857142857144</ele><time>2026-03-29T12:30:56Z</time></trkpt><trkpt lat="50.22329359293148" lon="5.2606539426876004"><ele>240.28571428571428</ele><time>2026-03-29T12:31:02Z</time></trkpt><trkpt lat="50.22323311129479" lon="5.260613686230559"><ele>240.14285714285717</ele><time>2026-03-29T12:31:08Z</time></trkpt><trkpt lat="50.22317763196671" lon="5.260550581540637"><ele>240.0</ele><time>2026-03-29T12:31:14Z</time></trkpt><trkpt lat="50.22311051878815" lon="5.260498282189684"><ele>239.71428571428572</ele><time>2026-03-29T12:31:19.999Z</time></trkpt><trkpt lat="50.22304731448526" lon="5.260469554983595"><ele>239.42857142857142</ele><time>2026-03-29T12:31:25.999Z</time></trkpt><trkpt lat="50.222987711415655" lon="5.26042143985935"><ele>239.14285714285714</ele><time>2026-03-29T12:31:31.999Z</time></trkpt><trkpt lat="50.22292147121149" lon="5.260384420582213"><ele>238.85714285714286</ele><time>2026-03-29T12:31:42.999Z</time></trkpt><trkpt lat="50.2228678273077" lon="5.260327469863102"><ele>238.57142857142856</ele><time>2026-03-29T12:31:49.999Z</time></trkpt><trkpt lat="50.222792819175424" lon="5.2602864035563055"><ele>238.28571428571428</ele><time>2026-03-29T12:31:56.999Z</time></trkpt><trkpt lat="50.22273143022362" lon="5.260257695712488"><ele>238.0</ele><time>2026-03-29T12:32:01.999Z</time></trkpt><trkpt lat="50.222665362782635" lon="5.260247701805134"><ele>238.0</ele><time>2026-03-29T12:32:06.999Z</time></trkpt><trkpt lat="50.222593385785615" lon="5.260227574153818"><ele>238.0</ele><time>2026-03-29T12:32:12.999Z</time></trkpt><trkpt lat="50.22253366457127" lon="5.260191685321387"><ele>238.0</ele><time>2026-03-29T12:32:18.999Z</time></trkpt><trkpt lat="50.22247304750157" lon="5.260154315187386"><ele>238.0</ele><time>2026-03-29T12:32:24.999Z</time></trkpt><trkpt lat="50.222415602047064" lon="5.260113947500792"><ele>238.0</ele><time>2026-03-29T12:32:30.999Z</time></trkpt><trkpt lat="50.22235566137474" lon="5.260081046925921"><ele>238.0</ele><time>2026-03-29T12:32:44.999Z</time></trkpt><trkpt lat="50.22229458066163" lon="5.260051351493886"><ele>238.0</ele><time>2026-03-29T12:32:52.999Z</time></trkpt><trkpt lat="50.22224346702939" lon="5.259985757527902"><ele>237.71428571428572</ele><time>2026-03-29T12:32:57.999Z</time></trkpt><trkpt lat="50.22217140793401" lon="5.259946495672985"><ele>237.42857142857144</ele><time>2026-03-29T12:33:03.999Z</time></trkpt><trkpt lat="50.22211821863851" lon="5.259883114751177"><ele>237.14285714285714</ele><time>2026-03-29T12:33:09.999Z</time></trkpt><trkpt lat="50.22207352635065" lon="5.259808838554493"><ele>236.85714285714286</ele><time>2026-03-29T12:33:16.999Z</time></trkpt><trkpt lat="50.22203640941934" lon="5.25972005021249"><ele>236.57142857142858</ele><time>2026-03-29T12:33:24.999Z</time></trkpt><trkpt lat="50.221971995920676" lon="5.259681180945884"><ele>236.28571428571428</ele><time>2026-03-29T12:33:29.999Z</time></trkpt><trkpt lat="50.221916333203545" lon="5.259626823526974"><ele>236.0</ele><time>2026-03-29T12:33:34.999Z</time></trkpt><trkpt lat="50.2218432574299" lon="5.259573543309134"><ele>236.0</ele><time>2026-03-29T12:33:39.999Z</time></trkpt><trkpt lat="50.22176795108621" lon="5.259559909509567"><ele>236.0</ele><time>2026-03-29T12:33:46.999Z</time></trkpt><trkpt lat="50.22169254066204" lon="5.259567397891252"><ele>236.0</ele><time>2026-03-29T12:33:51.999Z</time></trkpt><trkpt lat="50.22162879838017" lon="5.259567480654883"><ele>236.0</ele><time>2026-03-29T12:33:56.999Z</time></trkpt><trkpt lat="50.221553566606445" lon="5.259573707632368"><ele>236.0</ele><time>2026-03-29T12:34:02.999Z</time></trkpt><trkpt lat="50.22148029276306" lon="5.259565276752568"><ele>236.0</ele><time>2026-03-29T12:34:09Z</time></trkpt><trkpt lat="50.22140477667369" lon="5.25956643229552"><ele>236.0</ele><time>2026-03-29T12:34:16Z</time></trkpt><trkpt lat="50.221337574256694" lon="5.259570659930758"><ele>235.57142857142856</ele><time>2026-03-29T12:34:22Z</time></trkpt><trkpt lat="50.22128785783539" lon="5.259634340174678"><ele>235.14285714285717</ele><time>2026-03-29T12:34:29Z</time></trkpt><trkpt lat="50.22122433885251" lon="5.259665682816553"><ele>234.71428571428572</ele><time>2026-03-29T12:34:35Z</time></trkpt><trkpt lat="50.221159857323464" lon="5.259680610530952"><ele>234.28571428571428</ele><time>2026-03-29T12:34:41Z</time></trkpt><trkpt lat="50.221081484730895" lon="5.259713517975745"><ele>233.85714285714283</ele><time>2026-03-29T12:34:48Z</time></trkpt><trkpt lat="50.2210094164951" lon="5.259750989779936"><ele>233.42857142857144</ele><time>2026-03-29T12:34:53Z</time></trkpt><trkpt lat="50.2209425676848" lon="5.259796816354709"><ele>233.0</ele><time>2026-03-29T12:34:59Z</time></trkpt><trkpt lat="50.220880455806956" lon="5.259814056468532"><ele>233.0</ele><time>2026-03-29T12:35:04Z</time></trkpt><trkpt lat="50.220810129430475" lon="5.259802393874205"><ele>233.0</ele><time>2026-03-29T12:35:10Z</time></trkpt><trkpt lat="50.220742071183494" lon="5.259845598699816"><ele>233.0</ele><time>2026-03-29T12:35:16Z</time></trkpt><trkpt lat="50.22067401142905" lon="5.259817251164628"><ele>233.0</ele><time>2026-03-29T12:35:22Z</time></trkpt><trkpt lat="50.22060930700551" lon="5.259811665244595"><ele>233.0</ele><time>2026-03-29T12:35:28Z</time></trkpt><trkpt lat="50.22053691756466" lon="5.25980311548173"><ele>233.0</ele><time>2026-03-29T12:35:34Z</time></trkpt><trkpt lat="50.220469637114675" lon="5.259803856897559"><ele>233.0</ele><time>2026-03-29T12:35:40Z</time></trkpt><trkpt lat="50.22039984327486" lon="5.259792158195329"><ele>232.71428571428572</ele><time>2026-03-29T12:35:45.999Z</time></trkpt><trkpt lat="50.22033955260082" lon="5.259750447234629"><ele>232.42857142857142</ele><time>2026-03-29T12:35:51Z</time></trkpt><trkpt lat="50.22028338664646" lon="5.259699078440035"><ele>232.14285714285714</ele><time>2026-03-29T12:35:56Z</time></trkpt><trkpt lat="50.22022930509554" lon="5.259640836801413"><ele>231.85714285714286</ele><time>2026-03-29T12:36:02Z</time></trkpt><trkpt lat="50.220177173434" lon="5.259577788658131"><ele>231.57142857142856</ele><time>2026-03-29T12:36:08Z</time></trkpt><trkpt lat="50.22013718707124" lon="5.259501579771134"><ele>231.28571428571428</ele><time>2026-03-29T12:36:13Z</time></trkpt><trkpt lat="50.22007042094616" lon="5.259467581183197"><ele>231.0</ele><time>2026-03-29T12:36:19Z</time></trkpt><trkpt lat="50.22002686576938" lon="5.259373963721885"><ele>231.0</ele><time>2026-03-29T12:36:25Z</time></trkpt><trkpt lat="50.21996479709618" lon="5.25932138141548"><ele>231.0</ele><time>2026-03-29T12:36:31Z</time></trkpt><trkpt lat="50.21990500650767" lon="5.259286501647482"><ele>231.0</ele><time>2026-03-29T12:36:39Z</time></trkpt><trkpt lat="50.21984008821518" lon="5.259290557243056"><ele>231.0</ele><time>2026-03-29T12:36:46Z</time></trkpt><trkpt lat="50.219766154895325" lon="5.259311309113713"><ele>231.0</ele><time>2026-03-29T12:36:53Z</time></trkpt><trkpt lat="50.21969740261518" lon="5.259278478024733"><ele>231.0</ele><time>2026-03-29T12:36:59Z</time></trkpt><trkpt lat="50.21962667352098" lon="5.259255379954175"><ele>231.0</ele><time>2026-03-29T12:37:04Z</time></trkpt><trkpt lat="50.21956315592473" lon="5.259234076710055"><ele>229.85714285714286</ele><time>2026-03-29T12:37:10Z</time></trkpt><trkpt lat="50.21950334651752" lon="5.259202370333428"><ele>228.71428571428572</ele><time>2026-03-29T12:37:15Z</time></trkpt><trkpt lat="50.21943716848289" lon="5.259176648581251"><ele>227.57142857142856</ele><time>2026-03-29T12:37:21Z</time></trkpt><trkpt lat="50.21935946372047" lon="5.259146984230362"><ele>226.42857142857144</ele><time>2026-03-29T12:37:28Z</time></trkpt><trkpt lat="50.21928412791349" lon="5.259145429653444"><ele>225.28571428571428</ele><time>2026-03-29T12:37:33Z</time></trkpt><trkpt lat="50.21921344151126" lon="5.259112197062958"><ele>224.14285714285714</ele><time>2026-03-29T12:37:39Z</time></trkpt><trkpt lat="50.219156219381205" lon="5.259067301528422"><ele>223.0</ele><time>2026-03-29T12:37:53Z</time></trkpt><trkpt lat="50.219086576159" lon="5.259091622719458"><ele>223.0</ele><time>2026-03-29T12:39:26Z</time></trkpt><trkpt lat="50.21902096199535" lon="5.259067268818849"><ele>223.0</ele><time>2026-03-29T12:39:34Z</time></trkpt><trkpt lat="50.21895466964294" lon="5.259049623640691"><ele>223.0</ele><time>2026-03-29T12:39:40Z</time></trkpt><trkpt lat="50.218888541906466" lon="5.259024012312136"><ele>223.0</ele><time>2026-03-29T12:39:46Z</time></trkpt><trkpt lat="50.21881979246042" lon="5.258986319751514"><ele>223.0</ele><time>2026-03-29T12:39:52Z</time></trkpt><trkpt lat="50.218751700952964" lon="5.258971997027217"><ele>223.0</ele><time>2026-03-29T12:39:57Z</time></trkpt><trkpt lat="50.21868217450604" lon="5.258939243085454"><ele>223.0</ele><time>2026-03-29T12:40:03Z</time></trkpt><trkpt lat="50.21862153675475" lon="5.258907960642566"><ele>222.85714285714286</ele><time>2026-03-29T12:40:08Z</time></trkpt><trkpt lat="50.21855014716121" lon="5.258875375568632"><ele>222.71428571428572</ele><time>2026-03-29T12:40:14Z</time></trkpt><trkpt lat="50.218484031595096" lon="5.258859803179363"><ele>222.57142857142856</ele><time>2026-03-29T12:40:20Z</time></trkpt><trkpt lat="50.2184236225977" lon="5.25881365057053"><ele>222.42857142857144</ele><time>2026-03-29T12:40:26Z</time></trkpt><trkpt lat="50.21836427235715" lon="5.258771033747998"><ele>222.2857142857143</ele><time>2026-03-29T12:40:32Z</time></trkpt><trkpt lat="50.21829774298784" lon="5.258734898411793"><ele>222.14285714285714</ele><time>2026-03-29T12:40:38Z</time></trkpt><trkpt lat="50.2182376535587" lon="5.258694818957166"><ele>222.0</ele><time>2026-03-29T12:40:44Z</time></trkpt><trkpt lat="50.21816853091023" lon="5.258692565406035"><ele>221.28571428571428</ele><time>2026-03-29T12:40:50Z</time></trkpt><trkpt lat="50.21810130336857" lon="5.258644558320198"><ele>220.57142857142858</ele><time>2026-03-29T12:40:59Z</time></trkpt><trkpt lat="50.21804049117716" lon="5.258600903861037"><ele>219.85714285714286</ele><time>2026-03-29T12:41:05Z</time></trkpt><trkpt lat="50.2179767014786" lon="5.258563057807971"><ele>219.14285714285714</ele><time>2026-03-29T12:41:11Z</time></trkpt><trkpt lat="50.21791094614587" lon="5.258540093971335"><ele>218.42857142857144</ele><time>2026-03-29T12:41:17Z</time></trkpt><trkpt lat="50.21784668193717" lon="5.25851908932861"><ele>217.71428571428572</ele><time>2026-03-29T12:41:25Z</time></trkpt><trkpt lat="50.21778658251805" lon="5.258485223796939"><ele>217.0</ele><time>2026-03-29T12:41:29Z</time></trkpt><trkpt lat="50.21771779431925" lon="5.258456557887914"><ele>217.0</ele><time>2026-03-29T12:41:34Z</time></trkpt><trkpt lat="50.2176504548474" lon="5.258423622598084"><ele>217.0</ele><time>2026-03-29T12:41:40Z</time></trkpt><trkpt lat="50.217581456485185" lon="5.258399023966874"><ele>217.0</ele><time>2026-03-29T12:41:46Z</time></trkpt><trkpt lat="50.21751150269853" lon="5.258371567211328"><ele>217.0</ele><time>2026-03-29T12:41:52Z</time></trkpt><trkpt lat="50.21744480767147" lon="5.258340108790394"><ele>217.0</ele><time>2026-03-29T12:41:58Z</time></trkpt><trkpt lat="50.21738034488976" lon="5.2582970543738226"><ele>217.0</ele><time>2026-03-29T12:42:04Z</time></trkpt><trkpt lat="50.21731988641852" lon="5.258251392915662"><ele>217.0</ele><time>2026-03-29T12:42:10Z</time></trkpt><trkpt lat="50.21725924888975" lon="5.25822289218265"><ele>217.14285714285714</ele><time>2026-03-29T12:42:16Z</time></trkpt><trkpt lat="50.21719328395432" lon="5.258179334365544"><ele>217.28571428571428</ele><time>2026-03-29T12:42:25Z</time></trkpt><trkpt lat="50.21712385881088" lon="5.258145608381814"><ele>217.42857142857144</ele><time>2026-03-29T12:42:31Z</time></trkpt><trkpt lat="50.21704701160646" lon="5.258129609296733"><ele>217.57142857142856</ele><time>2026-03-29T12:42:38Z</time></trkpt><trkpt lat="50.21698858464106" lon="5.258092295599392"><ele>217.71428571428572</ele><time>2026-03-29T12:42:43Z</time></trkpt><trkpt lat="50.21692364327168" lon="5.258078196527285"><ele>217.85714285714286</ele><time>2026-03-29T12:42:48Z</time></trkpt><trkpt lat="50.21686017691677" lon="5.258037936647417"><ele>218.0</ele><time>2026-03-29T12:42:56Z</time></trkpt><trkpt lat="50.21680065690846" lon="5.257982538509178"><ele>218.0</ele><time>2026-03-29T12:43:03Z</time></trkpt><trkpt lat="50.21674035557911" lon="5.257948539339958"><ele>218.0</ele><time>2026-03-29T12:43:10Z</time></trkpt><trkpt lat="50.21667627731273" lon="5.257925993722209"><ele>218.0</ele><time>2026-03-29T12:43:15Z</time></trkpt><trkpt lat="50.21661598991464" lon="5.257891906594318"><ele>218.0</ele><time>2026-03-29T12:43:23Z</time></trkpt><trkpt lat="50.21655260862652" lon="5.257861749925692"><ele>218.0</ele><time>2026-03-29T12:43:29Z</time></trkpt><trkpt lat="50.21649088374799" lon="5.257836165576864"><ele>218.0</ele><time>2026-03-29T12:43:35Z</time></trkpt><trkpt lat="50.216432593318" lon="5.25779411232687"><ele>218.0</ele><time>2026-03-29T12:43:41Z</time></trkpt><trkpt lat="50.216370079251156" lon="5.257755962698308"><ele>217.42857142857144</ele><time>2026-03-29T12:43:47Z</time></trkpt><trkpt lat="50.21630211341087" lon="5.25771978244669"><ele>216.85714285714286</ele><time>2026-03-29T12:43:55Z</time></trkpt><trkpt lat="50.21622836408084" lon="5.2576887957854375"><ele>216.28571428571428</ele><time>2026-03-29T12:44:03Z</time></trkpt><trkpt lat="50.21616195987371" lon="5.257648142880569"><ele>215.71428571428572</ele><time>2026-03-29T12:44:10Z</time></trkpt><trkpt lat="50.216083227963885" lon="5.257609266724717"><ele>215.14285714285714</ele><time>2026-03-29T12:44:25Z</time></trkpt><trkpt lat="50.21602374091503" lon="5.257569183093948"><ele>214.57142857142858</ele><time>2026-03-29T12:44:33Z</time></trkpt><trkpt lat="50.21595273415903" lon="5.257531675951454"><ele>214.0</ele><time>2026-03-29T12:44:40Z</time></trkpt><trkpt lat="50.21588524135298" lon="5.25748807071951"><ele>214.00000000000003</ele><time>2026-03-29T12:44:48Z</time></trkpt><trkpt lat="50.21581163831159" lon="5.2574665848910325"><ele>214.0</ele><time>2026-03-29T12:44:55Z</time></trkpt><trkpt lat="50.21574459693289" lon="5.257422370008134"><ele>214.0</ele><time>2026-03-29T12:45:02Z</time></trkpt><trkpt lat="50.21568218902515" lon="5.257403110781598"><ele>214.0</ele><time>2026-03-29T12:45:11Z</time></trkpt><trkpt lat="50.215598482477844" lon="5.25737555981263"><ele>214.0</ele><time>2026-03-29T12:45:24Z</time></trkpt><trkpt lat="50.21553537937047" lon="5.257371788599127"><ele>214.00000000000003</ele><time>2026-03-29T12:45:35Z</time></trkpt><trkpt lat="50.215477979141056" lon="5.257328695445238"><ele>214.0</ele><time>2026-03-29T12:45:42Z</time></trkpt><trkpt lat="50.21541299644975" lon="5.257280495433514"><ele>214.14285714285717</ele><time>2026-03-29T12:45:50Z</time></trkpt><trkpt lat="50.21535367440257" lon="5.2572375066808545"><ele>214.28571428571428</ele><time>2026-03-29T12:45:59Z</time></trkpt><trkpt lat="50.21526345821622" lon="5.257204298883384"><ele>214.42857142857144</ele><time>2026-03-29T12:46:24Z</time></trkpt><trkpt lat="50.21520891373596" lon="5.257135305959847"><ele>214.57142857142858</ele><time>2026-03-29T12:46:33Z</time></trkpt><trkpt lat="50.21516061519838" lon="5.2570699870589825"><ele>214.71428571428572</ele><time>2026-03-29T12:46:39Z</time></trkpt><trkpt lat="50.21509117176759" lon="5.257059762544285"><ele>214.85714285714286</ele><time>2026-03-29T12:46:45Z</time></trkpt><trkpt lat="50.21501676907669" lon="5.257051496366625"><ele>215.0</ele><time>2026-03-29T12:46:52Z</time></trkpt><trkpt lat="50.2149407404039" lon="5.257049402122224"><ele>215.0</ele><time>2026-03-29T12:46:59Z</time></trkpt><trkpt lat="50.214872886500494" lon="5.257061294914179"><ele>215.0</ele><time>2026-03-29T12:47:06Z</time></trkpt><trkpt lat="50.214795672647064" lon="5.25706210348361"><ele>215.0</ele><time>2026-03-29T12:47:13Z</time></trkpt><trkpt lat="50.214726391818765" lon="5.257098117681368"><ele>215.0</ele><time>2026-03-29T12:47:22Z</time></trkpt><trkpt lat="50.21466068773669" lon="5.2570657899844155"><ele>215.0</ele><time>2026-03-29T12:47:29Z</time></trkpt><trkpt lat="50.21460215986049" lon="5.257023111008876"><ele>215.0</ele><time>2026-03-29T12:47:36Z</time></trkpt><trkpt lat="50.214530190396175" lon="5.257026773807562"><ele>215.0</ele><time>2026-03-29T12:47:42Z</time></trkpt><trkpt lat="50.21446829081727" lon="5.2570481387087895"><ele>214.85714285714286</ele><time>2026-03-29T12:47:47Z</time></trkpt><trkpt lat="50.21439900669596" lon="5.257088550449313"><ele>214.71428571428572</ele><time>2026-03-29T12:47:53Z</time></trkpt><trkpt lat="50.214333980066485" lon="5.257089200179065"><ele>214.57142857142858</ele><time>2026-03-29T12:48:00Z</time></trkpt><trkpt lat="50.21427231409872" lon="5.2571278621524025"><ele>214.42857142857144</ele><time>2026-03-29T12:48:06.999Z</time></trkpt><trkpt lat="50.214208800737914" lon="5.257129682685932"><ele>214.28571428571428</ele><time>2026-03-29T12:48:11.999Z</time></trkpt><trkpt lat="50.214142795335235" lon="5.257117084969721"><ele>214.14285714285717</ele><time>2026-03-29T12:48:19.999Z</time></trkpt><trkpt lat="50.21407150730623" lon="5.257117791290269"><ele>214.0</ele><time>2026-03-29T12:48:28Z</time></trkpt><trkpt lat="50.214003244024134" lon="5.257150536359988"><ele>214.00000000000003</ele><time>2026-03-29T12:48:34Z</time></trkpt><trkpt lat="50.21393163233825" lon="5.257153388918273"><ele>214.0</ele><time>2026-03-29T12:48:41Z</time></trkpt><trkpt lat="50.213861394545084" lon="5.25717353009996"><ele>214.0</ele><time>2026-03-29T12:48:48Z</time></trkpt><trkpt lat="50.21379917098903" lon="5.25719354799321"><ele>214.0</ele><time>2026-03-29T12:48:54Z</time></trkpt><trkpt lat="50.21373936456879" lon="5.257228875819204"><ele>214.0</ele><time>2026-03-29T12:49:00Z</time></trkpt><trkpt lat="50.21367126016823" lon="5.257246979775803"><ele>214.00000000000003</ele><time>2026-03-29T12:49:06Z</time></trkpt><trkpt lat="50.21360432584042" lon="5.2572936643045"><ele>214.0</ele><time>2026-03-29T12:49:13Z</time></trkpt><trkpt lat="50.21354179236032" lon="5.257344384866338"><ele>213.2857142857143</ele><time>2026-03-29T12:49:20Z</time></trkpt><trkpt lat="50.213479206743564" lon="5.25738414867596"><ele>212.57142857142858</ele><time>2026-03-29T12:49:26Z</time></trkpt><trkpt lat="50.21341144427565" lon="5.257415237609026"><ele>211.85714285714286</ele><time>2026-03-29T12:49:33Z</time></trkpt><trkpt lat="50.2133514049556" lon="5.257463701519421"><ele>211.14285714285717</ele><time>2026-03-29T12:49:46Z</time></trkpt><trkpt lat="50.213293223413665" lon="5.257511211828812"><ele>210.42857142857142</ele><time>2026-03-29T12:49:53Z</time></trkpt><trkpt lat="50.21323125149252" lon="5.2575462058414715"><ele>209.71428571428572</ele><time>2026-03-29T12:49:59.999Z</time></trkpt><trkpt lat="50.21316700597227" lon="5.257591045806399"><ele>209.0</ele><time>2026-03-29T12:50:06.999Z</time></trkpt><trkpt lat="50.213102609343174" lon="5.257629489679318"><ele>208.85714285714286</ele><time>2026-03-29T12:50:12.999Z</time></trkpt><trkpt lat="50.21304034541805" lon="5.257644829687882"><ele>208.71428571428572</ele><time>2026-03-29T12:50:19.999Z</time></trkpt><trkpt lat="50.2129748715038" lon="5.257671058863228"><ele>208.57142857142856</ele><time>2026-03-29T12:50:29.999Z</time></trkpt><trkpt lat="50.21290605184736" lon="5.257715785235035"><ele>208.42857142857144</ele><time>2026-03-29T12:50:58Z</time></trkpt><trkpt lat="50.21283974754524" lon="5.2577312787538935"><ele>208.2857142857143</ele><time>2026-03-29T12:51:07Z</time></trkpt><trkpt lat="50.21277714512572" lon="5.257774194515257"><ele>208.14285714285714</ele><time>2026-03-29T12:51:16Z</time></trkpt><trkpt lat="50.21271403625149" lon="5.25781005151871"><ele>208.0</ele><time>2026-03-29T12:51:23Z</time></trkpt><trkpt lat="50.21267470338154" lon="5.257893147090749"><ele>208.0</ele><time>2026-03-29T12:51:31.999Z</time></trkpt><trkpt lat="50.212604994196084" lon="5.2579217056263445"><ele>208.0</ele><time>2026-03-29T12:51:38.999Z</time></trkpt><trkpt lat="50.212543070132384" lon="5.257951646074282"><ele>208.0</ele><time>2026-03-29T12:51:45.999Z</time></trkpt><trkpt lat="50.21248290241301" lon="5.2580004379826875"><ele>208.0</ele><time>2026-03-29T12:51:51.999Z</time></trkpt><trkpt lat="50.21241378134003" lon="5.257994619353156"><ele>208.0</ele><time>2026-03-29T12:52:11Z</time></trkpt><trkpt lat="50.2123482568644" lon="5.258019424878327"><ele>208.0</ele><time>2026-03-29T12:52:20Z</time></trkpt><trkpt lat="50.21228354470632" lon="5.258044470009831"><ele>208.0</ele><time>2026-03-29T12:52:26Z</time></trkpt><trkpt lat="50.212220096288995" lon="5.258081087437231"><ele>207.57142857142856</ele><time>2026-03-29T12:52:32Z</time></trkpt><trkpt lat="50.2121530888466" lon="5.258099732614755"><ele>207.14285714285717</ele><time>2026-03-29T12:52:39.001Z</time></trkpt><trkpt lat="50.21208620639329" lon="5.258097204679371"><ele>206.71428571428572</ele><time>2026-03-29T12:52:46.001Z</time></trkpt><trkpt lat="50.21202073252847" lon="5.258110991785271"><ele>206.28571428571428</ele><time>2026-03-29T12:52:51.001Z</time></trkpt><trkpt lat="50.21195406747734" lon="5.258103451024699"><ele>205.85714285714283</ele><time>2026-03-29T12:52:57.001Z</time></trkpt><trkpt lat="50.21188604965631" lon="5.258053729006749"><ele>205.42857142857144</ele><time>2026-03-29T12:53:05.001Z</time></trkpt><trkpt lat="50.21183369561342" lon="5.25797672741664"><ele>205.0</ele><time>2026-03-29T12:53:12.001Z</time></trkpt><trkpt lat="50.21177052730356" lon="5.257934556488277"><ele>205.0</ele><time>2026-03-29T12:53:19Z</time></trkpt><trkpt lat="50.21170689193142" lon="5.25795303276345"><ele>205.0</ele><time>2026-03-29T12:53:32Z</time></trkpt><trkpt lat="50.21166964785424" lon="5.258040190587478"><ele>205.0</ele><time>2026-03-29T12:53:39Z</time></trkpt><trkpt lat="50.211620942701465" lon="5.258114649339153"><ele>205.0</ele><time>2026-03-29T12:53:46Z</time></trkpt><trkpt lat="50.21155896838501" lon="5.258172345832532"><ele>205.0</ele><time>2026-03-29T12:53:55Z</time></trkpt><trkpt lat="50.211512808156854" lon="5.258240576437342"><ele>205.0</ele><time>2026-03-29T12:54:02Z</time></trkpt><trkpt lat="50.211462593041794" lon="5.258315328660155"><ele>205.0</ele><time>2026-03-29T12:54:09Z</time></trkpt><trkpt lat="50.2114095801936" lon="5.258384550946612"><ele>204.57142857142858</ele><time>2026-03-29T12:54:16Z</time></trkpt><trkpt lat="50.21134935461878" lon="5.258436411921735"><ele>204.14285714285714</ele><time>2026-03-29T12:54:22Z</time></trkpt><trkpt lat="50.211287884204786" lon="5.258486749084386"><ele>203.71428571428572</ele><time>2026-03-29T12:54:28Z</time></trkpt><trkpt lat="50.21122931343325" lon="5.258530720150587"><ele>203.28571428571428</ele><time>2026-03-29T12:54:34Z</time></trkpt><trkpt lat="50.21118603205118" lon="5.258606320110033"><ele>202.85714285714283</ele><time>2026-03-29T12:54:40Z</time></trkpt><trkpt lat="50.211146795826764" lon="5.258683250416068"><ele>202.42857142857142</ele><time>2026-03-29T12:54:46.001Z</time></trkpt><trkpt lat="50.21109968443505" lon="5.2587704229937655"><ele>202.0</ele><time>2026-03-29T12:54:53.001Z</time></trkpt><trkpt lat="50.21106046364253" lon="5.258873977997724"><ele>202.0</ele><time>2026-03-29T12:55:00.001Z</time></trkpt><trkpt lat="50.21100769443353" lon="5.258945438393178"><ele>202.0</ele><time>2026-03-29T12:55:06.001Z</time></trkpt><trkpt lat="50.21095261840276" lon="5.259020279611638"><ele>202.0</ele><time>2026-03-29T12:55:14Z</time></trkpt><trkpt lat="50.21088903601088" lon="5.259069741299436"><ele>202.0</ele><time>2026-03-29T12:55:21Z</time></trkpt><trkpt lat="50.21082957364579" lon="5.25912833243481"><ele>202.0</ele><time>2026-03-29T12:55:27Z</time></trkpt><trkpt lat="50.210770693012975" lon="5.259178797797689"><ele>202.0</ele><time>2026-03-29T12:55:33Z</time></trkpt><trkpt lat="50.210706823938914" lon="5.259243638476059"><ele>202.0</ele><time>2026-03-29T12:55:40Z</time></trkpt><trkpt lat="50.21065923312926" lon="5.2593142719179395"><ele>202.42857142857142</ele><time>2026-03-29T12:55:47Z</time></trkpt><trkpt lat="50.21060322829058" lon="5.259375697280346"><ele>202.85714285714283</ele><time>2026-03-29T12:55:53Z</time></trkpt><trkpt lat="50.210543404187256" lon="5.259442567337541"><ele>203.28571428571428</ele><time>2026-03-29T12:56:01Z</time></trkpt><trkpt lat="50.21048956803266" lon="5.25950573875808"><ele>203.71428571428572</ele><time>2026-03-29T12:56:07Z</time></trkpt><trkpt lat="50.21043037049138" lon="5.259574020523091"><ele>204.14285714285714</ele><time>2026-03-29T12:56:14Z</time></trkpt><trkpt lat="50.21037337505691" lon="5.25962069856427"><ele>204.57142857142858</ele><time>2026-03-29T12:56:20Z</time></trkpt><trkpt lat="50.21032203557601" lon="5.259697039550598"><ele>205.0</ele><time>2026-03-29T12:56:27Z</time></trkpt><trkpt lat="50.21025715562228" lon="5.259739519864431"><ele>205.0</ele><time>2026-03-29T12:56:34Z</time></trkpt><trkpt lat="50.21019657135459" lon="5.25977742127641"><ele>205.0</ele><time>2026-03-29T12:56:40Z</time></trkpt><trkpt lat="50.21013321298286" lon="5.259823327498751"><ele>205.0</ele><time>2026-03-29T12:56:46Z</time></trkpt><trkpt lat="50.2100658390469" lon="5.259862634700519"><ele>205.0</ele><time>2026-03-29T12:56:53.001Z</time></trkpt><trkpt lat="50.210004726154956" lon="5.259910626233557"><ele>205.0</ele><time>2026-03-29T12:56:59.001Z</time></trkpt><trkpt lat="50.20994121596517" lon="5.2599614258167176"><ele>205.0</ele><time>2026-03-29T12:57:05Z</time></trkpt><trkpt lat="50.209872059764365" lon="5.259985048722887"><ele>205.0</ele><time>2026-03-29T12:57:14Z</time></trkpt><trkpt lat="50.20981522727146" lon="5.260031465178457"><ele>206.2857142857143</ele><time>2026-03-29T12:57:21Z</time></trkpt><trkpt lat="50.209745529859276" lon="5.260046196194945"><ele>207.57142857142856</ele><time>2026-03-29T12:57:28Z</time></trkpt><trkpt lat="50.209689420463626" lon="5.260093612937426"><ele>208.85714285714286</ele><time>2026-03-29T12:57:34Z</time></trkpt><trkpt lat="50.209622924655406" lon="5.260124356471814"><ele>210.14285714285717</ele><time>2026-03-29T12:57:41Z</time></trkpt><trkpt lat="50.20955846085935" lon="5.260155804520675"><ele>211.42857142857144</ele><time>2026-03-29T12:57:47Z</time></trkpt><trkpt lat="50.20949855984566" lon="5.260199683248074"><ele>212.71428571428572</ele><time>2026-03-29T12:57:53Z</time></trkpt><trkpt lat="50.20943583733923" lon="5.260220694562674"><ele>214.0</ele><time>2026-03-29T12:58:00Z</time></trkpt><trkpt lat="50.209374739736795" lon="5.260263949148872"><ele>214.00000000000003</ele><time>2026-03-29T12:58:07Z</time></trkpt><trkpt lat="50.2093072730703" lon="5.26029984541314"><ele>214.0</ele><time>2026-03-29T12:58:16Z</time></trkpt><trkpt lat="50.20924969856488" lon="5.26024902993775"><ele>214.0</ele><time>2026-03-29T12:58:26Z</time></trkpt><trkpt lat="50.209197109282144" lon="5.2601728950873685"><ele>214.0</ele><time>2026-03-29T12:58:33Z</time></trkpt><trkpt lat="50.209146432592775" lon="5.26011267967134"><ele>214.0</ele><time>2026-03-29T12:58:37Z</time></trkpt><trkpt lat="50.20910784811012" lon="5.260032739556787"><ele>214.00000000000003</ele><time>2026-03-29T12:58:43Z</time></trkpt><trkpt lat="50.209036000066334" lon="5.259989169101039"><ele>214.0</ele><time>2026-03-29T12:59:31Z</time></trkpt><trkpt lat="50.20901288503089" lon="5.25989600745474"><ele>214.57142857142858</ele><time>2026-03-29T12:59:38Z</time></trkpt><trkpt lat="50.2089628609304" lon="5.259814767428292"><ele>215.14285714285714</ele><time>2026-03-29T12:59:44Z</time></trkpt><trkpt lat="50.20891570965309" lon="5.259729891450711"><ele>215.71428571428572</ele><time>2026-03-29T12:59:50Z</time></trkpt><trkpt lat="50.20886433924294" lon="5.259653367527142"><ele>216.28571428571428</ele><time>2026-03-29T12:59:55Z</time></trkpt><trkpt lat="50.20883118903138" lon="5.259565138654326"><ele>216.85714285714286</ele><time>2026-03-29T13:00:00Z</time></trkpt><trkpt lat="50.208807011297" lon="5.259474174965603"><ele>217.42857142857144</ele><time>2026-03-29T13:00:05Z</time></trkpt><trkpt lat="50.20877574278096" lon="5.2593849400240975"><ele>218.0</ele><time>2026-03-29T13:00:11Z</time></trkpt><trkpt lat="50.20874230107143" lon="5.259288986753226"><ele>218.0</ele><time>2026-03-29T13:00:17Z</time></trkpt><trkpt lat="50.208701347406404" lon="5.259195413684824"><ele>218.0</ele><time>2026-03-29T13:00:23Z</time></trkpt><trkpt lat="50.20866760630627" lon="5.259099444705759"><ele>218.0</ele><time>2026-03-29T13:00:29Z</time></trkpt><trkpt lat="50.2086290316557" lon="5.259012448859788"><ele>218.0</ele><time>2026-03-29T13:00:35Z</time></trkpt><trkpt lat="50.208615067309196" lon="5.2588971831231985"><ele>218.0</ele><time>2026-03-29T13:00:42Z</time></trkpt><trkpt lat="50.20856954887854" lon="5.258815522915538"><ele>218.0</ele><time>2026-03-29T13:00:48Z</time></trkpt><trkpt lat="50.208563366295" lon="5.258716337241327"><ele>218.0</ele><time>2026-03-29T13:00:54Z</time></trkpt><trkpt lat="50.20853895262321" lon="5.2586125263967975"><ele>217.42857142857144</ele><time>2026-03-29T13:01:00Z</time></trkpt><trkpt lat="50.208492344887794" lon="5.258540656819127"><ele>216.85714285714286</ele><time>2026-03-29T13:01:05Z</time></trkpt><trkpt lat="50.208466311804955" lon="5.258439862943075"><ele>216.28571428571428</ele><time>2026-03-29T13:01:11Z</time></trkpt><trkpt lat="50.20844573887011" lon="5.258334156247516"><ele>215.71428571428572</ele><time>2026-03-29T13:01:17Z</time></trkpt><trkpt lat="50.20839625551289" lon="5.2582484257221145"><ele>215.14285714285714</ele><time>2026-03-29T13:01:23Z</time></trkpt><trkpt lat="50.20835148052305" lon="5.258168935323537"><ele>214.57142857142858</ele><time>2026-03-29T13:01:28Z</time></trkpt><trkpt lat="50.20832525812416" lon="5.258060143916881"><ele>214.0</ele><time>2026-03-29T13:01:34Z</time></trkpt><trkpt lat="50.208286445270545" lon="5.257972204544049"><ele>214.42857142857144</ele><time>2026-03-29T13:01:40Z</time></trkpt><trkpt lat="50.20823780156649" lon="5.257897244083925"><ele>214.85714285714286</ele><time>2026-03-29T13:01:46Z</time></trkpt><trkpt lat="50.208185137919465" lon="5.257825079256103"><ele>215.28571428571428</ele><time>2026-03-29T13:01:52Z</time></trkpt><trkpt lat="50.20812134066072" lon="5.257809099181238"><ele>215.71428571428572</ele><time>2026-03-29T13:01:57Z</time></trkpt><trkpt lat="50.2080534283148" lon="5.257764097099163"><ele>216.14285714285714</ele><time>2026-03-29T13:02:03Z</time></trkpt><trkpt lat="50.2080010777296" lon="5.257691699101821"><ele>216.57142857142858</ele><time>2026-03-29T13:02:09Z</time></trkpt><trkpt lat="50.20794098289783" lon="5.2576608716482145"><ele>217.0</ele><time>2026-03-29T13:02:17Z</time></trkpt><trkpt lat="50.20788542583594" lon="5.257605366677324"><ele>217.0</ele><time>2026-03-29T13:02:24Z</time></trkpt><trkpt lat="50.20782580967971" lon="5.257546198417881"><ele>217.0</ele><time>2026-03-29T13:02:30Z</time></trkpt><trkpt lat="50.207768012003704" lon="5.257484605134353"><ele>217.0</ele><time>2026-03-29T13:02:37Z</time></trkpt><trkpt lat="50.2077068133474" lon="5.257446242317769"><ele>217.0</ele><time>2026-03-29T13:02:43Z</time></trkpt><trkpt lat="50.20764532015997" lon="5.257411367562459"><ele>217.0</ele><time>2026-03-29T13:02:49Z</time></trkpt><trkpt lat="50.20758885153625" lon="5.257340675651207"><ele>217.0</ele><time>2026-03-29T13:02:56Z</time></trkpt><trkpt lat="50.207535305988515" lon="5.25728251525874"><ele>217.0</ele><time>2026-03-29T13:03:01Z</time></trkpt><trkpt lat="50.207469447462344" lon="5.257250028287507"><ele>217.57142857142858</ele><time>2026-03-29T13:03:07Z</time></trkpt><trkpt lat="50.2074056373824" lon="5.257215490634352"><ele>218.14285714285714</ele><time>2026-03-29T13:03:13Z</time></trkpt><trkpt lat="50.20734945912278" lon="5.257148880868467"><ele>218.71428571428572</ele><time>2026-03-29T13:03:19Z</time></trkpt><trkpt lat="50.20729582559392" lon="5.257097154985914"><ele>219.28571428571428</ele><time>2026-03-29T13:03:25Z</time></trkpt><trkpt lat="50.20722026489502" lon="5.257066814411135"><ele>219.85714285714286</ele><time>2026-03-29T13:03:32Z</time></trkpt><trkpt lat="50.20715318716833" lon="5.257016731038395"><ele>220.42857142857144</ele><time>2026-03-29T13:03:38Z</time></trkpt><trkpt lat="50.20708083180088" lon="5.256989074330444"><ele>221.0</ele><time>2026-03-29T13:03:46Z</time></trkpt><trkpt lat="50.20701425838182" lon="5.25697076610213"><ele>221.00000000000003</ele><time>2026-03-29T13:03:53Z</time></trkpt><trkpt lat="50.206936863892984" lon="5.256939391912996"><ele>221.0</ele><time>2026-03-29T13:03:58Z</time></trkpt><trkpt lat="50.206871343153736" lon="5.25692288336404"><ele>221.0</ele><time>2026-03-29T13:04:05Z</time></trkpt><trkpt lat="50.20679923325452" lon="5.256907511281266"><ele>221.0</ele><time>2026-03-29T13:04:11Z</time></trkpt><trkpt lat="50.2067412140672" lon="5.256859606404184"><ele>221.0</ele><time>2026-03-29T13:04:18Z</time></trkpt><trkpt lat="50.20667544063879" lon="5.256846015964967"><ele>221.00000000000003</ele><time>2026-03-29T13:04:24Z</time></trkpt><trkpt lat="50.20661417385525" lon="5.256806140863013"><ele>221.0</ele><time>2026-03-29T13:04:31Z</time></trkpt><trkpt lat="50.20656394535549" lon="5.256740628394572"><ele>221.00000000000003</ele><time>2026-03-29T13:04:37Z</time></trkpt><trkpt lat="50.20650602776502" lon="5.25669087579837"><ele>221.0</ele><time>2026-03-29T13:04:42Z</time></trkpt><trkpt lat="50.206453840878495" lon="5.256623835022249"><ele>221.0</ele><time>2026-03-29T13:04:48Z</time></trkpt><trkpt lat="50.20642200188961" lon="5.256519080860414"><ele>221.0</ele><time>2026-03-29T13:04:55Z</time></trkpt><trkpt lat="50.20637547242843" lon="5.256431784969162"><ele>221.0</ele><time>2026-03-29T13:05:00Z</time></trkpt><trkpt lat="50.206333995116516" lon="5.256351283223351"><ele>221.00000000000003</ele><time>2026-03-29T13:05:05Z</time></trkpt><trkpt lat="50.20628807679953" lon="5.256279231982565"><ele>221.0</ele><time>2026-03-29T13:05:10Z</time></trkpt><trkpt lat="50.20625050675546" lon="5.256187868706921"><ele>221.14285714285717</ele><time>2026-03-29T13:05:16Z</time></trkpt><trkpt lat="50.20620948433531" lon="5.256100556495126"><ele>221.28571428571428</ele><time>2026-03-29T13:05:22Z</time></trkpt><trkpt lat="50.20616741483529" lon="5.256026370966044"><ele>221.42857142857144</ele><time>2026-03-29T13:05:27Z</time></trkpt><trkpt lat="50.206122674631715" lon="5.255948664149359"><ele>221.57142857142858</ele><time>2026-03-29T13:05:32Z</time></trkpt><trkpt lat="50.20608851438862" lon="5.255848311021216"><ele>221.71428571428572</ele><time>2026-03-29T13:05:38Z</time></trkpt><trkpt lat="50.20604953003196" lon="5.255753977730432"><ele>221.85714285714286</ele><time>2026-03-29T13:05:44Z</time></trkpt><trkpt lat="50.20601073572951" lon="5.255662465175725"><ele>222.0</ele><time>2026-03-29T13:05:50Z</time></trkpt><trkpt lat="50.205967389403156" lon="5.2555743748813315"><ele>222.0</ele><time>2026-03-29T13:05:56Z</time></trkpt><trkpt lat="50.205944614939604" lon="5.255481883665004"><ele>222.0</ele><time>2026-03-29T13:06:01Z</time></trkpt><trkpt lat="50.205913422477394" lon="5.2553834334600715"><ele>222.0</ele><time>2026-03-29T13:06:07Z</time></trkpt><trkpt lat="50.20586742809849" lon="5.255303857958972"><ele>222.0</ele><time>2026-03-29T13:06:15Z</time></trkpt><trkpt lat="50.205824567987236" lon="5.255229030023479"><ele>222.0</ele><time>2026-03-29T13:06:21Z</time></trkpt><trkpt lat="50.20578553888086" lon="5.255135376421673"><ele>222.0</ele><time>2026-03-29T13:06:27Z</time></trkpt><trkpt lat="50.205742167542994" lon="5.2550531004907235"><ele>222.0</ele><time>2026-03-29T13:06:33Z</time></trkpt><trkpt lat="50.205718977697245" lon="5.254958999210754"><ele>222.0</ele><time>2026-03-29T13:06:39Z</time></trkpt><trkpt lat="50.205672776563624" lon="5.2548818623076"><ele>222.0</ele><time>2026-03-29T13:06:43Z</time></trkpt><trkpt lat="50.20562671738653" lon="5.2548013565093"><ele>222.0</ele><time>2026-03-29T13:06:48Z</time></trkpt><trkpt lat="50.20560117560462" lon="5.254705872656192"><ele>222.0</ele><time>2026-03-29T13:06:53Z</time></trkpt><trkpt lat="50.205576305992544" lon="5.254613351683223"><ele>222.0</ele><time>2026-03-29T13:06:58Z</time></trkpt><trkpt lat="50.20553226734734" lon="5.254535724135102"><ele>222.0</ele><time>2026-03-29T13:07:03Z</time></trkpt><trkpt lat="50.20549430660771" lon="5.254440951379146"><ele>222.0</ele><time>2026-03-29T13:07:09Z</time></trkpt><trkpt lat="50.205456204517134" lon="5.254343272626099"><ele>222.14285714285714</ele><time>2026-03-29T13:07:15Z</time></trkpt><trkpt lat="50.205442334625374" lon="5.254245009957462"><ele>222.2857142857143</ele><time>2026-03-29T13:07:21Z</time></trkpt><trkpt lat="50.205426574531764" lon="5.254146111179703"><ele>222.42857142857144</ele><time>2026-03-29T13:07:27Z</time></trkpt><trkpt lat="50.205385773692335" lon="5.254050021559383"><ele>222.57142857142856</ele><time>2026-03-29T13:07:33Z</time></trkpt><trkpt lat="50.205365380344155" lon="5.253955995662775"><ele>222.71428571428572</ele><time>2026-03-29T13:07:38Z</time></trkpt><trkpt lat="50.20532064503654" lon="5.253885172167247"><ele>222.85714285714286</ele><time>2026-03-29T13:07:50Z</time></trkpt><trkpt lat="50.205374240945545" lon="5.253820842535995"><ele>223.0</ele><time>2026-03-29T13:07:56Z</time></trkpt><trkpt lat="50.2054246529758" lon="5.253759553770105"><ele>222.14285714285714</ele><time>2026-03-29T13:08:01Z</time></trkpt><trkpt lat="50.20547616488054" lon="5.253701019614554"><ele>221.28571428571428</ele><time>2026-03-29T13:08:07Z</time></trkpt><trkpt lat="50.205521114606206" lon="5.253626127866867"><ele>220.42857142857144</ele><time>2026-03-29T13:08:12Z</time></trkpt><trkpt lat="50.20559253425318" lon="5.253596101215901"><ele>219.57142857142856</ele><time>2026-03-29T13:08:19Z</time></trkpt><trkpt lat="50.205657616394454" lon="5.253601523031219"><ele>218.71428571428572</ele><time>2026-03-29T13:08:25Z</time></trkpt><trkpt lat="50.20571900102164" lon="5.253629504132138"><ele>217.85714285714286</ele><time>2026-03-29T13:08:31Z</time></trkpt><trkpt lat="50.20577822166379" lon="5.253685261765468"><ele>217.0</ele><time>2026-03-29T13:08:37Z</time></trkpt><trkpt lat="50.205840043269816" lon="5.253737052815123"><ele>216.85714285714286</ele><time>2026-03-29T13:08:43Z</time></trkpt><trkpt lat="50.20590304920976" lon="5.253762227929063"><ele>216.71428571428572</ele><time>2026-03-29T13:08:48Z</time></trkpt><trkpt lat="50.20596443530303" lon="5.253793730954964"><ele>216.57142857142856</ele><time>2026-03-29T13:08:53Z</time></trkpt><trkpt lat="50.206023198078256" lon="5.253844450459997"><ele>216.42857142857144</ele><time>2026-03-29T13:08:59Z</time></trkpt><trkpt lat="50.20608738135702" lon="5.253885045158787"><ele>216.28571428571428</ele><time>2026-03-29T13:09:06Z</time></trkpt><trkpt lat="50.20614478937312" lon="5.253928597826064"><ele>216.14285714285714</ele><time>2026-03-29T13:09:12Z</time></trkpt><trkpt lat="50.20620289594728" lon="5.2539732869443085"><ele>216.0</ele><time>2026-03-29T13:09:18Z</time></trkpt><trkpt lat="50.20625505408129" lon="5.254040548547297"><ele>216.0</ele><time>2026-03-29T13:09:27Z</time></trkpt><trkpt lat="50.20630345668378" lon="5.254112684597971"><ele>216.0</ele><time>2026-03-29T13:09:34Z</time></trkpt><trkpt lat="50.20637586305073" lon="5.2541530650960535"><ele>216.0</ele><time>2026-03-29T13:09:39Z</time></trkpt><trkpt lat="50.206437287414786" lon="5.254225566028596"><ele>216.0</ele><time>2026-03-29T13:09:44Z</time></trkpt><trkpt lat="50.206490926262894" lon="5.254280405218384"><ele>216.0</ele><time>2026-03-29T13:09:49Z</time></trkpt><trkpt lat="50.206555996910524" lon="5.254290881792969"><ele>216.0</ele><time>2026-03-29T13:09:54Z</time></trkpt><trkpt lat="50.20662147553924" lon="5.254320573377551"><ele>216.0</ele><time>2026-03-29T13:09:59Z</time></trkpt><trkpt lat="50.20668208803447" lon="5.2543698253644635"><ele>214.71428571428572</ele><time>2026-03-29T13:10:05Z</time></trkpt><trkpt lat="50.20675317882891" lon="5.254375121586484"><ele>213.42857142857142</ele><time>2026-03-29T13:10:11Z</time></trkpt><trkpt lat="50.206816332786865" lon="5.254403550798207"><ele>212.14285714285717</ele><time>2026-03-29T13:10:16Z</time></trkpt><trkpt lat="50.20688691448286" lon="5.254419599398242"><ele>210.85714285714286</ele><time>2026-03-29T13:10:22Z</time></trkpt><trkpt lat="50.206942644711305" lon="5.254475950789635"><ele>209.57142857142858</ele><time>2026-03-29T13:10:27Z</time></trkpt><trkpt lat="50.20700924590056" lon="5.254489752119303"><ele>208.2857142857143</ele><time>2026-03-29T13:10:33Z</time></trkpt><trkpt lat="50.20707017937425" lon="5.254542439945655"><ele>207.0</ele><time>2026-03-29T13:10:39Z</time></trkpt><trkpt lat="50.207134980297255" lon="5.254576719867844"><ele>207.00000000000003</ele><time>2026-03-29T13:10:45Z</time></trkpt><trkpt lat="50.20720078048209" lon="5.254615751986282"><ele>207.0</ele><time>2026-03-29T13:10:51Z</time></trkpt><trkpt lat="50.20726731915028" lon="5.254617622133043"><ele>207.0</ele><time>2026-03-29T13:10:57Z</time></trkpt><trkpt lat="50.20733517805373" lon="5.254650474357411"><ele>207.0</ele><time>2026-03-29T13:11:03Z</time></trkpt><trkpt lat="50.20740079755853" lon="5.254656407682804"><ele>207.0</ele><time>2026-03-29T13:11:08Z</time></trkpt><trkpt lat="50.20747214254398" lon="5.254653441590605"><ele>207.00000000000003</ele><time>2026-03-29T13:11:14Z</time></trkpt><trkpt lat="50.2075392040885" lon="5.254624839213534"><ele>207.0</ele><time>2026-03-29T13:11:20Z</time></trkpt><trkpt lat="50.20759883325226" lon="5.254568750982263"><ele>206.2857142857143</ele><time>2026-03-29T13:11:25Z</time></trkpt><trkpt lat="50.20765648080208" lon="5.254503846763971"><ele>205.57142857142858</ele><time>2026-03-29T13:11:31Z</time></trkpt><trkpt lat="50.207717826867174" lon="5.254454475381582"><ele>204.85714285714286</ele><time>2026-03-29T13:11:38Z</time></trkpt><trkpt lat="50.20776231097388" lon="5.2543765972983465"><ele>204.14285714285717</ele><time>2026-03-29T13:11:43Z</time></trkpt><trkpt lat="50.20781232585562" lon="5.254305881169919"><ele>203.42857142857142</ele><time>2026-03-29T13:11:48Z</time></trkpt><trkpt lat="50.20786438151258" lon="5.254230657097122"><ele>202.71428571428572</ele><time>2026-03-29T13:11:54Z</time></trkpt><trkpt lat="50.20791323659054" lon="5.254161499746121"><ele>202.0</ele><time>2026-03-29T13:12:00Z</time></trkpt><trkpt lat="50.20796303603877" lon="5.254087119937226"><ele>202.0</ele><time>2026-03-29T13:12:06Z</time></trkpt><trkpt lat="50.2080113880038" lon="5.2540081967674075"><ele>202.0</ele><time>2026-03-29T13:12:12Z</time></trkpt><trkpt lat="50.20806247435383" lon="5.253935740326346"><ele>202.0</ele><time>2026-03-29T13:12:18Z</time></trkpt><trkpt lat="50.20810503159076" lon="5.253851055762912"><ele>202.0</ele><time>2026-03-29T13:12:24Z</time></trkpt><trkpt lat="50.20815168909295" lon="5.253782781716425"><ele>202.0</ele><time>2026-03-29T13:12:29Z</time></trkpt><trkpt lat="50.208206951370116" lon="5.253718818670969"><ele>202.0</ele><time>2026-03-29T13:12:35Z</time></trkpt><trkpt lat="50.208260378384495" lon="5.253658076437561"><ele>202.0</ele><time>2026-03-29T13:12:41Z</time></trkpt><trkpt lat="50.20831607510141" lon="5.253592861389539"><ele>201.57142857142856</ele><time>2026-03-29T13:12:47Z</time></trkpt><trkpt lat="50.20837203357456" lon="5.2535394760802765"><ele>201.14285714285714</ele><time>2026-03-29T13:12:53Z</time></trkpt><trkpt lat="50.208415455945506" lon="5.253467667728683"><ele>200.71428571428572</ele><time>2026-03-29T13:12:59Z</time></trkpt><trkpt lat="50.208465179675635" lon="5.253388678024992"><ele>200.28571428571428</ele><time>2026-03-29T13:13:05Z</time></trkpt><trkpt lat="50.20849667809735" lon="5.253286972536717"><ele>199.85714285714286</ele><time>2026-03-29T13:13:11Z</time></trkpt><trkpt lat="50.20855411288686" lon="5.2532054015619805"><ele>199.42857142857142</ele><time>2026-03-29T13:13:17Z</time></trkpt><trkpt lat="50.20859105942497" lon="5.253112755591886"><ele>199.0</ele><time>2026-03-29T13:13:23Z</time></trkpt><trkpt lat="50.208609238069215" lon="5.2530182485516415"><ele>198.85714285714283</ele><time>2026-03-29T13:13:29Z</time></trkpt><trkpt lat="50.208637841240645" lon="5.252911563960926"><ele>198.71428571428572</ele><time>2026-03-29T13:13:39Z</time></trkpt><trkpt lat="50.2086723259879" lon="5.252826944102884"><ele>198.57142857142856</ele><time>2026-03-29T13:13:45Z</time></trkpt><trkpt lat="50.20872277496352" lon="5.252730818491334"><ele>198.42857142857142</ele><time>2026-03-29T13:13:53Z</time></trkpt><trkpt lat="50.20875703238754" lon="5.252629147188911"><ele>198.28571428571428</ele><time>2026-03-29T13:13:58Z</time></trkpt><trkpt lat="50.208792948122046" lon="5.252546670949323"><ele>198.14285714285714</ele><time>2026-03-29T13:14:03Z</time></trkpt><trkpt lat="50.20882951557403" lon="5.252455052716426"><ele>198.0</ele><time>2026-03-29T13:14:09Z</time></trkpt><trkpt lat="50.208854917730626" lon="5.252354881234995"><ele>198.0</ele><time>2026-03-29T13:14:16Z</time></trkpt><trkpt lat="50.2088807820493" lon="5.252260784164391"><ele>198.0</ele><time>2026-03-29T13:14:22Z</time></trkpt><trkpt lat="50.2089104045558" lon="5.252171286516026"><ele>198.0</ele><time>2026-03-29T13:14:29Z</time></trkpt><trkpt lat="50.208951646855056" lon="5.252068910383762"><ele>198.0</ele><time>2026-03-29T13:14:36Z</time></trkpt><trkpt lat="50.20898139051807" lon="5.251981626986358"><ele>198.0</ele><time>2026-03-29T13:14:42Z</time></trkpt><trkpt lat="50.20900596684751" lon="5.251882525080557"><ele>198.0</ele><time>2026-03-29T13:14:47Z</time></trkpt><trkpt lat="50.20903645140853" lon="5.251786651941163"><ele>198.0</ele><time>2026-03-29T13:14:54Z</time></trkpt><trkpt lat="50.20906392884043" lon="5.251684225093918"><ele>198.14285714285714</ele><time>2026-03-29T13:15:01Z</time></trkpt><trkpt lat="50.20909861411054" lon="5.251598224793196"><ele>198.28571428571428</ele><time>2026-03-29T13:15:07Z</time></trkpt><trkpt lat="50.20912943998451" lon="5.2515009833570865"><ele>198.42857142857142</ele><time>2026-03-29T13:15:13Z</time></trkpt><trkpt lat="50.209141076728365" lon="5.251396936462898"><ele>198.57142857142856</ele><time>2026-03-29T13:15:18Z</time></trkpt><trkpt lat="50.20910633088579" lon="5.251297104837364"><ele>198.71428571428572</ele><time>2026-03-29T13:15:25Z</time></trkpt><trkpt lat="50.20906386500312" lon="5.251212703173072"><ele>198.85714285714283</ele><time>2026-03-29T13:15:32Z</time></trkpt><trkpt lat="50.20902409945022" lon="5.251123952103712"><ele>199.0</ele><time>2026-03-29T13:15:39Z</time></trkpt><trkpt lat="50.20898124914865" lon="5.2510278252205165"><ele>198.99999999999997</ele><time>2026-03-29T13:15:45Z</time></trkpt><trkpt lat="50.20893895562331" lon="5.250952194126373"><ele>199.0</ele><time>2026-03-29T13:15:52Z</time></trkpt><trkpt lat="50.2088977339907" lon="5.25086833822187"><ele>199.0</ele><time>2026-03-29T13:15:58Z</time></trkpt><trkpt lat="50.20885812307313" lon="5.250779722538622"><ele>199.0</ele><time>2026-03-29T13:16:05Z</time></trkpt><trkpt lat="50.20882069785307" lon="5.250689836446142"><ele>199.0</ele><time>2026-03-29T13:16:17Z</time></trkpt><trkpt lat="50.208805558165906" lon="5.250591998485234"><ele>198.99999999999997</ele><time>2026-03-29T13:16:27Z</time></trkpt><trkpt lat="50.20878768154557" lon="5.250490424745226"><ele>199.0</ele><time>2026-03-29T13:16:36Z</time></trkpt><trkpt lat="50.208769729478554" lon="5.250360774058166"><ele>199.99999999999997</ele><time>2026-03-29T13:17:40Z</time></trkpt><trkpt lat="50.20876722992868" lon="5.250250983603421"><ele>201.0</ele><time>2026-03-29T13:18:00Z</time></trkpt><trkpt lat="50.20875201845182" lon="5.2501546305492495"><ele>202.0</ele><time>2026-03-29T13:18:08Z</time></trkpt><trkpt lat="50.20875523323666" lon="5.250043425742897"><ele>203.0</ele><time>2026-03-29T13:18:18Z</time></trkpt><trkpt lat="50.20873630655662" lon="5.249941446591971"><ele>204.0</ele><time>2026-03-29T13:18:25Z</time></trkpt><trkpt lat="50.20872708428645" lon="5.249830703027343"><ele>204.99999999999997</ele><time>2026-03-29T13:18:34Z</time></trkpt><trkpt lat="50.20873188183123" lon="5.249724332197076"><ele>206.0</ele><time>2026-03-29T13:18:41Z</time></trkpt><trkpt lat="50.20873911783622" lon="5.249619523686728"><ele>206.42857142857142</ele><time>2026-03-29T13:18:48Z</time></trkpt><trkpt lat="50.20876669217438" lon="5.249526413152562"><ele>206.85714285714286</ele><time>2026-03-29T13:18:55Z</time></trkpt><trkpt lat="50.20879248050028" lon="5.249425327797291"><ele>207.28571428571428</ele><time>2026-03-29T13:19:02Z</time></trkpt><trkpt lat="50.20882630914585" lon="5.249335565755815"><ele>207.71428571428572</ele><time>2026-03-29T13:19:10Z</time></trkpt><trkpt lat="50.208850233799375" lon="5.249238031534936"><ele>208.14285714285714</ele><time>2026-03-29T13:19:16Z</time></trkpt><trkpt lat="50.20886991861289" lon="5.249137857510051"><ele>208.57142857142856</ele><time>2026-03-29T13:19:23Z</time></trkpt><trkpt lat="50.20889958041586" lon="5.249028508729915"><ele>209.0</ele><time>2026-03-29T13:19:32Z</time></trkpt><trkpt lat="50.20893802881885" lon="5.248937641998761"><ele>209.28571428571428</ele><time>2026-03-29T13:19:40Z</time></trkpt><trkpt lat="50.20898185851833" lon="5.248853357295816"><ele>209.57142857142856</ele><time>2026-03-29T13:19:47Z</time></trkpt><trkpt lat="50.20903552861805" lon="5.248793857496803"><ele>209.85714285714286</ele><time>2026-03-29T13:19:54Z</time></trkpt><trkpt lat="50.20908432681585" lon="5.248728299848767"><ele>210.14285714285714</ele><time>2026-03-29T13:20:01Z</time></trkpt><trkpt lat="50.20913128485726" lon="5.248659946703935"><ele>210.42857142857144</ele><time>2026-03-29T13:20:11Z</time></trkpt><trkpt lat="50.209197093117076" lon="5.248604247871768"><ele>210.71428571428572</ele><time>2026-03-29T13:20:17Z</time></trkpt><trkpt lat="50.20924996356748" lon="5.248534142382658"><ele>211.0</ele><time>2026-03-29T13:20:24Z</time></trkpt><trkpt lat="50.20930587129648" lon="5.248458115564288"><ele>211.28571428571428</ele><time>2026-03-29T13:20:31Z</time></trkpt><trkpt lat="50.209357109805936" lon="5.248388928844832"><ele>211.57142857142858</ele><time>2026-03-29T13:20:40Z</time></trkpt><trkpt lat="50.209407549934525" lon="5.248305433885316"><ele>211.85714285714283</ele><time>2026-03-29T13:20:47Z</time></trkpt><trkpt lat="50.20946500573475" lon="5.248252121478498"><ele>212.14285714285714</ele><time>2026-03-29T13:20:55Z</time></trkpt><trkpt lat="50.20952458246683" lon="5.248181515157421"><ele>212.42857142857142</ele><time>2026-03-29T13:21:03Z</time></trkpt><trkpt lat="50.20957506940976" lon="5.2481181802497545"><ele>212.7142857142857</ele><time>2026-03-29T13:21:09Z</time></trkpt><trkpt lat="50.209624340385645" lon="5.248042831384331"><ele>213.0</ele><time>2026-03-29T13:21:17Z</time></trkpt><trkpt lat="50.20967090546566" lon="5.247959363206806"><ele>213.7142857142857</ele><time>2026-03-29T13:21:24Z</time></trkpt><trkpt lat="50.209720803460215" lon="5.247891659969501"><ele>214.42857142857142</ele><time>2026-03-29T13:21:29Z</time></trkpt><trkpt lat="50.20978029709123" lon="5.247832759075911"><ele>215.14285714285714</ele><time>2026-03-29T13:21:38Z</time></trkpt><trkpt lat="50.20983466183464" lon="5.247758966896874"><ele>215.85714285714283</ele><time>2026-03-29T13:21:45Z</time></trkpt><trkpt lat="50.20988779818388" lon="5.247683869923193"><ele>216.57142857142858</ele><time>2026-03-29T13:21:52Z</time></trkpt><trkpt lat="50.20993818311909" lon="5.2476204874213215"><ele>217.28571428571428</ele><time>2026-03-29T13:21:58Z</time></trkpt><trkpt lat="50.2099896135197" lon="5.247555707704883"><ele>218.0</ele><time>2026-03-29T13:22:05Z</time></trkpt><trkpt lat="50.21004763612247" lon="5.247491509566662"><ele>218.28571428571428</ele><time>2026-03-29T13:22:13Z</time></trkpt><trkpt lat="50.21008425098567" lon="5.247407253805262"><ele>218.57142857142858</ele><time>2026-03-29T13:22:19Z</time></trkpt><trkpt lat="50.21014607823834" lon="5.24735106251271"><ele>218.85714285714283</ele><time>2026-03-29T13:22:26Z</time></trkpt><trkpt lat="50.21020552946907" lon="5.24730139113659"><ele>219.14285714285714</ele><time>2026-03-29T13:22:32Z</time></trkpt><trkpt lat="50.2102575354746" lon="5.247238945172594"><ele>219.42857142857142</ele><time>2026-03-29T13:22:38Z</time></trkpt><trkpt lat="50.21030696752983" lon="5.247160033671344"><ele>219.7142857142857</ele><time>2026-03-29T13:22:46Z</time></trkpt><trkpt lat="50.210355983562835" lon="5.247089342079493"><ele>220.0</ele><time>2026-03-29T13:22:52Z</time></trkpt><trkpt lat="50.21041350185913" lon="5.247018869349743"><ele>220.28571428571428</ele><time>2026-03-29T13:22:59Z</time></trkpt><trkpt lat="50.210476044846494" lon="5.247001581697603"><ele>220.57142857142856</ele><time>2026-03-29T13:23:08Z</time></trkpt><trkpt lat="50.21053361505307" lon="5.246941470747321"><ele>220.85714285714283</ele><time>2026-03-29T13:23:15Z</time></trkpt><trkpt lat="50.210598046889956" lon="5.246873544059146"><ele>221.14285714285714</ele><time>2026-03-29T13:23:23Z</time></trkpt><trkpt lat="50.21065883148209" lon="5.246816567537677"><ele>221.42857142857144</ele><time>2026-03-29T13:23:30Z</time></trkpt><trkpt lat="50.210703437706265" lon="5.246738299112315"><ele>221.7142857142857</ele><time>2026-03-29T13:23:37Z</time></trkpt><trkpt lat="50.210745900984826" lon="5.2466477707398695"><ele>222.0</ele><time>2026-03-29T13:23:46Z</time></trkpt><trkpt lat="50.21081040408921" lon="5.246589668563928"><ele>222.14285714285714</ele><time>2026-03-29T13:23:54Z</time></trkpt><trkpt lat="50.2108717336762" lon="5.246534853958914"><ele>222.2857142857143</ele><time>2026-03-29T13:23:59.999Z</time></trkpt><trkpt lat="50.21093420972576" lon="5.246481512760761"><ele>222.42857142857144</ele><time>2026-03-29T13:24:05.999Z</time></trkpt><trkpt lat="50.21098593903817" lon="5.2464069723191065"><ele>222.57142857142856</ele><time>2026-03-29T13:24:13Z</time></trkpt><trkpt lat="50.21103425671968" lon="5.24634281229961"><ele>222.71428571428572</ele><time>2026-03-29T13:24:17Z</time></trkpt><trkpt lat="50.21108316792609" lon="5.246228505887831"><ele>222.85714285714286</ele><time>2026-03-29T13:24:34Z</time></trkpt><trkpt lat="50.211147571417094" lon="5.246181157679836"><ele>223.0</ele><time>2026-03-29T13:24:40Z</time></trkpt><trkpt lat="50.21120159326268" lon="5.246127931945775"><ele>223.42857142857142</ele><time>2026-03-29T13:24:46Z</time></trkpt><trkpt lat="50.21124626140604" lon="5.246054775495801"><ele>223.85714285714283</ele><time>2026-03-29T13:24:52Z</time></trkpt><trkpt lat="50.211282714298534" lon="5.2459633159717125"><ele>224.28571428571428</ele><time>2026-03-29T13:25:00Z</time></trkpt><trkpt lat="50.21132707034723" lon="5.245892871054345"><ele>224.71428571428572</ele><time>2026-03-29T13:25:06Z</time></trkpt><trkpt lat="50.21138453359503" lon="5.245822499797537"><ele>225.14285714285714</ele><time>2026-03-29T13:25:15Z</time></trkpt><trkpt lat="50.21142648857552" lon="5.245741887575792"><ele>225.57142857142858</ele><time>2026-03-29T13:25:21Z</time></trkpt><trkpt lat="50.2114765364631" lon="5.245661187182641"><ele>226.0</ele><time>2026-03-29T13:25:27Z</time></trkpt><trkpt lat="50.211528447167886" lon="5.245582203893655"><ele>226.14285714285717</ele><time>2026-03-29T13:25:33Z</time></trkpt><trkpt lat="50.21156979837343" lon="5.245502826597157"><ele>226.28571428571428</ele><time>2026-03-29T13:25:39Z</time></trkpt><trkpt lat="50.211620457116936" lon="5.245434073310309"><ele>226.42857142857144</ele><time>2026-03-29T13:25:45Z</time></trkpt><trkpt lat="50.21166288568196" lon="5.245354151609253"><ele>226.57142857142858</ele><time>2026-03-29T13:25:51Z</time></trkpt><trkpt lat="50.2117069840473" lon="5.245269407805606"><ele>226.71428571428572</ele><time>2026-03-29T13:25:57Z</time></trkpt><trkpt lat="50.211751289917686" lon="5.245193222837773"><ele>226.85714285714286</ele><time>2026-03-29T13:26:02.999Z</time></trkpt><trkpt lat="50.21179726895919" lon="5.245106161221439"><ele>227.0</ele><time>2026-03-29T13:26:09.999Z</time></trkpt><trkpt lat="50.211843421341925" lon="5.245024527138991"><ele>227.0</ele><time>2026-03-29T13:26:17Z</time></trkpt><trkpt lat="50.21186884873869" lon="5.24492874394835"><ele>227.00000000000003</ele><time>2026-03-29T13:26:23Z</time></trkpt><trkpt lat="50.211912600705666" lon="5.244854700607051"><ele>227.0</ele><time>2026-03-29T13:26:30Z</time></trkpt><trkpt lat="50.211961018355474" lon="5.244756214733476"><ele>227.0</ele><time>2026-03-29T13:26:38Z</time></trkpt><trkpt lat="50.212009258780355" lon="5.244655569397333"><ele>227.00000000000003</ele><time>2026-03-29T13:26:45Z</time></trkpt><trkpt lat="50.21204379086838" lon="5.244551050131984"><ele>227.0</ele><time>2026-03-29T13:26:52Z</time></trkpt><trkpt lat="50.212077332037545" lon="5.24445811469251"><ele>227.0</ele><time>2026-03-29T13:27:59.999Z</time></trkpt><trkpt lat="50.212138779204096" lon="5.244395380177446"><ele>227.0</ele><time>2026-03-29T13:28:07.999Z</time></trkpt><trkpt lat="50.212183561846125" lon="5.244319926213716"><ele>227.00000000000003</ele><time>2026-03-29T13:28:21Z</time></trkpt><trkpt lat="50.212224120841526" lon="5.244242083534576"><ele>227.0</ele><time>2026-03-29T13:28:29Z</time></trkpt><trkpt lat="50.21226214475287" lon="5.24414907679401"><ele>227.0</ele><time>2026-03-29T13:28:37Z</time></trkpt><trkpt lat="50.212306033576596" lon="5.244076505596379"><ele>227.00000000000003</ele><time>2026-03-29T13:28:45Z</time></trkpt><trkpt lat="50.21235124425403" lon="5.243993797538774"><ele>227.0</ele><time>2026-03-29T13:28:52Z</time></trkpt><trkpt lat="50.21239323282639" lon="5.243904156550183"><ele>227.0</ele><time>2026-03-29T13:28:59Z</time></trkpt><trkpt lat="50.21244461067963" lon="5.243824352218457"><ele>227.57142857142858</ele><time>2026-03-29T13:29:05Z</time></trkpt><trkpt lat="50.21249147408168" lon="5.243735834453316"><ele>228.14285714285717</ele><time>2026-03-29T13:29:14Z</time></trkpt><trkpt lat="50.2125297762449" lon="5.243652457056827"><ele>228.71428571428572</ele><time>2026-03-29T13:29:21Z</time></trkpt><trkpt lat="50.21257904166149" lon="5.2435838081508575"><ele>229.28571428571428</ele><time>2026-03-29T13:29:27Z</time></trkpt><trkpt lat="50.21261999349841" lon="5.243508102396756"><ele>229.85714285714286</ele><time>2026-03-29T13:29:33Z</time></trkpt><trkpt lat="50.21266310976779" lon="5.243412290363429"><ele>230.42857142857144</ele><time>2026-03-29T13:29:40Z</time></trkpt><trkpt lat="50.21269956564076" lon="5.243331149782536"><ele>231.0</ele><time>2026-03-29T13:29:48Z</time></trkpt><trkpt lat="50.21274679857821" lon="5.24325363411042"><ele>231.0</ele><time>2026-03-29T13:29:55.999Z</time></trkpt><trkpt lat="50.21278733822212" lon="5.24317522206069"><ele>231.0</ele><time>2026-03-29T13:30:02.999Z</time></trkpt><trkpt lat="50.21283182816287" lon="5.243097250345268"><ele>231.0</ele><time>2026-03-29T13:30:07.999Z</time></trkpt><trkpt lat="50.21287794755667" lon="5.243004903963517"><ele>231.0</ele><time>2026-03-29T13:30:16.999Z</time></trkpt><trkpt lat="50.21292659633535" lon="5.2429339756957445"><ele>231.0</ele><time>2026-03-29T13:30:22.999Z</time></trkpt><trkpt lat="50.21297700889027" lon="5.242862551634284"><ele>231.0</ele><time>2026-03-29T13:30:29Z</time></trkpt><trkpt lat="50.21301882604507" lon="5.242788394209233"><ele>231.0</ele><time>2026-03-29T13:30:37Z</time></trkpt><trkpt lat="50.21305569876174" lon="5.242696971239807"><ele>231.14285714285714</ele><time>2026-03-29T13:30:44Z</time></trkpt><trkpt lat="50.21307770390329" lon="5.24260437850522"><ele>231.28571428571428</ele><time>2026-03-29T13:30:50Z</time></trkpt><trkpt lat="50.213120209596994" lon="5.242530072918922"><ele>231.42857142857144</ele><time>2026-03-29T13:31:02Z</time></trkpt><trkpt lat="50.21317232505403" lon="5.2424579669568505"><ele>231.57142857142858</ele><time>2026-03-29T13:31:10Z</time></trkpt><trkpt lat="50.21320686589172" lon="5.242374804728804"><ele>231.71428571428572</ele><time>2026-03-29T13:31:16Z</time></trkpt><trkpt lat="50.21323739945869" lon="5.242282947799596"><ele>231.8571428571429</ele><time>2026-03-29T13:31:23Z</time></trkpt><trkpt lat="50.21328960364102" lon="5.242218491199302"><ele>232.00000000000003</ele><time>2026-03-29T13:31:28.999Z</time></trkpt><trkpt lat="50.21333019793257" lon="5.242129016152622"><ele>232.28571428571433</ele><time>2026-03-29T13:31:36.999Z</time></trkpt><trkpt lat="50.21337808095229" lon="5.242053368342175"><ele>232.57142857142858</ele><time>2026-03-29T13:31:45.999Z</time></trkpt><trkpt lat="50.21342089800475" lon="5.241968611548919"><ele>232.8571428571429</ele><time>2026-03-29T13:31:54.999Z</time></trkpt><trkpt lat="50.21347042503469" lon="5.241889035590596"><ele>233.14285714285717</ele><time>2026-03-29T13:32:02.999Z</time></trkpt><trkpt lat="50.21349844986038" lon="5.241796362563373"><ele>233.42857142857144</ele><time>2026-03-29T13:32:09.999Z</time></trkpt><trkpt lat="50.21354720741701" lon="5.241721255342344"><ele>233.71428571428572</ele><time>2026-03-29T13:32:18.999Z</time></trkpt><trkpt lat="50.21357866607174" lon="5.241627686118456"><ele>234.0</ele><time>2026-03-29T13:32:26.999Z</time></trkpt><trkpt lat="50.213613664580016" lon="5.241545372868665"><ele>234.0</ele><time>2026-03-29T13:32:34Z</time></trkpt><trkpt lat="50.21366140145133" lon="5.2414666866225605"><ele>234.00000000000003</ele><time>2026-03-29T13:32:40Z</time></trkpt><trkpt lat="50.21369782836343" lon="5.241386070290178"><ele>234.0</ele><time>2026-03-29T13:32:50Z</time></trkpt><trkpt lat="50.213746875705844" lon="5.241319371344796"><ele>234.0</ele><time>2026-03-29T13:32:58Z</time></trkpt><trkpt lat="50.213795658594215" lon="5.241251862643479"><ele>234.00000000000003</ele><time>2026-03-29T13:33:06Z</time></trkpt><trkpt lat="50.21383569504623" lon="5.241175216688626"><ele>234.0</ele><time>2026-03-29T13:33:13Z</time></trkpt><trkpt lat="50.2138819162471" lon="5.241101334310929"><ele>234.0</ele><time>2026-03-29T13:33:19Z</time></trkpt><trkpt lat="50.213929192074495" lon="5.241025866086944"><ele>234.42857142857144</ele><time>2026-03-29T13:33:27.999Z</time></trkpt><trkpt lat="50.213966440208466" lon="5.2409437102814245"><ele>234.8571428571429</ele><time>2026-03-29T13:33:33.999Z</time></trkpt><trkpt lat="50.21400012067639" lon="5.24085888973459"><ele>235.28571428571428</ele><time>2026-03-29T13:33:41.999Z</time></trkpt><trkpt lat="50.2140426939535" lon="5.240785887996276"><ele>235.71428571428572</ele><time>2026-03-29T13:33:49.999Z</time></trkpt><trkpt lat="50.21409143146354" lon="5.240713353390015"><ele>236.14285714285714</ele><time>2026-03-29T13:33:55.999Z</time></trkpt><trkpt lat="50.214133488238545" lon="5.240618911757516"><ele>236.57142857142856</ele><time>2026-03-29T13:34:02.999Z</time></trkpt><trkpt lat="50.21418383422774" lon="5.240539763038654"><ele>236.99999999999997</ele><time>2026-03-29T13:34:12.999Z</time></trkpt><trkpt lat="50.21422755230156" lon="5.240459271266095"><ele>237.99999999999997</ele><time>2026-03-29T13:34:18.999Z</time></trkpt><trkpt lat="50.214261208520355" lon="5.240373200545826"><ele>239.0</ele><time>2026-03-29T13:34:25.999Z</time></trkpt><trkpt lat="50.21428635429324" lon="5.240268114924645"><ele>239.99999999999997</ele><time>2026-03-29T13:34:41Z</time></trkpt><trkpt lat="50.21433239224823" lon="5.240182121236482"><ele>240.99999999999997</ele><time>2026-03-29T13:34:49Z</time></trkpt><trkpt lat="50.21436766101148" lon="5.240082273844644"><ele>242.0</ele><time>2026-03-29T13:35:02Z</time></trkpt><trkpt lat="50.21442612734801" lon="5.2400254057919415"><ele>242.99999999999997</ele><time>2026-03-29T13:35:13Z</time></trkpt><trkpt lat="50.214467256927705" lon="5.239932572540712"><ele>243.99999999999997</ele><time>2026-03-29T13:35:21Z</time></trkpt><trkpt lat="50.214521306213484" lon="5.23985452006862"><ele>244.1428571428571</ele><time>2026-03-29T13:35:29Z</time></trkpt><trkpt lat="50.214572506304236" lon="5.239761297472537"><ele>244.28571428571428</ele><time>2026-03-29T13:35:38Z</time></trkpt><trkpt lat="50.21461444088936" lon="5.23968226569443"><ele>244.42857142857142</ele><time>2026-03-29T13:35:47Z</time></trkpt><trkpt lat="50.214651842470616" lon="5.239598181655242"><ele>244.57142857142856</ele><time>2026-03-29T13:35:55.999Z</time></trkpt><trkpt lat="50.214697685041656" lon="5.239524421319698"><ele>244.71428571428572</ele><time>2026-03-29T13:36:03.999Z</time></trkpt><trkpt lat="50.2147239051375" lon="5.2394249946039055"><ele>244.85714285714286</ele><time>2026-03-29T13:36:13.999Z</time></trkpt><trkpt lat="50.21478192169769" lon="5.239343259461986"><ele>245.0</ele><time>2026-03-29T13:36:24.999Z</time></trkpt><trkpt lat="50.21483640194776" lon="5.239286064888813"><ele>245.71428571428572</ele><time>2026-03-29T13:36:31.999Z</time></trkpt><trkpt lat="50.21485218705544" lon="5.2391868048617996"><ele>246.42857142857144</ele><time>2026-03-29T13:36:39.999Z</time></trkpt><trkpt lat="50.21490378704833" lon="5.239122825827935"><ele>247.14285714285714</ele><time>2026-03-29T13:36:46Z</time></trkpt><trkpt lat="50.21496707553166" lon="5.239080650687396"><ele>247.85714285714286</ele><time>2026-03-29T13:36:54Z</time></trkpt><trkpt lat="50.21502081705635" lon="5.239021758959449"><ele>248.57142857142858</ele><time>2026-03-29T13:37:00Z</time></trkpt><trkpt lat="50.215026143541905" lon="5.238919825344572"><ele>249.28571428571428</ele><time>2026-03-29T13:37:09Z</time></trkpt><trkpt lat="50.2150816014073" lon="5.238863027604356"><ele>250.0</ele><time>2026-03-29T13:37:18Z</time></trkpt><trkpt lat="50.21512244316793" lon="5.23878454439452"><ele>250.28571428571428</ele><time>2026-03-29T13:37:28Z</time></trkpt><trkpt lat="50.2151450141483" lon="5.238689573787144"><ele>250.57142857142858</ele><time>2026-03-29T13:37:38Z</time></trkpt><trkpt lat="50.215198553836" lon="5.238617945892449"><ele>250.85714285714286</ele><time>2026-03-29T13:37:47Z</time></trkpt><trkpt lat="50.215231046219266" lon="5.238516297965307"><ele>251.14285714285714</ele><time>2026-03-29T13:37:55Z</time></trkpt><trkpt lat="50.21527466616772" lon="5.23844520632034"><ele>251.42857142857144</ele><time>2026-03-29T13:38:05.999Z</time></trkpt><trkpt lat="50.21532294003084" lon="5.23837305900791"><ele>251.71428571428572</ele><time>2026-03-29T13:38:14.999Z</time></trkpt><trkpt lat="50.21538111992475" lon="5.238298266808988"><ele>252.0</ele><time>2026-03-29T13:38:22.999Z</time></trkpt><trkpt lat="50.21542894008412" lon="5.238228911553242"><ele>252.0</ele><time>2026-03-29T13:38:29.999Z</time></trkpt><trkpt lat="50.21546397596304" lon="5.238143133583315"><ele>252.0</ele><time>2026-03-29T13:38:41.999Z</time></trkpt><trkpt lat="50.21550844667793" lon="5.23806674181176"><ele>252.0</ele><time>2026-03-29T13:38:50Z</time></trkpt><trkpt lat="50.21554120181824" lon="5.2379797412258595"><ele>252.0</ele><time>2026-03-29T13:38:59Z</time></trkpt><trkpt lat="50.21558849232291" lon="5.23788348026506"><ele>252.0</ele><time>2026-03-29T13:39:10Z</time></trkpt><trkpt lat="50.215625264669725" lon="5.237800973547752"><ele>252.0</ele><time>2026-03-29T13:39:18Z</time></trkpt><trkpt lat="50.21566657063019" lon="5.237717708168498"><ele>252.0</ele><time>2026-03-29T13:39:25Z</time></trkpt><trkpt lat="50.215707203768666" lon="5.23764088555706"><ele>253.14285714285714</ele><time>2026-03-29T13:39:32Z</time></trkpt><trkpt lat="50.215768478152484" lon="5.237584402732979"><ele>254.28571428571428</ele><time>2026-03-29T13:39:41Z</time></trkpt><trkpt lat="50.215826633383976" lon="5.237515512561327"><ele>255.42857142857144</ele><time>2026-03-29T13:39:48Z</time></trkpt><trkpt lat="50.21587096813987" lon="5.2374451479854045"><ele>256.57142857142856</ele><time>2026-03-29T13:39:53Z</time></trkpt><trkpt lat="50.21588476441444" lon="5.237346119490144"><ele>257.7142857142857</ele><time>2026-03-29T13:40:01.999Z</time></trkpt><trkpt lat="50.215943121554275" lon="5.237273607570101"><ele>258.8571428571429</ele><time>2026-03-29T13:40:10.999Z</time></trkpt><trkpt lat="50.21598708216796" lon="5.23718968266649"><ele>260.0</ele><time>2026-03-29T13:40:16.999Z</time></trkpt><trkpt lat="50.21602977062565" lon="5.237112812032421"><ele>260.28571428571433</ele><time>2026-03-29T13:40:22.999Z</time></trkpt><trkpt lat="50.21602983361804" lon="5.23699902544015"><ele>260.57142857142856</ele><time>2026-03-29T13:40:33.999Z</time></trkpt><trkpt lat="50.216085533055114" lon="5.236919543465435"><ele>260.8571428571429</ele><time>2026-03-29T13:40:41.999Z</time></trkpt><trkpt lat="50.21613274772951" lon="5.236851216101572"><ele>261.14285714285717</ele><time>2026-03-29T13:40:47.999Z</time></trkpt><trkpt lat="50.21616995501335" lon="5.236751565172393"><ele>261.42857142857144</ele><time>2026-03-29T13:40:57Z</time></trkpt><trkpt lat="50.21621908190434" lon="5.236641321629313"><ele>261.7142857142857</ele><time>2026-03-29T13:41:06Z</time></trkpt><trkpt lat="50.21627500647616" lon="5.236566239513901"><ele>262.0</ele><time>2026-03-29T13:41:13Z</time></trkpt><trkpt lat="50.216312829703476" lon="5.236485113813349"><ele>262.14285714285717</ele><time>2026-03-29T13:41:19Z</time></trkpt><trkpt lat="50.21634413245211" lon="5.236398059833619"><ele>262.28571428571433</ele><time>2026-03-29T13:41:25Z</time></trkpt><trkpt lat="50.21639157297713" lon="5.236316733561529"><ele>262.42857142857144</ele><time>2026-03-29T13:41:32Z</time></trkpt><trkpt lat="50.21643081518497" lon="5.236222989573316"><ele>262.57142857142856</ele><time>2026-03-29T13:41:40Z</time></trkpt><trkpt lat="50.21648061372508" lon="5.23616040823856"><ele>262.71428571428567</ele><time>2026-03-29T13:41:46.999Z</time></trkpt><trkpt lat="50.216522447512" lon="5.23608414766723"><ele>262.85714285714283</ele><time>2026-03-29T13:41:52.999Z</time></trkpt><trkpt lat="50.21655074739934" lon="5.235996148338788"><ele>263.0</ele><time>2026-03-29T13:41:58.999Z</time></trkpt><trkpt lat="50.2165903160251" lon="5.235894542881164"><ele>263.0</ele><time>2026-03-29T13:42:05.999Z</time></trkpt><trkpt lat="50.216643918805765" lon="5.235824317821318"><ele>263.0</ele><time>2026-03-29T13:42:11.999Z</time></trkpt><trkpt lat="50.21668315899358" lon="5.235742683852729"><ele>263.0</ele><time>2026-03-29T13:42:17.999Z</time></trkpt><trkpt lat="50.216728914285845" lon="5.235653069638588"><ele>263.0</ele><time>2026-03-29T13:42:27.999Z</time></trkpt><trkpt lat="50.21676978651236" lon="5.235570369910958"><ele>263.0</ele><time>2026-03-29T13:42:34.999Z</time></trkpt><trkpt lat="50.216811782454826" lon="5.235496847525044"><ele>263.0</ele><time>2026-03-29T13:42:39.999Z</time></trkpt><trkpt lat="50.21686951895143" lon="5.235431929655463"><ele>263.0</ele><time>2026-03-29T13:42:47.999Z</time></trkpt><trkpt lat="50.21693766241615" lon="5.235420762104231"><ele>262.7142857142857</ele><time>2026-03-29T13:43:45.999Z</time></trkpt><trkpt lat="50.21700198811963" lon="5.235433507397637"><ele>262.4285714285714</ele><time>2026-03-29T13:43:52Z</time></trkpt><trkpt lat="50.217060660150224" lon="5.235488715097347"><ele>262.1428571428571</ele><time>2026-03-29T13:43:58Z</time></trkpt><trkpt lat="50.21712632862034" lon="5.235525052798645"><ele>261.85714285714283</ele><time>2026-03-29T13:44:03Z</time></trkpt><trkpt lat="50.2171904446556" lon="5.235557326092418"><ele>261.57142857142856</ele><time>2026-03-29T13:44:09Z</time></trkpt><trkpt lat="50.21725763097595" lon="5.235582654324302"><ele>261.2857142857143</ele><time>2026-03-29T13:44:16Z</time></trkpt><trkpt lat="50.21732212637951" lon="5.235592948298672"><ele>261.0</ele><time>2026-03-29T13:44:24Z</time></trkpt><trkpt lat="50.21738818476498" lon="5.235594825941086"><ele>261.0</ele><time>2026-03-29T13:44:32Z</time></trkpt><trkpt lat="50.217460085417194" lon="5.235583878829077"><ele>261.0</ele><time>2026-03-29T13:44:42Z</time></trkpt><trkpt lat="50.21753925484464" lon="5.23558204452376"><ele>261.0</ele><time>2026-03-29T13:44:52Z</time></trkpt><trkpt lat="50.217606478468674" lon="5.235603442121352"><ele>261.0</ele><time>2026-03-29T13:44:57Z</time></trkpt><trkpt lat="50.21767568469644" lon="5.235603602923252"><ele>261.0</ele><time>2026-03-29T13:45:04Z</time></trkpt><trkpt lat="50.217725958813894" lon="5.235674033034723"><ele>261.0</ele><time>2026-03-29T13:45:12Z</time></trkpt><trkpt lat="50.217786774484054" lon="5.2357279049350955"><ele>261.0</ele><time>2026-03-29T13:45:18Z</time></trkpt><trkpt lat="50.21785109371586" lon="5.23576930130004"><ele>261.0</ele><time>2026-03-29T13:45:25Z</time></trkpt><trkpt lat="50.21790881149263" lon="5.235820470954822"><ele>261.0</ele><time>2026-03-29T13:45:31Z</time></trkpt><trkpt lat="50.21796743662615" lon="5.235871985582766"><ele>261.0</ele><time>2026-03-29T13:45:38Z</time></trkpt><trkpt lat="50.218024967815275" lon="5.23593153269989"><ele>261.0</ele><time>2026-03-29T13:45:45Z</time></trkpt><trkpt lat="50.21809038544653" lon="5.23599103008352"><ele>261.0</ele><time>2026-03-29T13:45:53Z</time></trkpt><trkpt lat="50.21814830230351" lon="5.236043261442874"><ele>261.0</ele><time>2026-03-29T13:45:59Z</time></trkpt><trkpt lat="50.218188892973984" lon="5.23611906486762"><ele>261.0</ele><time>2026-03-29T13:46:06Z</time></trkpt><trkpt lat="50.218259045747956" lon="5.2361625143321096"><ele>261.0</ele><time>2026-03-29T13:46:12Z</time></trkpt><trkpt lat="50.218322704828466" lon="5.236200793448453"><ele>261.0</ele><time>2026-03-29T13:46:29Z</time></trkpt><trkpt lat="50.218374357625585" lon="5.236261303365477"><ele>261.0</ele><time>2026-03-29T13:46:35Z</time></trkpt><trkpt lat="50.21842631159133" lon="5.23632073852419"><ele>261.0</ele><time>2026-03-29T13:46:41Z</time></trkpt><trkpt lat="50.218480697390945" lon="5.236380789677597"><ele>261.0</ele><time>2026-03-29T13:46:47Z</time></trkpt><trkpt lat="50.21853830623212" lon="5.236430360806667"><ele>261.0</ele><time>2026-03-29T13:46:53Z</time></trkpt><trkpt lat="50.21859099177225" lon="5.236491588075569"><ele>261.0</ele><time>2026-03-29T13:46:58Z</time></trkpt><trkpt lat="50.218632949252175" lon="5.236569667915468"><ele>261.42857142857144</ele><time>2026-03-29T13:47:04Z</time></trkpt><trkpt lat="50.218675896596004" lon="5.236655767024444"><ele>261.85714285714283</ele><time>2026-03-29T13:47:10Z</time></trkpt><trkpt lat="50.21872700587881" lon="5.236731702932655"><ele>262.2857142857143</ele><time>2026-03-29T13:47:17Z</time></trkpt><trkpt lat="50.218777590135424" lon="5.236810785653407"><ele>262.7142857142857</ele><time>2026-03-29T13:47:24Z</time></trkpt><trkpt lat="50.2188238293005" lon="5.236883583574387"><ele>263.14285714285717</ele><time>2026-03-29T13:47:30Z</time></trkpt><trkpt lat="50.218873650955736" lon="5.2369599743055755"><ele>263.57142857142856</ele><time>2026-03-29T13:47:37Z</time></trkpt><trkpt lat="50.218923241091204" lon="5.237034555209103"><ele>264.0</ele><time>2026-03-29T13:47:45Z</time></trkpt><trkpt lat="50.21896451121304" lon="5.237118938610111"><ele>263.57142857142856</ele><time>2026-03-29T13:47:52Z</time></trkpt><trkpt lat="50.219021915438034" lon="5.237184993795343"><ele>263.14285714285717</ele><time>2026-03-29T13:47:58Z</time></trkpt><trkpt lat="50.219077802593134" lon="5.237246678541914"><ele>262.7142857142857</ele><time>2026-03-29T13:48:06Z</time></trkpt><trkpt lat="50.21912863101129" lon="5.2373279490557145"><ele>262.2857142857143</ele><time>2026-03-29T13:48:14Z</time></trkpt><trkpt lat="50.21917428803735" lon="5.237397565930562"><ele>261.85714285714283</ele><time>2026-03-29T13:48:23Z</time></trkpt><trkpt lat="50.21922095708354" lon="5.2374808513302655"><ele>261.42857142857144</ele><time>2026-03-29T13:48:29Z</time></trkpt><trkpt lat="50.21925406317936" lon="5.237569869330739"><ele>261.0</ele><time>2026-03-29T13:48:36Z</time></trkpt><trkpt lat="50.21929767947553" lon="5.2376583939597765"><ele>261.0</ele><time>2026-03-29T13:48:42Z</time></trkpt><trkpt lat="50.2193608472295" lon="5.2377303546988365"><ele>261.0</ele><time>2026-03-29T13:48:48Z</time></trkpt><trkpt lat="50.21939625033537" lon="5.23782154366681"><ele>261.0</ele><time>2026-03-29T13:48:55Z</time></trkpt><trkpt lat="50.21944475971757" lon="5.23790069257827"><ele>261.0</ele><time>2026-03-29T13:49:02Z</time></trkpt><trkpt lat="50.21949752134939" lon="5.237972248615472"><ele>261.0</ele><time>2026-03-29T13:49:11Z</time></trkpt><trkpt lat="50.21952371924117" lon="5.238064574548903"><ele>261.0</ele><time>2026-03-29T13:49:17Z</time></trkpt><trkpt lat="50.21957248079034" lon="5.238138765715862"><ele>261.0</ele><time>2026-03-29T13:49:24.001Z</time></trkpt><trkpt lat="50.21961209053899" lon="5.238231594240895"><ele>261.0</ele><time>2026-03-29T13:49:47Z</time></trkpt><trkpt lat="50.21964916738982" lon="5.238311260062109"><ele>261.0</ele><time>2026-03-29T13:49:55Z</time></trkpt><trkpt lat="50.2197004136403" lon="5.238378559894399"><ele>261.0</ele><time>2026-03-29T13:50:03Z</time></trkpt><trkpt lat="50.21974798580499" lon="5.238443895703607"><ele>261.0</ele><time>2026-03-29T13:50:08Z</time></trkpt><trkpt lat="50.219800356447195" lon="5.238521758150183"><ele>261.0</ele><time>2026-03-29T13:50:15Z</time></trkpt><trkpt lat="50.21985121523528" lon="5.2386004900416525"><ele>261.0</ele><time>2026-03-29T13:50:23Z</time></trkpt><trkpt lat="50.219896540404235" lon="5.2386840730224"><ele>261.0</ele><time>2026-03-29T13:50:31Z</time></trkpt><trkpt lat="50.21993342814331" lon="5.2387807196139535"><ele>261.0</ele><time>2026-03-29T13:50:45Z</time></trkpt><trkpt lat="50.21998248767916" lon="5.238850900323273"><ele>261.0</ele><time>2026-03-29T13:50:52Z</time></trkpt><trkpt lat="50.220026066238084" lon="5.238927346116709"><ele>261.0</ele><time>2026-03-29T13:50:58Z</time></trkpt><trkpt lat="50.22007437439344" lon="5.2389942120841395"><ele>261.0</ele><time>2026-03-29T13:51:04Z</time></trkpt><trkpt lat="50.22012083386203" lon="5.239076531500963"><ele>261.0</ele><time>2026-03-29T13:51:11Z</time></trkpt><trkpt lat="50.220166682139286" lon="5.23916024431284"><ele>261.0</ele><time>2026-03-29T13:51:18Z</time></trkpt><trkpt lat="50.220205778187434" lon="5.239244856281425"><ele>261.0</ele><time>2026-03-29T13:51:26.001Z</time></trkpt><trkpt lat="50.22024848419129" lon="5.2393286824887495"><ele>261.14285714285717</ele><time>2026-03-29T13:51:32.001Z</time></trkpt><trkpt lat="50.22029724928372" lon="5.23941824333375"><ele>261.2857142857143</ele><time>2026-03-29T13:51:40Z</time></trkpt><trkpt lat="50.22034744165612" lon="5.239491063216176"><ele>261.42857142857144</ele><time>2026-03-29T13:51:47Z</time></trkpt><trkpt lat="50.220387954862765" lon="5.239584544366423"><ele>261.57142857142856</ele><time>2026-03-29T13:51:54Z</time></trkpt><trkpt lat="50.22042561327304" lon="5.239667964558942"><ele>261.7142857142857</ele><time>2026-03-29T13:51:59Z</time></trkpt><trkpt lat="50.22045730358515" lon="5.239755725210529"><ele>261.8571428571429</ele><time>2026-03-29T13:52:05Z</time></trkpt><trkpt lat="50.22047851229102" lon="5.239851259684872"><ele>262.0</ele><time>2026-03-29T13:52:13Z</time></trkpt><trkpt lat="50.2205122213584" lon="5.239947470202049"><ele>262.0</ele><time>2026-03-29T13:52:20Z</time></trkpt><trkpt lat="50.220540605774566" lon="5.240043188909359"><ele>262.0</ele><time>2026-03-29T13:52:29Z</time></trkpt><trkpt lat="50.22059301621291" lon="5.24012916501358"><ele>262.0</ele><time>2026-03-29T13:52:37Z</time></trkpt><trkpt lat="50.22066322463167" lon="5.240172876722897"><ele>262.0</ele><time>2026-03-29T13:52:43Z</time></trkpt><trkpt lat="50.22071285024881" lon="5.240254367559101"><ele>262.0</ele><time>2026-03-29T13:52:50Z</time></trkpt><trkpt lat="50.220754371524265" lon="5.240349436153986"><ele>262.0</ele><time>2026-03-29T13:52:57Z</time></trkpt><trkpt lat="50.2207818224295" lon="5.2404457666920425"><ele>262.0</ele><time>2026-03-29T13:53:04Z</time></trkpt><trkpt lat="50.22082259941225" lon="5.240520917009013"><ele>262.0</ele><time>2026-03-29T13:53:10Z</time></trkpt><trkpt lat="50.22086828578693" lon="5.240594401171358"><ele>262.0</ele><time>2026-03-29T13:53:16Z</time></trkpt><trkpt lat="50.22091363464046" lon="5.240675039721575"><ele>262.0</ele><time>2026-03-29T13:53:22Z</time></trkpt><trkpt lat="50.220954224914685" lon="5.240768188063439"><ele>262.0</ele><time>2026-03-29T13:53:37.001Z</time></trkpt><trkpt lat="50.22100005098488" lon="5.240840948346081"><ele>262.0</ele><time>2026-03-29T13:53:44Z</time></trkpt><trkpt lat="50.22104823072714" lon="5.24092070836321"><ele>262.0</ele><time>2026-03-29T13:53:53Z</time></trkpt><trkpt lat="50.22108576147732" lon="5.241013665967734"><ele>262.0</ele><time>2026-03-29T13:53:59Z</time></trkpt><trkpt lat="50.221130664901814" lon="5.241097588506131"><ele>262.42857142857144</ele><time>2026-03-29T13:54:05Z</time></trkpt><trkpt lat="50.221171589671194" lon="5.241198975093391"><ele>262.8571428571429</ele><time>2026-03-29T13:54:12Z</time></trkpt><trkpt lat="50.22121638312251" lon="5.241294781648673"><ele>263.2857142857143</ele><time>2026-03-29T13:54:20Z</time></trkpt><trkpt lat="50.221252124701586" lon="5.241384036455168"><ele>263.7142857142857</ele><time>2026-03-29T13:54:27Z</time></trkpt><trkpt lat="50.22129336890149" lon="5.241482402692994"><ele>264.1428571428571</ele><time>2026-03-29T13:54:34Z</time></trkpt><trkpt lat="50.221319228706896" lon="5.241585358726955"><ele>264.57142857142856</ele><time>2026-03-29T13:54:40Z</time></trkpt><trkpt lat="50.22136633138887" lon="5.241658471136893"><ele>265.0</ele><time>2026-03-29T13:54:46Z</time></trkpt><trkpt lat="50.2213874703385" lon="5.241767946884117"><ele>264.99999999999994</ele><time>2026-03-29T13:54:54Z</time></trkpt><trkpt lat="50.22142863458323" lon="5.241852872424581"><ele>265.0</ele><time>2026-03-29T13:55:01Z</time></trkpt><trkpt lat="50.22146129388287" lon="5.241952342481297"><ele>265.0</ele><time>2026-03-29T13:55:08Z</time></trkpt><trkpt lat="50.22149372234975" lon="5.242052905317908"><ele>265.0</ele><time>2026-03-29T13:55:15Z</time></trkpt><trkpt lat="50.22153349463502" lon="5.242138279096633"><ele>265.0</ele><time>2026-03-29T13:55:21Z</time></trkpt><trkpt lat="50.22158157658185" lon="5.242211542940615"><ele>264.99999999999994</ele><time>2026-03-29T13:55:28Z</time></trkpt><trkpt lat="50.221585991090095" lon="5.242319960101262"><ele>265.0</ele><time>2026-03-29T13:55:37Z</time></trkpt><trkpt lat="50.22162160107967" lon="5.242408973091437"><ele>264.71428571428567</ele><time>2026-03-29T13:55:45Z</time></trkpt><trkpt lat="50.22165723177823" lon="5.2424915918035"><ele>264.42857142857144</ele><time>2026-03-29T13:55:52Z</time></trkpt><trkpt lat="50.22168561245444" lon="5.242592442218627"><ele>264.1428571428571</ele><time>2026-03-29T13:55:59Z</time></trkpt><trkpt lat="50.22173342305069" lon="5.242665821207685"><ele>263.85714285714283</ele><time>2026-03-29T13:56:04Z</time></trkpt><trkpt lat="50.221774278544515" lon="5.242746835424315"><ele>263.57142857142856</ele><time>2026-03-29T13:56:11Z</time></trkpt><trkpt lat="50.22181038881745" lon="5.242848459909194"><ele>263.2857142857143</ele><time>2026-03-29T13:56:20Z</time></trkpt><trkpt lat="50.2218562488967" lon="5.242933279622641"><ele>263.0</ele><time>2026-03-29T13:56:27Z</time></trkpt><trkpt lat="50.221885886021084" lon="5.243024206705089"><ele>263.1428571428571</ele><time>2026-03-29T13:56:32Z</time></trkpt><trkpt lat="50.22191467866031" lon="5.243133822704235"><ele>263.2857142857143</ele><time>2026-03-29T13:56:39Z</time></trkpt><trkpt lat="50.22195929858947" lon="5.2432091261178275"><ele>263.42857142857144</ele><time>2026-03-29T13:56:44Z</time></trkpt><trkpt lat="50.22199655626931" lon="5.243290296438524"><ele>263.57142857142856</ele><time>2026-03-29T13:56:50Z</time></trkpt><trkpt lat="50.22203171273858" lon="5.24339118714089"><ele>263.7142857142857</ele><time>2026-03-29T13:56:56Z</time></trkpt><trkpt lat="50.22207408400112" lon="5.243469170653595"><ele>263.85714285714283</ele><time>2026-03-29T13:57:02Z</time></trkpt><trkpt lat="50.22208643104336" lon="5.243569060935643"><ele>264.0</ele><time>2026-03-29T13:57:08Z</time></trkpt><trkpt lat="50.222130402519774" lon="5.243645722210021"><ele>264.0</ele><time>2026-03-29T13:57:15Z</time></trkpt><trkpt lat="50.22216556487533" lon="5.243755598803855"><ele>264.0</ele><time>2026-03-29T13:57:23Z</time></trkpt><trkpt lat="50.22218261114763" lon="5.243856222604887"><ele>264.0</ele><time>2026-03-29T13:57:31Z</time></trkpt><trkpt lat="50.22222413286391" lon="5.243949559410838"><ele>264.0</ele><time>2026-03-29T13:57:39Z</time></trkpt><trkpt lat="50.22224874449743" lon="5.244058574040093"><ele>264.0</ele><time>2026-03-29T13:57:46Z</time></trkpt><trkpt lat="50.22227994429067" lon="5.244147898723602"><ele>264.0</ele><time>2026-03-29T13:57:52Z</time></trkpt><trkpt lat="50.22232522186147" lon="5.244220075617074"><ele>264.0</ele><time>2026-03-29T13:57:57Z</time></trkpt><trkpt lat="50.22237052062402" lon="5.244299849370587"><ele>263.85714285714283</ele><time>2026-03-29T13:58:02Z</time></trkpt><trkpt lat="50.222410500207936" lon="5.244394070747091"><ele>263.7142857142857</ele><time>2026-03-29T13:58:07Z</time></trkpt><trkpt lat="50.22245551179184" lon="5.244477640319014"><ele>263.57142857142856</ele><time>2026-03-29T13:58:13Z</time></trkpt><trkpt lat="50.22249677579227" lon="5.244580221576967"><ele>263.42857142857144</ele><time>2026-03-29T13:58:20Z</time></trkpt><trkpt lat="50.22252512459189" lon="5.244678172284993"><ele>263.2857142857143</ele><time>2026-03-29T13:58:30Z</time></trkpt><trkpt lat="50.2225412893036" lon="5.244782222955595"><ele>263.1428571428571</ele><time>2026-03-29T13:58:43Z</time></trkpt><trkpt lat="50.222574152947566" lon="5.24487492951651"><ele>263.0</ele><time>2026-03-29T13:58:50Z</time></trkpt><trkpt lat="50.22261669137458" lon="5.244951579412538"><ele>263.42857142857144</ele><time>2026-03-29T13:58:56Z</time></trkpt><trkpt lat="50.22266101473635" lon="5.2450253271040195"><ele>263.85714285714283</ele><time>2026-03-29T13:59:03Z</time></trkpt><trkpt lat="50.22270222892755" lon="5.245121139401296"><ele>264.2857142857143</ele><time>2026-03-29T13:59:09Z</time></trkpt><trkpt lat="50.22274396003884" lon="5.245195659844747"><ele>264.7142857142857</ele><time>2026-03-29T13:59:14Z</time></trkpt><trkpt lat="50.22278500593711" lon="5.245283377093245"><ele>265.1428571428571</ele><time>2026-03-29T13:59:20Z</time></trkpt><trkpt lat="50.22280637951454" lon="5.245394357851516"><ele>265.57142857142856</ele><time>2026-03-29T13:59:27Z</time></trkpt><trkpt lat="50.222847497346486" lon="5.245484614770751"><ele>266.0</ele><time>2026-03-29T13:59:32Z</time></trkpt><trkpt lat="50.22287242636442" lon="5.2455785492408165"><ele>266.2857142857143</ele><time>2026-03-29T13:59:37Z</time></trkpt><trkpt lat="50.22291346614372" lon="5.245670265594974"><ele>266.57142857142856</ele><time>2026-03-29T13:59:43Z</time></trkpt><trkpt lat="50.22294302093697" lon="5.245761844190854"><ele>266.8571428571429</ele><time>2026-03-29T13:59:50Z</time></trkpt><trkpt lat="50.22297451676327" lon="5.24586316559113"><ele>267.1428571428571</ele><time>2026-03-29T13:59:58Z</time></trkpt><trkpt lat="50.22301253396189" lon="5.2459480656281"><ele>267.42857142857144</ele><time>2026-03-29T14:00:04Z</time></trkpt><trkpt lat="50.22303660508994" lon="5.246041397591588"><ele>267.7142857142857</ele><time>2026-03-29T14:00:11Z</time></trkpt><trkpt lat="50.22307050340184" lon="5.24612992930637"><ele>268.0</ele><time>2026-03-29T14:00:17Z</time></trkpt><trkpt lat="50.22310314974073" lon="5.246235879712568"><ele>268.0</ele><time>2026-03-29T14:00:24Z</time></trkpt><trkpt lat="50.22313734825556" lon="5.246331201596383"><ele>268.0</ele><time>2026-03-29T14:00:30Z</time></trkpt><trkpt lat="50.22317981965175" lon="5.246406894224964"><ele>268.0</ele><time>2026-03-29T14:00:36Z</time></trkpt><trkpt lat="50.22321569832351" lon="5.246497654118645"><ele>268.0</ele><time>2026-03-29T14:00:43Z</time></trkpt><trkpt lat="50.223259116020856" lon="5.246584684295425"><ele>268.0</ele><time>2026-03-29T14:00:49Z</time></trkpt><trkpt lat="50.22328717832608" lon="5.246676051899971"><ele>268.0</ele><time>2026-03-29T14:00:54Z</time></trkpt><trkpt lat="50.223314815591436" lon="5.246768107869932"><ele>268.0</ele><time>2026-03-29T14:01:00Z</time></trkpt><trkpt lat="50.22334787152376" lon="5.246852903580359"><ele>267.8571428571429</ele><time>2026-03-29T14:01:06Z</time></trkpt><trkpt lat="50.22337485634845" lon="5.246961001447942"><ele>267.7142857142857</ele><time>2026-03-29T14:01:13Z</time></trkpt><trkpt lat="50.223421424365355" lon="5.247045225864541"><ele>267.57142857142856</ele><time>2026-03-29T14:01:18Z</time></trkpt><trkpt lat="50.223467036091485" lon="5.247138244424053"><ele>267.42857142857144</ele><time>2026-03-29T14:01:25Z</time></trkpt><trkpt lat="50.223484463430445" lon="5.2472452029477905"><ele>267.2857142857143</ele><time>2026-03-29T14:01:32Z</time></trkpt><trkpt lat="50.22350578246066" lon="5.247346504150865"><ele>267.14285714285717</ele><time>2026-03-29T14:01:40Z</time></trkpt><trkpt lat="50.223544111917185" lon="5.247432944530407"><ele>267.0</ele><time>2026-03-29T14:01:48Z</time></trkpt><trkpt lat="50.22359038419448" lon="5.247507315690557"><ele>267.00000000000006</ele><time>2026-03-29T14:01:52Z</time></trkpt><trkpt lat="50.22361629129399" lon="5.247603726336403"><ele>267.0</ele><time>2026-03-29T14:01:58Z</time></trkpt><trkpt lat="50.223665653211825" lon="5.247677494018409"><ele>267.0</ele><time>2026-03-29T14:02:05Z</time></trkpt><trkpt lat="50.22368557969683" lon="5.247779934305217"><ele>267.0</ele><time>2026-03-29T14:02:13Z</time></trkpt><trkpt lat="50.223718663091546" lon="5.247880256044587"><ele>267.0</ele><time>2026-03-29T14:02:21Z</time></trkpt><trkpt lat="50.22375697271425" lon="5.24798752446874"><ele>267.00000000000006</ele><time>2026-03-29T14:02:31Z</time></trkpt><trkpt lat="50.2237967845727" lon="5.248071778619664"><ele>267.0</ele><time>2026-03-29T14:02:38Z</time></trkpt><trkpt lat="50.223828860028796" lon="5.248170500871139"><ele>266.8571428571429</ele><time>2026-03-29T14:02:46Z</time></trkpt><trkpt lat="50.22387282526246" lon="5.248242989396551"><ele>266.7142857142857</ele><time>2026-03-29T14:02:51Z</time></trkpt><trkpt lat="50.2238987406205" lon="5.248345141373917"><ele>266.57142857142856</ele><time>2026-03-29T14:02:57Z</time></trkpt><trkpt lat="50.22392595790132" lon="5.248442129741653"><ele>266.42857142857144</ele><time>2026-03-29T14:03:03Z</time></trkpt><trkpt lat="50.22396567148868" lon="5.248521277896845"><ele>266.2857142857143</ele><time>2026-03-29T14:03:10Z</time></trkpt><trkpt lat="50.224003656444786" lon="5.2486020361236525"><ele>266.14285714285717</ele><time>2026-03-29T14:03:16Z</time></trkpt><trkpt lat="50.22402661381798" lon="5.248693786634732"><ele>266.0</ele><time>2026-03-29T14:03:34Z</time></trkpt><trkpt lat="50.22404259472462" lon="5.248789059284891"><ele>265.85714285714283</ele><time>2026-03-29T14:03:46Z</time></trkpt><trkpt lat="50.22408522825492" lon="5.248884266934894"><ele>265.7142857142857</ele><time>2026-03-29T14:03:54Z</time></trkpt><trkpt lat="50.22412690782542" lon="5.248970928763342"><ele>265.57142857142856</ele><time>2026-03-29T14:04:01Z</time></trkpt><trkpt lat="50.22415512594711" lon="5.249067931564416"><ele>265.42857142857144</ele><time>2026-03-29T14:04:08Z</time></trkpt><trkpt lat="50.22420315733659" lon="5.249147408699823"><ele>265.2857142857143</ele><time>2026-03-29T14:04:15Z</time></trkpt><trkpt lat="50.22423956052502" lon="5.2492336543255105"><ele>265.1428571428571</ele><time>2026-03-29T14:04:22Z</time></trkpt><trkpt lat="50.22427990832426" lon="5.249316711647643"><ele>265.0</ele><time>2026-03-29T14:04:29Z</time></trkpt><trkpt lat="50.2243117611424" lon="5.249406507039068"><ele>264.99999999999994</ele><time>2026-03-29T14:04:35Z</time></trkpt><trkpt lat="50.224336032193186" lon="5.249497450313275"><ele>265.0</ele><time>2026-03-29T14:04:44Z</time></trkpt><trkpt lat="50.22435376884397" lon="5.249605526972357"><ele>265.0</ele><time>2026-03-29T14:04:51Z</time></trkpt><trkpt lat="50.224374791740715" lon="5.249717578177594"><ele>265.0</ele><time>2026-03-29T14:04:58Z</time></trkpt><trkpt lat="50.2244170890057" lon="5.24981108014435"><ele>265.0</ele><time>2026-03-29T14:05:04Z</time></trkpt><trkpt lat="50.2244466672633" lon="5.249925518684025"><ele>264.99999999999994</ele><time>2026-03-29T14:05:11Z</time></trkpt><trkpt lat="50.22448659086189" lon="5.250022708449655"><ele>265.0</ele><time>2026-03-29T14:05:18Z</time></trkpt><trkpt lat="50.22455124735468" lon="5.2500675799317005"><ele>264.99999999999994</ele><time>2026-03-29T14:05:28Z</time></trkpt><trkpt lat="50.224606810826145" lon="5.250127362165758"><ele>265.0</ele><time>2026-03-29T14:05:35Z</time></trkpt><trkpt lat="50.22461740232737" lon="5.250232644252567"><ele>265.0</ele><time>2026-03-29T14:05:45Z</time></trkpt><trkpt lat="50.22463831470849" lon="5.250334793129664"><ele>265.0</ele><time>2026-03-29T14:05:54Z</time></trkpt><trkpt lat="50.22466773755356" lon="5.250434369047137"><ele>265.0</ele><time>2026-03-29T14:06:01Z</time></trkpt><trkpt lat="50.22471160448679" lon="5.250509942942156"><ele>264.99999999999994</ele><time>2026-03-29T14:06:07Z</time></trkpt><trkpt lat="50.22475111801234" lon="5.250588119805127"><ele>265.0</ele><time>2026-03-29T14:06:14Z</time></trkpt><trkpt lat="50.22479369087219" lon="5.250663016644601"><ele>264.85714285714283</ele><time>2026-03-29T14:06:21Z</time></trkpt><trkpt lat="50.22482793204688" lon="5.250749690079335"><ele>264.7142857142857</ele><time>2026-03-29T14:06:27Z</time></trkpt><trkpt lat="50.22485794345046" lon="5.250844133710919"><ele>264.57142857142856</ele><time>2026-03-29T14:06:36Z</time></trkpt><trkpt lat="50.224878133943946" lon="5.250954794625818"><ele>264.42857142857144</ele><time>2026-03-29T14:06:46Z</time></trkpt><trkpt lat="50.22488871653736" lon="5.251056109826176"><ele>264.2857142857143</ele><time>2026-03-29T14:06:52Z</time></trkpt><trkpt lat="50.22493492974219" lon="5.25113782818799"><ele>264.1428571428571</ele><time>2026-03-29T14:06:59Z</time></trkpt><trkpt lat="50.224979500281954" lon="5.251209371413345"><ele>264.0</ele><time>2026-03-29T14:07:04Z</time></trkpt><trkpt lat="50.225023203549085" lon="5.25129156984583"><ele>264.0</ele><time>2026-03-29T14:07:13Z</time></trkpt><trkpt lat="50.22507465743322" lon="5.251372001055495"><ele>264.0</ele><time>2026-03-29T14:07:19Z</time></trkpt><trkpt lat="50.22510719579634" lon="5.251476859065832"><ele>264.0</ele><time>2026-03-29T14:07:26Z</time></trkpt><trkpt lat="50.22516762945909" lon="5.251569143711738"><ele>264.0</ele><time>2026-03-29T14:07:33Z</time></trkpt><trkpt lat="50.22520892646773" lon="5.251649415617173"><ele>264.0</ele><time>2026-03-29T14:07:39Z</time></trkpt><trkpt lat="50.22526152949142" lon="5.251715201874382"><ele>264.0</ele><time>2026-03-29T14:07:50Z</time></trkpt><trkpt lat="50.22529856248123" lon="5.251802287246029"><ele>264.0</ele><time>2026-03-29T14:07:57Z</time></trkpt><trkpt lat="50.225336717118836" lon="5.251902443155597"><ele>264.0</ele><time>2026-03-29T14:08:04Z</time></trkpt><trkpt lat="50.22536243513313" lon="5.251993791373043"><ele>264.0</ele><time>2026-03-29T14:08:10Z</time></trkpt><trkpt lat="50.22540922251552" lon="5.252085567014913"><ele>264.0</ele><time>2026-03-29T14:08:17Z</time></trkpt><trkpt lat="50.22545120061747" lon="5.252167237591279"><ele>264.0</ele><time>2026-03-29T14:08:23Z</time></trkpt><trkpt lat="50.225487511639365" lon="5.252249662392289"><ele>264.0</ele><time>2026-03-29T14:08:31Z</time></trkpt><trkpt lat="50.22553591565379" lon="5.252322216772653"><ele>264.0</ele><time>2026-03-29T14:08:36Z</time></trkpt><trkpt lat="50.225560884128974" lon="5.25242078518639"><ele>264.0</ele><time>2026-03-29T14:08:44Z</time></trkpt><trkpt lat="50.22558599452532" lon="5.252523913489185"><ele>264.0</ele><time>2026-03-29T14:08:50Z</time></trkpt><trkpt lat="50.22563034705376" lon="5.252618181435385"><ele>264.0</ele><time>2026-03-29T14:08:58Z</time></trkpt><trkpt lat="50.22567049503224" lon="5.252699776443209"><ele>264.0</ele><time>2026-03-29T14:09:03Z</time></trkpt><trkpt lat="50.22571849031349" lon="5.252792616239926"><ele>264.0</ele><time>2026-03-29T14:09:09Z</time></trkpt><trkpt lat="50.225755467478145" lon="5.252876005170279"><ele>264.0</ele><time>2026-03-29T14:09:15Z</time></trkpt><trkpt lat="50.225779921748135" lon="5.252979938697796"><ele>264.0</ele><time>2026-03-29T14:09:22Z</time></trkpt><trkpt lat="50.225817241566595" lon="5.253073546794215"><ele>264.0</ele><time>2026-03-29T14:09:28Z</time></trkpt><trkpt lat="50.22583443938149" lon="5.2531806348917796"><ele>263.7142857142857</ele><time>2026-03-29T14:09:35Z</time></trkpt><trkpt lat="50.22587121152904" lon="5.2532961725672"><ele>263.42857142857144</ele><time>2026-03-29T14:09:42Z</time></trkpt><trkpt lat="50.22590306861201" lon="5.253386609926267"><ele>263.14285714285717</ele><time>2026-03-29T14:09:49Z</time></trkpt><trkpt lat="50.22593706547303" lon="5.253477347382458"><ele>262.8571428571429</ele><time>2026-03-29T14:09:56Z</time></trkpt><trkpt lat="50.22594659961387" lon="5.253576813515367"><ele>262.5714285714286</ele><time>2026-03-29T14:10:02Z</time></trkpt><trkpt lat="50.225951288726236" lon="5.253681311398781"><ele>262.2857142857143</ele><time>2026-03-29T14:10:09Z</time></trkpt><trkpt lat="50.225981395091985" lon="5.25376998138856"><ele>262.0</ele><time>2026-03-29T14:10:15Z</time></trkpt><trkpt lat="50.22600720654239" lon="5.253860154999388"><ele>262.2857142857143</ele><time>2026-03-29T14:10:20Z</time></trkpt><trkpt lat="50.22603670192939" lon="5.253956823248112"><ele>262.5714285714286</ele><time>2026-03-29T14:10:28Z</time></trkpt><trkpt lat="50.226063614278836" lon="5.254060619546338"><ele>262.8571428571429</ele><time>2026-03-29T14:10:35Z</time></trkpt><trkpt lat="50.226089234373994" lon="5.254157502073127"><ele>263.14285714285717</ele><time>2026-03-29T14:10:41Z</time></trkpt><trkpt lat="50.22611505869793" lon="5.254250420210149"><ele>263.42857142857144</ele><time>2026-03-29T14:10:46Z</time></trkpt><trkpt lat="50.22613975663227" lon="5.254346353460628"><ele>263.7142857142857</ele><time>2026-03-29T14:10:53Z</time></trkpt><trkpt lat="50.22618126221745" lon="5.254446663970827"><ele>264.0</ele><time>2026-03-29T14:11:02Z</time></trkpt><trkpt lat="50.22622077981034" lon="5.254546178366209"><ele>264.0</ele><time>2026-03-29T14:11:07Z</time></trkpt><trkpt lat="50.22626371247693" lon="5.254624170487624"><ele>264.0</ele><time>2026-03-29T14:11:12Z</time></trkpt><trkpt lat="50.226310515978724" lon="5.254713089715043"><ele>264.0</ele><time>2026-03-29T14:11:18Z</time></trkpt><trkpt lat="50.22634419647554" lon="5.254808263015867"><ele>264.0</ele><time>2026-03-29T14:11:23Z</time></trkpt><trkpt lat="50.226354161063114" lon="5.254917795979485"><ele>264.0</ele><time>2026-03-29T14:11:31Z</time></trkpt><trkpt lat="50.226377524699224" lon="5.255021352988411"><ele>264.0</ele><time>2026-03-29T14:11:37Z</time></trkpt><trkpt lat="50.226393751283155" lon="5.255117891460033"><ele>264.0</ele><time>2026-03-29T14:11:43Z</time></trkpt><trkpt lat="50.22642444019807" lon="5.255210218656472"><ele>264.0</ele><time>2026-03-29T14:11:50Z</time></trkpt><trkpt lat="50.22643631864431" lon="5.2553075913397596"><ele>264.0</ele><time>2026-03-29T14:11:55Z</time></trkpt><trkpt lat="50.22646598153473" lon="5.255398342932958"><ele>264.0</ele><time>2026-03-29T14:12:02Z</time></trkpt><trkpt lat="50.22647991736325" lon="5.255510842453077"><ele>264.0</ele><time>2026-03-29T14:12:09Z</time></trkpt><trkpt lat="50.226523011485824" lon="5.255590494596814"><ele>264.0</ele><time>2026-03-29T14:12:15Z</time></trkpt><trkpt lat="50.22651969577579" lon="5.255689383646919"><ele>264.0</ele><time>2026-03-29T14:12:22Z</time></trkpt><trkpt lat="50.22654907378141" lon="5.25578981382967"><ele>264.0</ele><time>2026-03-29T14:12:28Z</time></trkpt><trkpt lat="50.22657863111522" lon="5.255881336690471"><ele>263.85714285714283</ele><time>2026-03-29T14:12:35Z</time></trkpt><trkpt lat="50.22660013226575" lon="5.255993512680084"><ele>263.7142857142857</ele><time>2026-03-29T14:12:42Z</time></trkpt><trkpt lat="50.22661795048635" lon="5.2561009901751135"><ele>263.57142857142856</ele><time>2026-03-29T14:12:49Z</time></trkpt><trkpt lat="50.22666194158265" lon="5.256180075489544"><ele>263.42857142857144</ele><time>2026-03-29T14:12:55Z</time></trkpt><trkpt lat="50.226681082477164" lon="5.256276357185252"><ele>263.2857142857143</ele><time>2026-03-29T14:13:01Z</time></trkpt><trkpt lat="50.226700805319105" lon="5.256374553029969"><ele>263.1428571428571</ele><time>2026-03-29T14:13:08Z</time></trkpt><trkpt lat="50.226737910064145" lon="5.256474955506265"><ele>263.0</ele><time>2026-03-29T14:13:15Z</time></trkpt><trkpt lat="50.22677407291234" lon="5.256567435493397"><ele>263.0</ele><time>2026-03-29T14:13:23Z</time></trkpt><trkpt lat="50.2268004048395" lon="5.256665569156277"><ele>263.0</ele><time>2026-03-29T14:13:29Z</time></trkpt><trkpt lat="50.22679503584701" lon="5.256765333241265"><ele>263.0</ele><time>2026-03-29T14:13:38Z</time></trkpt><trkpt lat="50.22681717412094" lon="5.256865849147457"><ele>263.0</ele><time>2026-03-29T14:13:45Z</time></trkpt><trkpt lat="50.226844393280956" lon="5.256964156528052"><ele>263.0</ele><time>2026-03-29T14:13:52Z</time></trkpt><trkpt lat="50.22687924093803" lon="5.257071478331367"><ele>263.0</ele><time>2026-03-29T14:13:59Z</time></trkpt><trkpt lat="50.22692491497098" lon="5.257169820408359"><ele>263.0</ele><time>2026-03-29T14:14:04Z</time></trkpt><trkpt lat="50.22695609328503" lon="5.25726105940699"><ele>262.57142857142856</ele><time>2026-03-29T14:14:09Z</time></trkpt><trkpt lat="50.226965662936266" lon="5.257361224649261"><ele>262.1428571428571</ele><time>2026-03-29T14:14:17Z</time></trkpt><trkpt lat="50.22696490032227" lon="5.257464464393239"><ele>261.7142857142857</ele><time>2026-03-29T14:14:25Z</time></trkpt><trkpt lat="50.22695057997527" lon="5.257606416860911"><ele>261.2857142857143</ele><time>2026-03-29T14:15:20Z</time></trkpt><trkpt lat="50.22699093894018" lon="5.257686497132481"><ele>260.8571428571429</ele><time>2026-03-29T14:18:55Z</time></trkpt><trkpt lat="50.22700384320042" lon="5.257787648350754"><ele>260.42857142857144</ele><time>2026-03-29T14:19:07Z</time></trkpt><trkpt lat="50.22697441316539" lon="5.257880503631698"><ele>260.0</ele><time>2026-03-29T14:19:15Z</time></trkpt><trkpt lat="50.22695874096062" lon="5.257981627045639"><ele>260.00000000000006</ele><time>2026-03-29T14:19:22Z</time></trkpt><trkpt lat="50.22693627618134" lon="5.258075468387022"><ele>260.0</ele><time>2026-03-29T14:19:28Z</time></trkpt><trkpt lat="50.22691525588751" lon="5.2581830434982395"><ele>260.0</ele><time>2026-03-29T14:19:35Z</time></trkpt><trkpt lat="50.22689163678862" lon="5.258276275855048"><ele>260.0</ele><time>2026-03-29T14:19:44Z</time></trkpt><trkpt lat="50.22688860492557" lon="5.25838708533334"><ele>260.0</ele><time>2026-03-29T14:19:53Z</time></trkpt><trkpt lat="50.22685375990866" lon="5.25847168333799"><ele>260.00000000000006</ele><time>2026-03-29T14:20:00Z</time></trkpt><trkpt lat="50.22682553038319" lon="5.258580131584237"><ele>260.0</ele><time>2026-03-29T14:20:06Z</time></trkpt><trkpt lat="50.226796577767615" lon="5.258685549794672"><ele>259.7142857142857</ele><time>2026-03-29T14:20:12Z</time></trkpt><trkpt lat="50.22675507380048" lon="5.258762990365158"><ele>259.42857142857144</ele><time>2026-03-29T14:20:19Z</time></trkpt><trkpt lat="50.226752562197376" lon="5.258870765415477"><ele>259.1428571428571</ele><time>2026-03-29T14:20:26Z</time></trkpt><trkpt lat="50.22673584509761" lon="5.258984393969992"><ele>258.8571428571429</ele><time>2026-03-29T14:20:31Z</time></trkpt><trkpt lat="50.22672504569931" lon="5.259086376078986"><ele>258.57142857142856</ele><time>2026-03-29T14:20:36Z</time></trkpt><trkpt lat="50.22670562078291" lon="5.259192412294098"><ele>258.2857142857143</ele><time>2026-03-29T14:20:43.999Z</time></trkpt><trkpt lat="50.22668898345668" lon="5.259287581762853"><ele>258.0</ele><time>2026-03-29T14:20:48Z</time></trkpt><trkpt lat="50.226661271541005" lon="5.259384955348534"><ele>257.85714285714283</ele><time>2026-03-29T14:20:54Z</time></trkpt><trkpt lat="50.22664393140183" lon="5.259492258619844"><ele>257.7142857142857</ele><time>2026-03-29T14:20:59Z</time></trkpt><trkpt lat="50.226654687405976" lon="5.259597896184746"><ele>257.57142857142856</ele><time>2026-03-29T14:21:06Z</time></trkpt><trkpt lat="50.22672169494812" lon="5.259608650676095"><ele>257.42857142857144</ele><time>2026-03-29T14:21:13Z</time></trkpt><trkpt lat="50.22678917733232" lon="5.259626752178893"><ele>257.2857142857143</ele><time>2026-03-29T14:21:20Z</time></trkpt><trkpt lat="50.22685928926617" lon="5.259621981876237"><ele>257.1428571428571</ele><time>2026-03-29T14:21:27Z</time></trkpt><trkpt lat="50.226927274582096" lon="5.2596347256408045"><ele>257.0</ele><time>2026-03-29T14:21:34Z</time></trkpt><trkpt lat="50.22700189054732" lon="5.259628835716812"><ele>257.0</ele><time>2026-03-29T14:21:42Z</time></trkpt><trkpt lat="50.2270657552477" lon="5.259625131848822"><ele>257.0</ele><time>2026-03-29T14:21:47Z</time></trkpt><trkpt lat="50.22713075842586" lon="5.2596670806752694"><ele>257.0</ele><time>2026-03-29T14:21:53Z</time></trkpt><trkpt lat="50.22720007305798" lon="5.259664022667093"><ele>257.0</ele><time>2026-03-29T14:22:02Z</time></trkpt><trkpt lat="50.22726646369231" lon="5.259682457674449"><ele>257.0</ele><time>2026-03-29T14:22:08Z</time></trkpt><trkpt lat="50.22732445901408" lon="5.259722935393877"><ele>257.0</ele><time>2026-03-29T14:22:14Z</time></trkpt><trkpt lat="50.22739493645766" lon="5.259728457310639"><ele>257.0</ele><time>2026-03-29T14:22:20.999Z</time></trkpt><trkpt lat="50.22745856516518" lon="5.259729241521569"><ele>257.2857142857143</ele><time>2026-03-29T14:22:26.999Z</time></trkpt><trkpt lat="50.227521700773565" lon="5.259744037405876"><ele>257.57142857142856</ele><time>2026-03-29T14:22:34.999Z</time></trkpt><trkpt lat="50.22758874001431" lon="5.259763354174773"><ele>257.8571428571429</ele><time>2026-03-29T14:22:39.999Z</time></trkpt><trkpt lat="50.22766151710107" lon="5.259756672102664"><ele>258.1428571428571</ele><time>2026-03-29T14:22:46.999Z</time></trkpt><trkpt lat="50.22772234640603" lon="5.259782303689581"><ele>258.42857142857144</ele><time>2026-03-29T14:22:53Z</time></trkpt><trkpt lat="50.22778957065336" lon="5.25979326777248"><ele>258.7142857142857</ele><time>2026-03-29T14:23:00Z</time></trkpt><trkpt lat="50.227851949919106" lon="5.2598555967601985"><ele>259.0</ele><time>2026-03-29T14:23:08Z</time></trkpt><trkpt lat="50.22790287979565" lon="5.2599240356197665"><ele>259.0</ele><time>2026-03-29T14:23:14Z</time></trkpt><trkpt lat="50.22797626394955" lon="5.259951021016472"><ele>259.0</ele><time>2026-03-29T14:23:22Z</time></trkpt><trkpt lat="50.228021531826556" lon="5.2600255239178555"><ele>259.0</ele><time>2026-03-29T14:23:29Z</time></trkpt><trkpt lat="50.22808076569002" lon="5.260075735902213"><ele>259.0</ele><time>2026-03-29T14:23:36Z</time></trkpt><trkpt lat="50.228138267321214" lon="5.260132594805959"><ele>259.0</ele><time>2026-03-29T14:23:42Z</time></trkpt><trkpt lat="50.22820089808815" lon="5.260153932211925"><ele>259.0</ele><time>2026-03-29T14:23:50Z</time></trkpt><trkpt lat="50.228268913564285" lon="5.260171695594132"><ele>259.0</ele><time>2026-03-29T14:23:57Z</time></trkpt><trkpt lat="50.228325007246475" lon="5.26022166975789"><ele>259.85714285714283</ele><time>2026-03-29T14:24:05Z</time></trkpt><trkpt lat="50.228384174471145" lon="5.260261766718453"><ele>260.7142857142857</ele><time>2026-03-29T14:24:12.999Z</time></trkpt><trkpt lat="50.22845404454457" lon="5.260305926143503"><ele>261.57142857142856</ele><time>2026-03-29T14:24:20.999Z</time></trkpt><trkpt lat="50.22850785567107" lon="5.2603592020234"><ele>262.42857142857144</ele><time>2026-03-29T14:24:26.999Z</time></trkpt><trkpt lat="50.228576642352536" lon="5.2604106265721615"><ele>263.2857142857143</ele><time>2026-03-29T14:24:34.999Z</time></trkpt><trkpt lat="50.22863387843459" lon="5.260469417993087"><ele>264.1428571428571</ele><time>2026-03-29T14:24:41.999Z</time></trkpt><trkpt lat="50.22870101404811" lon="5.260501883761672"><ele>265.0</ele><time>2026-03-29T14:24:48.999Z</time></trkpt><trkpt lat="50.22876685915053" lon="5.260519855337989"><ele>264.99999999999994</ele><time>2026-03-29T14:24:54.999Z</time></trkpt><trkpt lat="50.228824088733155" lon="5.26056795502163"><ele>265.0</ele><time>2026-03-29T14:25:02Z</time></trkpt><trkpt lat="50.2288753568682" lon="5.260638519363727"><ele>265.0</ele><time>2026-03-29T14:25:09Z</time></trkpt><trkpt lat="50.22893446103613" lon="5.260693298094834"><ele>265.0</ele><time>2026-03-29T14:25:16Z</time></trkpt><trkpt lat="50.229006126500856" lon="5.2607088968454665"><ele>265.0</ele><time>2026-03-29T14:25:22Z</time></trkpt><trkpt lat="50.2290745905612" lon="5.260753599232926"><ele>264.99999999999994</ele><time>2026-03-29T14:25:29Z</time></trkpt><trkpt lat="50.229141562873814" lon="5.260810181778189"><ele>265.0</ele><time>2026-03-29T14:25:37Z</time></trkpt><trkpt lat="50.22921276302206" lon="5.260851300604871"><ele>265.2857142857143</ele><time>2026-03-29T14:25:43Z</time></trkpt><trkpt lat="50.229280240459296" lon="5.2608927312700215"><ele>265.57142857142856</ele><time>2026-03-29T14:25:50Z</time></trkpt><trkpt lat="50.22933761988388" lon="5.260934043616876"><ele>265.8571428571429</ele><time>2026-03-29T14:25:56.999Z</time></trkpt><trkpt lat="50.22939775871694" lon="5.260977337230419"><ele>266.1428571428571</ele><time>2026-03-29T14:26:01.999Z</time></trkpt><trkpt lat="50.22946218542728" lon="5.261024995382615"><ele>266.42857142857144</ele><time>2026-03-29T14:26:09.999Z</time></trkpt><trkpt lat="50.229516050411696" lon="5.261077438615752"><ele>266.7142857142857</ele><time>2026-03-29T14:26:15.999Z</time></trkpt><trkpt lat="50.2295792757994" lon="5.261138370780836"><ele>267.0</ele><time>2026-03-29T14:26:21.999Z</time></trkpt><trkpt lat="50.22962358123574" lon="5.261209690919683"><ele>267.00000000000006</ele><time>2026-03-29T14:26:28.999Z</time></trkpt><trkpt lat="50.22969093203939" lon="5.261237904888729"><ele>267.0</ele><time>2026-03-29T14:26:36.999Z</time></trkpt><trkpt lat="50.229742112399734" lon="5.261301584692932"><ele>267.0</ele><time>2026-03-29T14:26:43.999Z</time></trkpt><trkpt lat="50.229804653301635" lon="5.261352807370769"><ele>267.0</ele><time>2026-03-29T14:26:50.999Z</time></trkpt><trkpt lat="50.229859699739265" lon="5.261418141239927"><ele>267.0</ele><time>2026-03-29T14:27:01.999Z</time></trkpt><trkpt lat="50.22992317515172" lon="5.261464138092867"><ele>267.00000000000006</ele><time>2026-03-29T14:27:12Z</time></trkpt><trkpt lat="50.22997926273936" lon="5.261518921191147"><ele>267.0</ele><time>2026-03-29T14:27:19Z</time></trkpt><trkpt lat="50.23004167719919" lon="5.2615723463279105"><ele>267.14285714285717</ele><time>2026-03-29T14:27:27Z</time></trkpt><trkpt lat="50.23009590007696" lon="5.261635152555293"><ele>267.2857142857143</ele><time>2026-03-29T14:27:35Z</time></trkpt><trkpt lat="50.23016513673541" lon="5.261692648690676"><ele>267.42857142857144</ele><time>2026-03-29T14:27:41Z</time></trkpt><trkpt lat="50.23021614965339" lon="5.261752118042395"><ele>267.57142857142856</ele><time>2026-03-29T14:27:45Z</time></trkpt><trkpt lat="50.23027951383372" lon="5.261815525934248"><ele>267.7142857142857</ele><time>2026-03-29T14:27:51Z</time></trkpt><trkpt lat="50.23033829117944" lon="5.261877314470158"><ele>267.8571428571429</ele><time>2026-03-29T14:27:56.999Z</time></trkpt><trkpt lat="50.23039962902984" lon="5.26191966354897"><ele>268.0</ele><time>2026-03-29T14:28:02.999Z</time></trkpt><trkpt lat="50.23044375025122" lon="5.2619939802534965"><ele>268.0</ele><time>2026-03-29T14:28:08.999Z</time></trkpt><trkpt lat="50.23050222716143" lon="5.262048155311314"><ele>268.0</ele><time>2026-03-29T14:28:15.999Z</time></trkpt><trkpt lat="50.2305706208344" lon="5.262090521792687"><ele>268.0</ele><time>2026-03-29T14:28:23.999Z</time></trkpt><trkpt lat="50.23064075075445" lon="5.262138557677541"><ele>268.0</ele><time>2026-03-29T14:28:29.999Z</time></trkpt><trkpt lat="50.230691822714256" lon="5.262210847906507"><ele>268.0</ele><time>2026-03-29T14:28:39.999Z</time></trkpt><trkpt lat="50.23075113180064" lon="5.262272048021764"><ele>268.0</ele><time>2026-03-29T14:28:44.999Z</time></trkpt><trkpt lat="50.2307970471071" lon="5.262374313801029"><ele>268.0</ele><time>2026-03-29T14:28:49.999Z</time></trkpt><trkpt lat="50.23085190646049" lon="5.2624485245973975"><ele>267.8571428571429</ele><time>2026-03-29T14:28:54.999Z</time></trkpt><trkpt lat="50.23091624406586" lon="5.262500791941791"><ele>267.7142857142857</ele><time>2026-03-29T14:29:01.999Z</time></trkpt><trkpt lat="50.23097823839981" lon="5.262560718658591"><ele>267.57142857142856</ele><time>2026-03-29T14:29:09Z</time></trkpt><trkpt lat="50.23103125242545" lon="5.26261734903921"><ele>267.42857142857144</ele><time>2026-03-29T14:29:14Z</time></trkpt><trkpt lat="50.23108889787931" lon="5.262666391117924"><ele>267.2857142857143</ele><time>2026-03-29T14:29:20Z</time></trkpt><trkpt lat="50.231143429556404" lon="5.26271839476171"><ele>267.14285714285717</ele><time>2026-03-29T14:29:25Z</time></trkpt><trkpt lat="50.23119560733371" lon="5.262792270231795"><ele>267.0</ele><time>2026-03-29T14:29:32Z</time></trkpt><trkpt lat="50.23124282994013" lon="5.262857946470034"><ele>267.00000000000006</ele><time>2026-03-29T14:29:38Z</time></trkpt><trkpt lat="50.23130136434156" lon="5.262925196792543"><ele>267.0</ele><time>2026-03-29T14:29:44.999Z</time></trkpt><trkpt lat="50.23136213053928" lon="5.262993169053071"><ele>267.0</ele><time>2026-03-29T14:29:50.999Z</time></trkpt><trkpt lat="50.231430648707" lon="5.263051632593048"><ele>267.0</ele><time>2026-03-29T14:29:56.999Z</time></trkpt><trkpt lat="50.23148787849274" lon="5.26310434708865"><ele>267.0</ele><time>2026-03-29T14:30:01.999Z</time></trkpt><trkpt lat="50.23154882172058" lon="5.263164137423392"><ele>267.00000000000006</ele><time>2026-03-29T14:30:08.999Z</time></trkpt><trkpt lat="50.231594548989705" lon="5.263237136262577"><ele>267.0</ele><time>2026-03-29T14:30:15.999Z</time></trkpt><trkpt lat="50.23165236398646" lon="5.263278811427933"><ele>267.00000000000006</ele><time>2026-03-29T14:30:20.999Z</time></trkpt><trkpt lat="50.231698458378865" lon="5.263358085124265"><ele>267.0</ele><time>2026-03-29T14:30:27.999Z</time></trkpt><trkpt lat="50.23175263147678" lon="5.263414456989211"><ele>267.0</ele><time>2026-03-29T14:30:33.999Z</time></trkpt><trkpt lat="50.231814244327786" lon="5.263465674924769"><ele>267.0</ele><time>2026-03-29T14:30:38.999Z</time></trkpt><trkpt lat="50.23187107913816" lon="5.2635302985008385"><ele>267.0</ele><time>2026-03-29T14:30:45.999Z</time></trkpt><trkpt lat="50.23192855677782" lon="5.263592245567526"><ele>267.00000000000006</ele><time>2026-03-29T14:30:52.999Z</time></trkpt><trkpt lat="50.2319817009836" lon="5.263655411001395"><ele>267.0</ele><time>2026-03-29T14:30:58.999Z</time></trkpt><trkpt lat="50.23203021453541" lon="5.263733036949046"><ele>267.00000000000006</ele><time>2026-03-29T14:31:04.999Z</time></trkpt><trkpt lat="50.23208583899044" lon="5.263817409744281"><ele>267.0</ele><time>2026-03-29T14:31:11.999Z</time></trkpt><trkpt lat="50.232131981263684" lon="5.263886007242095"><ele>267.0</ele><time>2026-03-29T14:31:18Z</time></trkpt><trkpt lat="50.232190242476264" lon="5.263952168896313"><ele>267.0</ele><time>2026-03-29T14:31:25Z</time></trkpt><trkpt lat="50.23224507937168" lon="5.264016543851153"><ele>267.0</ele><time>2026-03-29T14:31:30Z</time></trkpt><trkpt lat="50.232288835821294" lon="5.264094152478213"><ele>267.00000000000006</ele><time>2026-03-29T14:31:36Z</time></trkpt><trkpt lat="50.232357023395394" lon="5.264100917732526"><ele>267.0</ele><time>2026-03-29T14:31:43Z</time></trkpt><trkpt lat="50.23242445764861" lon="5.264075355952124"><ele>267.14285714285717</ele><time>2026-03-29T14:31:48.999Z</time></trkpt><trkpt lat="50.23249091557275" lon="5.264119222956385"><ele>267.2857142857143</ele><time>2026-03-29T14:31:56.999Z</time></trkpt><trkpt lat="50.23255256529295" lon="5.264162471278425"><ele>267.42857142857144</ele><time>2026-03-29T14:32:03.999Z</time></trkpt><trkpt lat="50.23259170536939" lon="5.264253786119839"><ele>267.57142857142856</ele><time>2026-03-29T14:32:12.999Z</time></trkpt><trkpt lat="50.23264281577564" lon="5.264312218306526"><ele>267.7142857142857</ele><time>2026-03-29T14:32:19.999Z</time></trkpt><trkpt lat="50.23271148229965" lon="5.264386692716215"><ele>267.8571428571429</ele><time>2026-03-29T14:32:27.999Z</time></trkpt><trkpt lat="50.232779644021235" lon="5.26444596382614"><ele>268.0</ele><time>2026-03-29T14:32:32.999Z</time></trkpt><trkpt lat="50.23283754959049" lon="5.2644851038228015"><ele>268.0</ele><time>2026-03-29T14:32:37.999Z</time></trkpt><trkpt lat="50.23289970393076" lon="5.264535001522221"><ele>268.0</ele><time>2026-03-29T14:32:44.999Z</time></trkpt><trkpt lat="50.23294788040497" lon="5.264599457697729"><ele>268.0</ele><time>2026-03-29T14:32:55.999Z</time></trkpt><trkpt lat="50.23301836804688" lon="5.264660231050669"><ele>268.0</ele><time>2026-03-29T14:33:19Z</time></trkpt><trkpt lat="50.23307667391532" lon="5.264744086181228"><ele>268.0</ele><time>2026-03-29T14:33:30Z</time></trkpt><trkpt lat="50.233131021727104" lon="5.264806296272301"><ele>268.0</ele><time>2026-03-29T14:33:40Z</time></trkpt><trkpt lat="50.2331889707264" lon="5.264869257533525"><ele>268.0</ele><time>2026-03-29T14:33:47.999Z</time></trkpt><trkpt lat="50.233254520010185" lon="5.26489157558468"><ele>267.8571428571429</ele><time>2026-03-29T14:33:54.999Z</time></trkpt><trkpt lat="50.233314526739875" lon="5.264957162565116"><ele>267.7142857142857</ele><time>2026-03-29T14:34:01.999Z</time></trkpt><trkpt lat="50.233365959050985" lon="5.2650194961709245"><ele>267.57142857142856</ele><time>2026-03-29T14:34:07.999Z</time></trkpt><trkpt lat="50.23341878391588" lon="5.265086612658003"><ele>267.42857142857144</ele><time>2026-03-29T14:34:14.999Z</time></trkpt><trkpt lat="50.23347936229918" lon="5.265116105265371"><ele>267.2857142857143</ele><time>2026-03-29T14:34:20.999Z</time></trkpt><trkpt lat="50.23353051419744" lon="5.2651739779895275"><ele>267.14285714285717</ele><time>2026-03-29T14:34:25.999Z</time></trkpt><trkpt lat="50.23359622775817" lon="5.265207637288103"><ele>267.0</ele><time>2026-03-29T14:34:34.999Z</time></trkpt><trkpt lat="50.23365827957497" lon="5.2652754118512"><ele>267.00000000000006</ele><time>2026-03-29T14:34:44Z</time></trkpt><trkpt lat="50.23371358445694" lon="5.265327782601554"><ele>267.0</ele><time>2026-03-29T14:34:49Z</time></trkpt><trkpt lat="50.23377357441667" lon="5.265360504615166"><ele>267.0</ele><time>2026-03-29T14:34:54Z</time></trkpt><trkpt lat="50.23382119116502" lon="5.265428864014301"><ele>267.0</ele><time>2026-03-29T14:35:00Z</time></trkpt><trkpt lat="50.23387728729655" lon="5.265483003640026"><ele>267.0</ele><time>2026-03-29T14:35:07Z</time></trkpt><trkpt lat="50.23393650902246" lon="5.26553747214224"><ele>267.00000000000006</ele><time>2026-03-29T14:35:14Z</time></trkpt><trkpt lat="50.23399613311915" lon="5.26557696386297"><ele>267.0</ele><time>2026-03-29T14:35:21Z</time></trkpt><trkpt lat="50.2340640946328" lon="5.265611829069105"><ele>267.00000000000006</ele><time>2026-03-29T14:35:28.001Z</time></trkpt><trkpt lat="50.23411500953416" lon="5.265673143271998"><ele>267.0</ele><time>2026-03-29T14:35:41.001Z</time></trkpt><trkpt lat="50.234178965177655" lon="5.265718980671262"><ele>267.0</ele><time>2026-03-29T14:35:49Z</time></trkpt><trkpt lat="50.234232597840105" lon="5.2657781977661315"><ele>267.0</ele><time>2026-03-29T14:35:57Z</time></trkpt><trkpt lat="50.23428630749295" lon="5.265835049074574"><ele>267.0</ele><time>2026-03-29T14:36:02Z</time></trkpt><trkpt lat="50.23432646369802" lon="5.265915611416724"><ele>267.00000000000006</ele><time>2026-03-29T14:36:09Z</time></trkpt><trkpt lat="50.234362377979565" lon="5.2660089495719555"><ele>267.0</ele><time>2026-03-29T14:36:15Z</time></trkpt><trkpt lat="50.23442064960751" lon="5.266071037825231"><ele>267.00000000000006</ele><time>2026-03-29T14:36:21Z</time></trkpt><trkpt lat="50.23448272877963" lon="5.266109707973121"><ele>267.0</ele><time>2026-03-29T14:36:26Z</time></trkpt><trkpt lat="50.2345450737013" lon="5.266188111370806"><ele>267.0</ele><time>2026-03-29T14:36:34Z</time></trkpt><trkpt lat="50.234612800558565" lon="5.26623837609562"><ele>267.0</ele><time>2026-03-29T14:36:44Z</time></trkpt><trkpt lat="50.23465095636074" lon="5.266320999931208"><ele>267.0</ele><time>2026-03-29T14:36:52Z</time></trkpt><trkpt lat="50.2346994890113" lon="5.266398458436957"><ele>267.00000000000006</ele><time>2026-03-29T14:36:59Z</time></trkpt><trkpt lat="50.23474673745853" lon="5.266469315047095"><ele>267.0</ele><time>2026-03-29T14:37:06Z</time></trkpt><trkpt lat="50.234809196675336" lon="5.266494581944226"><ele>266.5714285714286</ele><time>2026-03-29T14:37:12Z</time></trkpt><trkpt lat="50.23486675142948" lon="5.266552939765133"><ele>266.14285714285717</ele><time>2026-03-29T14:37:19Z</time></trkpt><trkpt lat="50.234926815287" lon="5.26659035093948"><ele>265.7142857142857</ele><time>2026-03-29T14:37:26Z</time></trkpt><trkpt lat="50.23497667835272" lon="5.266658933279437"><ele>265.28571428571433</ele><time>2026-03-29T14:37:33.001Z</time></trkpt><trkpt lat="50.235034760236566" lon="5.26671549400248"><ele>264.8571428571429</ele><time>2026-03-29T14:37:39.001Z</time></trkpt><trkpt lat="50.23510546799079" lon="5.266767926805366"><ele>264.42857142857144</ele><time>2026-03-29T14:37:45Z</time></trkpt><trkpt lat="50.235170686387264" lon="5.266809902603407"><ele>264.0</ele><time>2026-03-29T14:37:52Z</time></trkpt><trkpt lat="50.23522062052458" lon="5.26687225534511"><ele>264.0</ele><time>2026-03-29T14:37:57Z</time></trkpt><trkpt lat="50.23528657754808" lon="5.26691438219815"><ele>264.0</ele><time>2026-03-29T14:38:02Z</time></trkpt><trkpt lat="50.23533921066813" lon="5.266983837088275"><ele>264.0</ele><time>2026-03-29T14:38:12Z</time></trkpt><trkpt lat="50.23540606842998" lon="5.266991135835437"><ele>264.0</ele><time>2026-03-29T14:38:29Z</time></trkpt><trkpt lat="50.23546743501665" lon="5.266944138097612"><ele>264.0</ele><time>2026-03-29T14:38:36Z</time></trkpt><trkpt lat="50.23553653664934" lon="5.26693817372002"><ele>264.0</ele><time>2026-03-29T14:38:46Z</time></trkpt><trkpt lat="50.23561318363893" lon="5.26692978931025"><ele>264.0</ele><time>2026-03-29T14:38:56Z</time></trkpt><trkpt lat="50.235668741047355" lon="5.266983558368264"><ele>263.85714285714283</ele><time>2026-03-29T14:39:03Z</time></trkpt><trkpt lat="50.23572709489203" lon="5.267026857333251"><ele>263.7142857142857</ele><time>2026-03-29T14:39:11Z</time></trkpt><trkpt lat="50.235793985291295" lon="5.267033771846764"><ele>263.57142857142856</ele><time>2026-03-29T14:39:23Z</time></trkpt><trkpt lat="50.235837872396054" lon="5.267119417794878"><ele>263.42857142857144</ele><time>2026-03-29T14:39:33Z</time></trkpt><trkpt lat="50.23589253685614" lon="5.267186291090798"><ele>263.2857142857143</ele><time>2026-03-29T14:39:43Z</time></trkpt><trkpt lat="50.235936539767295" lon="5.267266603318046"><ele>263.1428571428571</ele><time>2026-03-29T14:39:50Z</time></trkpt><trkpt lat="50.23598788953389" lon="5.267357092015939"><ele>263.0</ele><time>2026-03-29T14:39:58Z</time></trkpt><trkpt lat="50.23603289189387" lon="5.2674499778014185"><ele>263.0</ele><time>2026-03-29T14:40:11Z</time></trkpt><trkpt lat="50.23606985587229" lon="5.267542612148703"><ele>263.0</ele><time>2026-03-29T14:40:17Z</time></trkpt><trkpt lat="50.236116868829775" lon="5.267618260777123"><ele>263.0</ele><time>2026-03-29T14:40:22Z</time></trkpt><trkpt lat="50.23618345267966" lon="5.267683004233372"><ele>263.0</ele><time>2026-03-29T14:40:30Z</time></trkpt><trkpt lat="50.23624516169255" lon="5.26774701324527"><ele>263.0</ele><time>2026-03-29T14:40:37Z</time></trkpt><trkpt lat="50.236304763307636" lon="5.267814497622943"><ele>263.0</ele><time>2026-03-29T14:40:47Z</time></trkpt><trkpt lat="50.2363680992127" lon="5.26787471907039"><ele>263.0</ele><time>2026-03-29T14:40:54Z</time></trkpt><trkpt lat="50.23643490193357" lon="5.267903867264436"><ele>262.42857142857144</ele><time>2026-03-29T14:41:00Z</time></trkpt><trkpt lat="50.23650595498744" lon="5.267931290074631"><ele>261.85714285714283</ele><time>2026-03-29T14:41:10Z</time></trkpt><trkpt lat="50.23655642158267" lon="5.267992665878993"><ele>261.2857142857143</ele><time>2026-03-29T14:41:17Z</time></trkpt><trkpt lat="50.23660760314177" lon="5.2680649179969095"><ele>260.7142857142857</ele><time>2026-03-29T14:41:25Z</time></trkpt><trkpt lat="50.236659629531985" lon="5.268139875655305"><ele>260.1428571428571</ele><time>2026-03-29T14:41:32Z</time></trkpt><trkpt lat="50.236712426403564" lon="5.268212998076095"><ele>259.57142857142856</ele><time>2026-03-29T14:41:39Z</time></trkpt><trkpt lat="50.23676879770725" lon="5.268266989650023"><ele>259.0</ele><time>2026-03-29T14:41:47Z</time></trkpt><trkpt lat="50.23682597270094" lon="5.2683099078272875"><ele>259.0</ele><time>2026-03-29T14:41:55Z</time></trkpt><trkpt lat="50.23688117521739" lon="5.268372293740248"><ele>259.0</ele><time>2026-03-29T14:42:02Z</time></trkpt><trkpt lat="50.23694483252882" lon="5.268407120078874"><ele>259.0</ele><time>2026-03-29T14:42:08Z</time></trkpt><trkpt lat="50.23701174349413" lon="5.268440751074701"><ele>259.0</ele><time>2026-03-29T14:42:14Z</time></trkpt><trkpt lat="50.23707165728172" lon="5.268492887970472"><ele>259.0</ele><time>2026-03-29T14:42:22Z</time></trkpt><trkpt lat="50.23713370893355" lon="5.2685178528063"><ele>259.0</ele><time>2026-03-29T14:42:28Z</time></trkpt><trkpt lat="50.237204260071685" lon="5.268557308112532"><ele>259.0</ele><time>2026-03-29T14:42:35Z</time></trkpt><trkpt lat="50.23726359325317" lon="5.268598067166367"><ele>257.7142857142857</ele><time>2026-03-29T14:42:40Z</time></trkpt><trkpt lat="50.237329822108094" lon="5.268631773144735"><ele>256.42857142857144</ele><time>2026-03-29T14:42:48Z</time></trkpt><trkpt lat="50.23739721942601" lon="5.268683753892353"><ele>255.14285714285714</ele><time>2026-03-29T14:42:56Z</time></trkpt><trkpt lat="50.23745174764628" lon="5.268739598301761"><ele>253.85714285714286</ele><time>2026-03-29T14:43:02Z</time></trkpt><trkpt lat="50.23751472810955" lon="5.26877062081046"><ele>252.57142857142858</ele><time>2026-03-29T14:43:10Z</time></trkpt><trkpt lat="50.23758681914184" lon="5.2687992952914415"><ele>251.28571428571428</ele><time>2026-03-29T14:43:16Z</time></trkpt><trkpt lat="50.23765084903349" lon="5.268778559086622"><ele>250.0</ele><time>2026-03-29T14:43:23Z</time></trkpt><trkpt lat="50.23772337101298" lon="5.268788312612973"><ele>250.0</ele><time>2026-03-29T14:43:31Z</time></trkpt><trkpt lat="50.23779032918021" lon="5.268813325080434"><ele>250.0</ele><time>2026-03-29T14:43:39Z</time></trkpt><trkpt lat="50.23785969445699" lon="5.268781983827614"><ele>250.0</ele><time>2026-03-29T14:43:44Z</time></trkpt><trkpt lat="50.23792764083619" lon="5.268778089854322"><ele>250.0</ele><time>2026-03-29T14:43:50Z</time></trkpt><trkpt lat="50.23799648484729" lon="5.268779791738682"><ele>250.0</ele><time>2026-03-29T14:43:57Z</time></trkpt><trkpt lat="50.23806065160197" lon="5.268785438194625"><ele>250.0</ele><time>2026-03-29T14:44:02Z</time></trkpt><trkpt lat="50.238127222164366" lon="5.268789266883406"><ele>250.0</ele><time>2026-03-29T14:44:08Z</time></trkpt><trkpt lat="50.23819374222544" lon="5.26877789548998"><ele>249.0</ele><time>2026-03-29T14:44:14Z</time></trkpt><trkpt lat="50.238259649094935" lon="5.2687789835040695"><ele>248.0</ele><time>2026-03-29T14:44:22Z</time></trkpt><trkpt lat="50.23832863964896" lon="5.268785291119514"><ele>247.0</ele><time>2026-03-29T14:44:27Z</time></trkpt><trkpt lat="50.238398835721405" lon="5.268795583386783"><ele>246.0</ele><time>2026-03-29T14:44:34Z</time></trkpt><trkpt lat="50.23846779767999" lon="5.268802626303953"><ele>245.0</ele><time>2026-03-29T14:44:40Z</time></trkpt><trkpt lat="50.2385325349141" lon="5.268806087597003"><ele>244.0</ele><time>2026-03-29T14:44:46Z</time></trkpt><trkpt lat="50.23859386227837" lon="5.268837382925724"><ele>243.0</ele><time>2026-03-29T14:44:54Z</time></trkpt><trkpt lat="50.23866494038401" lon="5.268837220165622"><ele>243.0</ele><time>2026-03-29T14:45:01Z</time></trkpt><trkpt lat="50.238729691773564" lon="5.268838577056408"><ele>243.0</ele><time>2026-03-29T14:45:07Z</time></trkpt><trkpt lat="50.23880110023688" lon="5.268840745093433"><ele>243.0</ele><time>2026-03-29T14:45:15Z</time></trkpt><trkpt lat="50.23886757771168" lon="5.268844269449501"><ele>243.0</ele><time>2026-03-29T14:45:20Z</time></trkpt><trkpt lat="50.23893605135572" lon="5.26883553281022"><ele>243.0</ele><time>2026-03-29T14:45:28Z</time></trkpt><trkpt lat="50.239001993894945" lon="5.268840026138084"><ele>243.0</ele><time>2026-03-29T14:45:36Z</time></trkpt><trkpt lat="50.23906937893514" lon="5.268851844897091"><ele>243.0</ele><time>2026-03-29T14:45:44Z</time></trkpt><trkpt lat="50.23913924277294" lon="5.268845446215826"><ele>242.42857142857142</ele><time>2026-03-29T14:45:50Z</time></trkpt><trkpt lat="50.23920345593404" lon="5.268852217307724"><ele>241.8571428571429</ele><time>2026-03-29T14:45:57Z</time></trkpt><trkpt lat="50.23927684557869" lon="5.268851440344988"><ele>241.2857142857143</ele><time>2026-03-29T14:46:04Z</time></trkpt><trkpt lat="50.239344035751024" lon="5.268853289168366"><ele>240.71428571428572</ele><time>2026-03-29T14:46:11Z</time></trkpt><trkpt lat="50.23941811728652" lon="5.268845502285977"><ele>240.14285714285717</ele><time>2026-03-29T14:46:18Z</time></trkpt><trkpt lat="50.23948885916281" lon="5.268841122056863"><ele>239.5714285714286</ele><time>2026-03-29T14:46:25Z</time></trkpt><trkpt lat="50.23955697143954" lon="5.268833732812544"><ele>239.00000000000003</ele><time>2026-03-29T14:46:32Z</time></trkpt><trkpt lat="50.2396247851649" lon="5.268824908421416"><ele>239.00000000000003</ele><time>2026-03-29T14:46:38Z</time></trkpt><trkpt lat="50.239694660006045" lon="5.268842621049177"><ele>239.0</ele><time>2026-03-29T14:46:44Z</time></trkpt><trkpt lat="50.239762434650956" lon="5.268863774354511"><ele>239.00000000000003</ele><time>2026-03-29T14:46:52Z</time></trkpt><trkpt lat="50.23982484479608" lon="5.268894103118643"><ele>239.00000000000003</ele><time>2026-03-29T14:46:59Z</time></trkpt><trkpt lat="50.23990210595985" lon="5.26890125477032"><ele>239.0</ele><time>2026-03-29T14:47:06Z</time></trkpt><trkpt lat="50.23996293353954" lon="5.268927198452381"><ele>239.00000000000003</ele><time>2026-03-29T14:47:11Z</time></trkpt><trkpt lat="50.240032787373146" lon="5.268929269536752"><ele>239.00000000000003</ele><time>2026-03-29T14:47:18Z</time></trkpt><trkpt lat="50.24009249535013" lon="5.268961605475259"><ele>239.42857142857144</ele><time>2026-03-29T14:47:25Z</time></trkpt><trkpt lat="50.24015598116678" lon="5.269008701723764"><ele>239.85714285714286</ele><time>2026-03-29T14:47:31Z</time></trkpt><trkpt lat="50.24022124894135" lon="5.2690426646267445"><ele>240.28571428571428</ele><time>2026-03-29T14:47:38Z</time></trkpt><trkpt lat="50.240288916568524" lon="5.269061650495579"><ele>240.71428571428572</ele><time>2026-03-29T14:47:45Z</time></trkpt><trkpt lat="50.2403461633294" lon="5.269103812360336"><ele>241.1428571428571</ele><time>2026-03-29T14:47:52Z</time></trkpt><trkpt lat="50.240418213364364" lon="5.269119486024997"><ele>241.57142857142856</ele><time>2026-03-29T14:48:00Z</time></trkpt><trkpt lat="50.24048687300889" lon="5.2691444374307075"><ele>242.0</ele><time>2026-03-29T14:48:06Z</time></trkpt><trkpt lat="50.240550058503494" lon="5.269132981633431"><ele>242.0</ele><time>2026-03-29T14:48:11Z</time></trkpt><trkpt lat="50.240611253314164" lon="5.269191726139742"><ele>241.99999999999997</ele><time>2026-03-29T14:48:18Z</time></trkpt><trkpt lat="50.24067910549801" lon="5.2692022216516525"><ele>242.0</ele><time>2026-03-29T14:48:25Z</time></trkpt><trkpt lat="50.24074807764045" lon="5.269208082927604"><ele>242.0</ele><time>2026-03-29T14:48:31Z</time></trkpt><trkpt lat="50.24082242916833" lon="5.269224829134535"><ele>241.99999999999997</ele><time>2026-03-29T14:48:39Z</time></trkpt><trkpt lat="50.240893431540094" lon="5.269257542396195"><ele>242.0</ele><time>2026-03-29T14:48:46Z</time></trkpt><trkpt lat="50.240955183197784" lon="5.2693003407166525"><ele>242.0</ele><time>2026-03-29T14:48:54Z</time></trkpt><trkpt lat="50.24101646987507" lon="5.269334222830046"><ele>241.14285714285714</ele><time>2026-03-29T14:49:00Z</time></trkpt><trkpt lat="50.241081997940675" lon="5.269368159806706"><ele>240.28571428571428</ele><time>2026-03-29T14:49:07Z</time></trkpt><trkpt lat="50.241150535642085" lon="5.269382258140563"><ele>239.42857142857142</ele><time>2026-03-29T14:49:14Z</time></trkpt><trkpt lat="50.24121890484701" lon="5.26939883424086"><ele>238.57142857142856</ele><time>2026-03-29T14:49:21Z</time></trkpt><trkpt lat="50.24129494383126" lon="5.26941184748772"><ele>237.71428571428572</ele><time>2026-03-29T14:49:28Z</time></trkpt><trkpt lat="50.241363187408325" lon="5.269423382019851"><ele>236.85714285714283</ele><time>2026-03-29T14:49:34Z</time></trkpt><trkpt lat="50.24142673702615" lon="5.269435773176972"><ele>236.0</ele><time>2026-03-29T14:49:40Z</time></trkpt><trkpt lat="50.241493015606586" lon="5.269476554361527"><ele>235.57142857142856</ele><time>2026-03-29T14:49:47Z</time></trkpt><trkpt lat="50.24155990662605" lon="5.269494508767925"><ele>235.14285714285717</ele><time>2026-03-29T14:49:54Z</time></trkpt><trkpt lat="50.241627633976755" lon="5.269508431235211"><ele>234.71428571428572</ele><time>2026-03-29T14:50:01Z</time></trkpt><trkpt lat="50.24169059062674" lon="5.269506321335957"><ele>234.28571428571428</ele><time>2026-03-29T14:50:08Z</time></trkpt><trkpt lat="50.24175441512646" lon="5.269490038019611"><ele>233.85714285714283</ele><time>2026-03-29T14:50:14Z</time></trkpt><trkpt lat="50.241829131379426" lon="5.269484201134858"><ele>233.42857142857144</ele><time>2026-03-29T14:50:21Z</time></trkpt><trkpt lat="50.24189458652022" lon="5.26946438918476"><ele>233.0</ele><time>2026-03-29T14:50:28Z</time></trkpt><trkpt lat="50.24195684773726" lon="5.269444609230989"><ele>233.0</ele><time>2026-03-29T14:50:34Z</time></trkpt><trkpt lat="50.242028180825876" lon="5.269425873343792"><ele>233.0</ele><time>2026-03-29T14:50:40Z</time></trkpt><trkpt lat="50.24209485200335" lon="5.269412599130706"><ele>233.0</ele><time>2026-03-29T14:50:47Z</time></trkpt><trkpt lat="50.24215719776078" lon="5.269394091335595"><ele>233.0</ele><time>2026-03-29T14:50:53Z</time></trkpt><trkpt lat="50.2422227723684" lon="5.269423356718908"><ele>233.0</ele><time>2026-03-29T14:51:00Z</time></trkpt><trkpt lat="50.242281377445345" lon="5.2694899169771565"><ele>233.0</ele><time>2026-03-29T14:51:09Z</time></trkpt><trkpt lat="50.242339713877385" lon="5.269560257066995"><ele>233.0</ele><time>2026-03-29T14:51:13Z</time></trkpt><trkpt lat="50.24240053267327" lon="5.26960264132381"><ele>233.28571428571428</ele><time>2026-03-29T14:51:20Z</time></trkpt><trkpt lat="50.24246491764968" lon="5.26963256670944"><ele>233.57142857142856</ele><time>2026-03-29T14:51:27Z</time></trkpt><trkpt lat="50.2425275582821" lon="5.269670683426348"><ele>233.85714285714283</ele><time>2026-03-29T14:51:34Z</time></trkpt><trkpt lat="50.24258834069992" lon="5.269699795391099"><ele>234.14285714285714</ele><time>2026-03-29T14:51:39Z</time></trkpt><trkpt lat="50.24265441770691" lon="5.269734006168581"><ele>234.4285714285714</ele><time>2026-03-29T14:51:45Z</time></trkpt><trkpt lat="50.24271629808287" lon="5.269757266323067"><ele>234.7142857142857</ele><time>2026-03-29T14:51:51Z</time></trkpt><trkpt lat="50.24278394820932" lon="5.269791784549158"><ele>235.0</ele><time>2026-03-29T14:51:59Z</time></trkpt><trkpt lat="50.24284092850667" lon="5.2698363323887145"><ele>235.0</ele><time>2026-03-29T14:52:05Z</time></trkpt><trkpt lat="50.242903517159505" lon="5.2698543742885375"><ele>234.99999999999997</ele><time>2026-03-29T14:52:11Z</time></trkpt><trkpt lat="50.24297019113128" lon="5.26986706904623"><ele>235.0</ele><time>2026-03-29T14:52:17Z</time></trkpt><trkpt lat="50.24302981419759" lon="5.269912143544432"><ele>235.0</ele><time>2026-03-29T14:52:23Z</time></trkpt><trkpt lat="50.24310114459743" lon="5.269934836330482"><ele>234.99999999999997</ele><time>2026-03-29T14:52:30Z</time></trkpt><trkpt lat="50.2431665855622" lon="5.269946798977371"><ele>235.0</ele><time>2026-03-29T14:52:36Z</time></trkpt><trkpt lat="50.24324036395729" lon="5.269964457171683"><ele>235.0</ele><time>2026-03-29T14:52:43Z</time></trkpt><trkpt lat="50.24329814221445" lon="5.270004483766094"><ele>235.0</ele><time>2026-03-29T14:52:49Z</time></trkpt><trkpt lat="50.2433642795304" lon="5.270033847969655"><ele>234.99999999999997</ele><time>2026-03-29T14:52:55Z</time></trkpt><trkpt lat="50.24343016664238" lon="5.270069130878921"><ele>235.0</ele><time>2026-03-29T14:53:02Z</time></trkpt><trkpt lat="50.24348040728336" lon="5.2701289463326555"><ele>235.0</ele><time>2026-03-29T14:53:09Z</time></trkpt><trkpt lat="50.24354366198005" lon="5.270165864509946"><ele>234.99999999999997</ele><time>2026-03-29T14:53:15Z</time></trkpt><trkpt lat="50.24360389828462" lon="5.270194789603782"><ele>235.0</ele><time>2026-03-29T14:53:20Z</time></trkpt><trkpt lat="50.24366971256674" lon="5.270229128229458"><ele>235.0</ele><time>2026-03-29T14:53:26Z</time></trkpt><trkpt lat="50.24373472528871" lon="5.270273100133342"><ele>235.0</ele><time>2026-03-29T14:53:32Z</time></trkpt><trkpt lat="50.24379371195157" lon="5.270318519766946"><ele>234.99999999999997</ele><time>2026-03-29T14:53:38Z</time></trkpt><trkpt lat="50.24385518062677" lon="5.270377414635284"><ele>235.0</ele><time>2026-03-29T14:53:45Z</time></trkpt><trkpt lat="50.243918205525965" lon="5.270442661090527"><ele>235.0</ele><time>2026-03-29T14:53:51Z</time></trkpt><trkpt lat="50.243971227504915" lon="5.270503208982808"><ele>234.99999999999997</ele><time>2026-03-29T14:54:06Z</time></trkpt><trkpt lat="50.244012721042736" lon="5.270581107296286"><ele>235.0</ele><time>2026-03-29T14:54:15Z</time></trkpt><trkpt lat="50.24406618270337" lon="5.270655420002691"><ele>235.0</ele><time>2026-03-29T14:54:21Z</time></trkpt><trkpt lat="50.24411983840855" lon="5.270732782591846"><ele>235.14285714285714</ele><time>2026-03-29T14:54:28Z</time></trkpt><trkpt lat="50.24417576621181" lon="5.270814816707195"><ele>235.28571428571428</ele><time>2026-03-29T14:54:34Z</time></trkpt><trkpt lat="50.244224838796136" lon="5.270897457611547"><ele>235.42857142857142</ele><time>2026-03-29T14:54:41Z</time></trkpt><trkpt lat="50.24427632284739" lon="5.270971010658546"><ele>235.57142857142856</ele><time>2026-03-29T14:54:48Z</time></trkpt><trkpt lat="50.24432581696515" lon="5.271036409022785"><ele>235.71428571428572</ele><time>2026-03-29T14:54:55Z</time></trkpt><trkpt lat="50.24437109361876" lon="5.271106503971802"><ele>235.85714285714283</ele><time>2026-03-29T14:55:00Z</time></trkpt><trkpt lat="50.2444229353191" lon="5.271181141310817"><ele>236.0</ele><time>2026-03-29T14:55:06Z</time></trkpt><trkpt lat="50.24446727514679" lon="5.271263250409379"><ele>236.0</ele><time>2026-03-29T14:55:12Z</time></trkpt><trkpt lat="50.2445242108837" lon="5.271311905846844"><ele>236.0</ele><time>2026-03-29T14:55:19Z</time></trkpt><trkpt lat="50.24458922007305" lon="5.271277057418704"><ele>236.0</ele><time>2026-03-29T14:55:25Z</time></trkpt><trkpt lat="50.244643358305524" lon="5.271213158828537"><ele>236.0</ele><time>2026-03-29T14:55:30Z</time></trkpt><trkpt lat="50.244703947323345" lon="5.2711475291686005"><ele>236.0</ele><time>2026-03-29T14:55:36Z</time></trkpt><trkpt lat="50.24475980592301" lon="5.271076594853091"><ele>236.0</ele><time>2026-03-29T14:55:42Z</time></trkpt><trkpt lat="50.244801627023975" lon="5.27099328419747"><ele>236.0</ele><time>2026-03-29T14:55:49Z</time></trkpt><trkpt lat="50.24484313316728" lon="5.270907690582221"><ele>236.14285714285714</ele><time>2026-03-29T14:55:55Z</time></trkpt><trkpt lat="50.24491306319174" lon="5.2709234434829275"><ele>236.28571428571428</ele><time>2026-03-29T14:56:01Z</time></trkpt><trkpt lat="50.244972221828675" lon="5.270963021080661"><ele>236.42857142857142</ele><time>2026-03-29T14:56:08Z</time></trkpt><trkpt lat="50.245041851959435" lon="5.270995203743255"><ele>236.57142857142856</ele><time>2026-03-29T14:56:14Z</time></trkpt><trkpt lat="50.24511355533335" lon="5.271016608335384"><ele>236.71428571428572</ele><time>2026-03-29T14:56:21Z</time></trkpt><trkpt lat="50.2451859769426" lon="5.27105163777365"><ele>236.85714285714283</ele><time>2026-03-29T14:56:27Z</time></trkpt><trkpt lat="50.24526314904952" lon="5.271053657724507"><ele>236.99999999999997</ele><time>2026-03-29T14:56:33Z</time></trkpt><trkpt lat="50.24533043759768" lon="5.271011837615118"><ele>236.99999999999997</ele><time>2026-03-29T14:56:39Z</time></trkpt><trkpt lat="50.245391204315844" lon="5.270954785973333"><ele>237.0</ele><time>2026-03-29T14:56:46Z</time></trkpt><trkpt lat="50.24545329621835" lon="5.27092125782325"><ele>236.99999999999997</ele><time>2026-03-29T14:56:52Z</time></trkpt><trkpt lat="50.24552209530532" lon="5.270907458034114"><ele>236.99999999999997</ele><time>2026-03-29T14:56:57Z</time></trkpt><trkpt lat="50.245587045845035" lon="5.270909818140989"><ele>237.0</ele><time>2026-03-29T14:57:04Z</time></trkpt><trkpt lat="50.24564869907274" lon="5.270986179618703"><ele>236.99999999999997</ele><time>2026-03-29T14:57:11Z</time></trkpt><trkpt lat="50.245681602317944" lon="5.271078267445892"><ele>236.99999999999997</ele><time>2026-03-29T14:57:14Z</time></trkpt><trkpt lat="50.2457307786972" lon="5.271145919829963"><ele>237.4285714285714</ele><time>2026-03-29T14:57:20Z</time></trkpt><trkpt lat="50.245726815526446" lon="5.2712487171867615"><ele>237.85714285714283</ele><time>2026-03-29T14:57:26Z</time></trkpt><trkpt lat="50.2457386316178" lon="5.271360021192985"><ele>238.28571428571428</ele><time>2026-03-29T14:57:32Z</time></trkpt><trkpt lat="50.245743739981876" lon="5.27147273988758"><ele>238.7142857142857</ele><time>2026-03-29T14:57:39Z</time></trkpt><trkpt lat="50.245760128870394" lon="5.271577350546097"><ele>239.1428571428571</ele><time>2026-03-29T14:57:45Z</time></trkpt><trkpt lat="50.24579332643921" lon="5.271683232290888"><ele>239.57142857142858</ele><time>2026-03-29T14:57:52Z</time></trkpt><trkpt lat="50.24580465933292" lon="5.271791784846012"><ele>240.0</ele><time>2026-03-29T14:57:58Z</time></trkpt><trkpt lat="50.245821244186786" lon="5.271902790673723"><ele>240.0</ele><time>2026-03-29T14:58:03Z</time></trkpt><trkpt lat="50.24584769107214" lon="5.271999517473549"><ele>240.0</ele><time>2026-03-29T14:58:08Z</time></trkpt><trkpt lat="50.24586216684928" lon="5.272107261150974"><ele>240.0</ele><time>2026-03-29T14:58:14Z</time></trkpt><trkpt lat="50.24586474184803" lon="5.272220413868004"><ele>240.0</ele><time>2026-03-29T14:58:20Z</time></trkpt><trkpt lat="50.245888555460226" lon="5.272317130571214"><ele>240.0</ele><time>2026-03-29T14:58:26Z</time></trkpt><trkpt lat="50.245905212831374" lon="5.272419491721738"><ele>240.0</ele><time>2026-03-29T14:58:32Z</time></trkpt><trkpt lat="50.24590873617789" lon="5.2725178674460285"><ele>240.0</ele><time>2026-03-29T14:58:37Z</time></trkpt><trkpt lat="50.2459218984038" lon="5.2726150229203155"><ele>239.57142857142858</ele><time>2026-03-29T14:58:42Z</time></trkpt><trkpt lat="50.24593835549409" lon="5.272726827261187"><ele>239.1428571428571</ele><time>2026-03-29T14:58:48Z</time></trkpt><trkpt lat="50.24594701877371" lon="5.272839887102811"><ele>238.7142857142857</ele><time>2026-03-29T14:58:55Z</time></trkpt><trkpt lat="50.24598162939908" lon="5.272924814853942"><ele>238.28571428571428</ele><time>2026-03-29T14:59:01Z</time></trkpt><trkpt lat="50.245982308397444" lon="5.2730338803789945"><ele>237.85714285714283</ele><time>2026-03-29T14:59:07Z</time></trkpt><trkpt lat="50.24600732810812" lon="5.273129531586454"><ele>237.4285714285714</ele><time>2026-03-29T14:59:13Z</time></trkpt><trkpt lat="50.24602528051964" lon="5.273224526030271"><ele>236.99999999999997</ele><time>2026-03-29T14:59:18Z</time></trkpt><trkpt lat="50.246065976191936" lon="5.273317471352908"><ele>236.85714285714283</ele><time>2026-03-29T14:59:24Z</time></trkpt><trkpt lat="50.246112908951794" lon="5.2734108035748015"><ele>236.71428571428572</ele><time>2026-03-29T14:59:30Z</time></trkpt><trkpt lat="50.24614973592425" lon="5.273495578919407"><ele>236.57142857142856</ele><time>2026-03-29T14:59:36Z</time></trkpt><trkpt lat="50.24618149453315" lon="5.273594082565411"><ele>236.42857142857142</ele><time>2026-03-29T14:59:42Z</time></trkpt><trkpt lat="50.24621739034664" lon="5.273680672649498"><ele>236.28571428571428</ele><time>2026-03-29T14:59:48Z</time></trkpt><trkpt lat="50.24625760708773" lon="5.27377156011509"><ele>236.14285714285714</ele><time>2026-03-29T14:59:55Z</time></trkpt><trkpt lat="50.24628313455923" lon="5.273864342420604"><ele>236.0</ele><time>2026-03-29T15:00:00Z</time></trkpt><trkpt lat="50.24630099060593" lon="5.273973195709843"><ele>235.85714285714283</ele><time>2026-03-29T15:00:05Z</time></trkpt><trkpt lat="50.2463481847459" lon="5.274049187290194"><ele>235.71428571428572</ele><time>2026-03-29T15:00:10Z</time></trkpt><trkpt lat="50.24638155012685" lon="5.274148601766146"><ele>235.57142857142856</ele><time>2026-03-29T15:00:16Z</time></trkpt><trkpt lat="50.246429842902536" lon="5.274239242899951"><ele>235.42857142857142</ele><time>2026-03-29T15:00:22Z</time></trkpt><trkpt lat="50.24647445727782" lon="5.2743123264906435"><ele>235.28571428571428</ele><time>2026-03-29T15:00:27Z</time></trkpt><trkpt lat="50.24651328580296" lon="5.274390445816072"><ele>235.14285714285714</ele><time>2026-03-29T15:00:32Z</time></trkpt><trkpt lat="50.246575523988795" lon="5.274457613641487"><ele>235.0</ele><time>2026-03-29T15:00:38Z</time></trkpt><trkpt lat="50.246595507172344" lon="5.274567325941676"><ele>234.85714285714283</ele><time>2026-03-29T15:00:44Z</time></trkpt><trkpt lat="50.24662140119331" lon="5.274670968139839"><ele>234.7142857142857</ele><time>2026-03-29T15:00:50Z</time></trkpt><trkpt lat="50.24665245735633" lon="5.274772692942702"><ele>234.57142857142856</ele><time>2026-03-29T15:00:56Z</time></trkpt><trkpt lat="50.24669833016638" lon="5.274858547787881"><ele>234.42857142857144</ele><time>2026-03-29T15:01:03Z</time></trkpt><trkpt lat="50.24674996219926" lon="5.274944320340117"><ele>234.2857142857143</ele><time>2026-03-29T15:01:09Z</time></trkpt><trkpt lat="50.24676397803471" lon="5.275047681128535"><ele>234.14285714285717</ele><time>2026-03-29T15:01:14Z</time></trkpt><trkpt lat="50.24679269446467" lon="5.275147924775979"><ele>234.0</ele><time>2026-03-29T15:01:20Z</time></trkpt><trkpt lat="50.24681553530245" lon="5.2752491871902665"><ele>233.71428571428572</ele><time>2026-03-29T15:01:26Z</time></trkpt><trkpt lat="50.246848176763756" lon="5.275340516525501"><ele>233.42857142857144</ele><time>2026-03-29T15:01:32Z</time></trkpt><trkpt lat="50.24689520842409" lon="5.2754329188583196"><ele>233.14285714285717</ele><time>2026-03-29T15:01:38Z</time></trkpt><trkpt lat="50.24692305372623" lon="5.275528995043733"><ele>232.8571428571429</ele><time>2026-03-29T15:01:44Z</time></trkpt><trkpt lat="50.24697089642228" lon="5.275602028363298"><ele>232.57142857142858</ele><time>2026-03-29T15:01:50Z</time></trkpt><trkpt lat="50.24699733298447" lon="5.2756963246363195"><ele>232.28571428571433</ele><time>2026-03-29T15:01:56Z</time></trkpt><trkpt lat="50.24704277286543" lon="5.275772716915685"><ele>232.00000000000003</ele><time>2026-03-29T15:02:01Z</time></trkpt><trkpt lat="50.24709391097977" lon="5.275860166486985"><ele>231.71428571428575</ele><time>2026-03-29T15:02:06Z</time></trkpt><trkpt lat="50.24712167888207" lon="5.275954775110491"><ele>231.42857142857144</ele><time>2026-03-29T15:02:11Z</time></trkpt><trkpt lat="50.24716543390502" lon="5.276029540004241"><ele>231.14285714285714</ele><time>2026-03-29T15:02:16Z</time></trkpt><trkpt lat="50.24720202992867" lon="5.2761132208193615"><ele>230.85714285714286</ele><time>2026-03-29T15:02:21Z</time></trkpt><trkpt lat="50.247266039331265" lon="5.276150183732968"><ele>230.57142857142856</ele><time>2026-03-29T15:02:26Z</time></trkpt><trkpt lat="50.24731575882257" lon="5.276213611549318"><ele>230.28571428571425</ele><time>2026-03-29T15:02:31Z</time></trkpt><trkpt lat="50.24735789446285" lon="5.276308292300355"><ele>229.99999999999997</ele><time>2026-03-29T15:02:37Z</time></trkpt><trkpt lat="50.24740554113304" lon="5.276392384316958"><ele>229.85714285714283</ele><time>2026-03-29T15:02:43Z</time></trkpt><trkpt lat="50.247450643408236" lon="5.2764624364925305"><ele>229.71428571428572</ele><time>2026-03-29T15:02:48Z</time></trkpt><trkpt lat="50.247491391461764" lon="5.276559300327316"><ele>229.57142857142856</ele><time>2026-03-29T15:02:54Z</time></trkpt><trkpt lat="50.2475435352322" lon="5.27664031529706"><ele>229.42857142857142</ele><time>2026-03-29T15:03:00Z</time></trkpt><trkpt lat="50.24758451983156" lon="5.276722354087465"><ele>229.28571428571428</ele><time>2026-03-29T15:03:05Z</time></trkpt><trkpt lat="50.24762228167952" lon="5.276802210593088"><ele>229.14285714285714</ele><time>2026-03-29T15:03:10Z</time></trkpt><trkpt lat="50.247680115845235" lon="5.276862533529154"><ele>229.0</ele><time>2026-03-29T15:03:16Z</time></trkpt><trkpt lat="50.247729262987335" lon="5.2769485514497605"><ele>229.0</ele><time>2026-03-29T15:03:22Z</time></trkpt><trkpt lat="50.24775914765989" lon="5.277036346920257"><ele>229.0</ele><time>2026-03-29T15:03:27Z</time></trkpt><trkpt lat="50.24781765773682" lon="5.277103513772703"><ele>229.0</ele><time>2026-03-29T15:03:33Z</time></trkpt><trkpt lat="50.24786339034011" lon="5.277176179485046"><ele>229.0</ele><time>2026-03-29T15:03:38Z</time></trkpt><trkpt lat="50.247912179033484" lon="5.277258596231794"><ele>229.0</ele><time>2026-03-29T15:03:44Z</time></trkpt><trkpt lat="50.24794715411159" lon="5.277347816845651"><ele>229.0</ele><time>2026-03-29T15:03:49Z</time></trkpt><trkpt lat="50.24799045909208" lon="5.2774241825313615"><ele>229.0</ele><time>2026-03-29T15:03:54Z</time></trkpt><trkpt lat="50.248035814104526" lon="5.277507659245205"><ele>227.0</ele><time>2026-03-29T15:04:00Z</time></trkpt><trkpt lat="50.248091998208636" lon="5.277559029908322"><ele>227.0</ele><time>2026-03-29T15:04:05Z</time></trkpt><trkpt lat="50.24815776321904" lon="5.277615046247042"><ele>228.0</ele><time>2026-03-29T15:04:11Z</time></trkpt><trkpt lat="50.24822058035906" lon="5.277652215290926"><ele>228.0</ele><time>2026-03-29T15:04:17Z</time></trkpt><trkpt lat="50.24823089828684" lon="5.2775461964800225"><ele>228.0</ele><time>2026-03-29T15:05:01Z</time></trkpt><trkpt lat="50.24828131620697" lon="5.277465196294091"><ele>228.0</ele><time>2026-03-29T15:05:06Z</time></trkpt></trkseg></trk></gpx>